Do upload dupes. It helps us clean and complete our database.

PRE DATA

Datetime Category Release
2021-11-28 00:01:41 MP3 Joyhauser-In_the_Mix_(Studio_Brussel)-CABLE-27-11-2021-1KING
2021-11-28 00:05:14 MP3 Fardin_Ameri_x_Siamak_Rafieejam--White_Prado-(SMPT014)-WEB-2021-BABAS
2021-11-28 00:05:39 MP3 Faserklang--Ghost_Notes-(MELOTONIN4)-WEB-2021-BABAS
2021-11-28 00:06:04 MP3 Faserklang--Slow_Flow-(MELOTONIN2)-WEB-2021-BABAS
2021-11-28 00:06:07 MP3 Kolsch-In_the_Mix_(Studio_Brussel)-CABLE-19-11-2021-1KING
2021-11-28 00:06:29 MP3 K.D.S_x_Stabfinger--Al_Bidaya-(CMVR020)-WEB-2021-BABAS
2021-11-28 00:06:54 MP3 SIMM--Too_Late_To_Dream-(64MOHM)-WEB-2021-BABAS
2021-11-28 00:07:19 MP3 VA-Kubiko_2-(CLEPSYDRA244)-WEB-2021-BABAS
2021-11-28 00:07:44 MP3 VA-Music_For_Mindfulness_Vol_4_(Compiled_by_Kenneth_Bager)-(ZZZCD0268)-WEB-2020-BABAS
2021-11-28 00:07:56 MP3 Velo_Misere-Monomania_Del_Inexorable_Vacio-ES-CD-2021-GRAVEWISH
2021-11-28 00:08:14 MP3 VA-Music_For_Mindfulness_Vol_5_(Compiled_by_Kenneth_Bager)-(ZZZCD0278)-WEB-2021-BABAS
2021-11-28 00:08:41 MP3 VA-TETRAO_V-(TETRAOV)-WEB-2020-BABAS
2021-11-28 00:09:00 MP3 VA-TETRAO_V-Volumen_II-(TETRAOV2)-WEB-2020-BABAS
2021-11-28 00:09:40 TV-X264 Fear.the.Walking.Dead.S06E15.German.DL.1080p.BluRay.x264-iNTENTiON
2021-11-28 00:10:35 MP3 BenAddikt_and_Just_Coley--Rock_That_Body-(STI0274)-SINGLE-WEB-2021-OMA
2021-11-28 00:10:56 TV-X264 Fear.the.Walking.Dead.S06E14.German.DL.1080p.BluRay.x264-iNTENTiON
2021-11-28 00:11:14 TV-HD-FR Power.Book.II.Ghost.S02E02.INTERNAL.FRENCH.720p.WEB.H264-SILVIODANTE
2021-11-28 00:11:59 TV-SD-FR Power.Book.II.Ghost.S02E02.INTERNAL.FRENCH.WEB.H264-SILVIODANTE
2021-11-28 00:15:51 TV-HD-FR Hightown.S02E06.INTERNAL.FRENCH.720p.WEB.H264-SILVIODANTE
2021-11-28 00:16:38 TV-SD-FR Hightown.S02E06.INTERNAL.FRENCH.WEB.H264-SILVIODANTE
2021-11-28 00:17:04 GAMES Real_Boxing_2_NSW-LUMA
2021-11-28 00:17:13 TV-HD-NORD Solsidan.S07E07.SWEDiSH.720p.WEB.h264-NORUSH
2021-11-28 00:17:17 TV-HD-NORD Solsidan.S07E07.SWEDiSH.1080p.WEB.h264-NORUSH
2021-11-28 00:18:12 MP3 AXMO--The_Jungle-(RVC070)-WEB-2021-OMA
2021-11-28 00:18:21 TV-HD-NORD Alla.Mot.Alla.Med.Filip.Och.Fredrik.S06E53.SWEDiSH.720p.WEB.h264-NORUSH
2021-11-28 00:18:40 MP3 W_and_W_x_Martin_Jensen_feat._Linnea_Schoessow--Greece_2021-(RVC071)-WEB-2021-OMA
2021-11-28 00:19:09 MP3 Carta_x_Luminn--Reload-(RVC072)-WEB-2021-OMA
2021-11-28 00:19:12 TV-HD-NORD Alla.Mot.Alla.Med.Filip.Och.Fredrik.S06E53.SWEDiSH.1080p.WEB.h264-NORUSH
2021-11-28 00:19:36 MP3 Wiwek--Periphery-(RVC073)-WEB-2021-OMA
2021-11-28 00:20:33 MP3 W_and_W_x_Sandro_Silva_x_Justin_Prime--This_Is_Our_Legacy-(RVC075)-WEB-2021-OMA
2021-11-28 00:20:54 TV-HD-NORD Alla.Mot.Alla.Med.Filip.Och.Fredrik.S06E54.SWEDiSH.720p.WEB.h264-NORUSH
2021-11-28 00:21:16 MP3 Cornucopia--Pursuit_Of_The_Orange_Butterfly-(12MCSL001)-WEB-2016-BABAS
2021-11-28 00:21:40 MP3 VA-microCastle_Volume_Four-(MCSL006LP)-WEB-2011-BABAS
2021-11-28 00:22:02 TV-HD-NORD Alla.Mot.Alla.Med.Filip.Och.Fredrik.S06E54.SWEDiSH.1080p.WEB.h264-NORUSH
2021-11-28 00:22:06 MP3 VA-microCastle_Volume_Three-(MCSL003LP)-WEB-2010-BABAS
2021-11-28 00:23:59 MP3 NIVIRO--The_Hymn_Of_Nivoria-(RVC076)-WEB-2021-OMA
2021-11-28 00:24:01 TV-HD-NORD Alla.Mot.Alla.Med.Filip.Och.Fredrik.S06E55.SWEDiSH.720p.WEB.h264-NORUSH
2021-11-28 00:24:10 FLAC Velo_Misere-Monomania_Del_Inexorable_Vacio-ES-CD-FLAC-2021-GRAVEWISH
2021-11-28 00:24:31 TV-HD-NORD Alla.Mot.Alla.Med.Filip.Och.Fredrik.S06E55.SWEDiSH.1080p.WEB.h264-NORUSH
2021-11-28 00:24:38 MP3 KEVU_x_SaberZ--Mark_Of_Cain-(RVC078)-WEB-2021-OMA
2021-11-28 00:25:10 MP3 AXMO_x_STVW--Time_Capsule-(RVC079)-WEB-2021-OMA
2021-11-28 00:25:44 MP3 Husman--Desire-(RVC080)-WEB-2021-OMA
2021-11-28 00:26:02 TV-X264 The.Bachelorette.AU.S07E10.720p.HDTV.x264-ORENJI
2021-11-28 00:26:09 TV-HD-NORD Alla.Mot.Alla.Med.Filip.Och.Fredrik.S06E56.SWEDiSH.720p.WEB.h264-NORUSH
2021-11-28 00:26:11 TV-SD The.Bachelorette.AU.S07E10.HDTV.x264-FQM
2021-11-28 00:26:16 MP3 Nicky_Romero_x_W_and_W_feat._Olivia_Penalva--Were_Still_Young-(RVC081)-WEB-2021-OMA
2021-11-28 00:26:45 MP3 Sandro_Silva--Risk_It_All-(RVC082)-WEB-2021-OMA
2021-11-28 00:27:12 TV-HD-NORD Alla.Mot.Alla.Med.Filip.Och.Fredrik.S06E56.SWEDiSH.1080p.WEB.h264-NORUSH
2021-11-28 00:27:17 MP3 NIVIRO_x_KEVU--Unity-(RVC083)-WEB-2021-OMA
2021-11-28 00:27:48 TV-SD The.Bachelorette.AU.S07E11.HDTV.x264-FQM
2021-11-28 00:27:50 TV-X264 The.Bachelorette.AU.S07E11.720p.HDTV.x264-ORENJI
2021-11-28 00:27:50 MP3 SaberZ_x_Drifter5--Huang-(RVC084)-WEB-2021-OMA
2021-11-28 00:28:23 MP3 Sandro_Silva_x_Olly_James--Founding_Fathers-(RVC085)-WEB-2021-OMA
2021-11-28 00:29:04 MP3 W_and_W_x_BlasterJaxx--Dynamite_(Bigroom_Nation)-(RVC088)-WEB-2021-OMA
2021-11-28 00:29:41 MP3 DubVision--No_More-(RVC089)-WEB-2021-OMA
2021-11-28 00:30:30 MP3 KEVU_x_SixCap--Mystery-(RVC090)-WEB-2021-OMA
2021-11-28 00:31:19 MP3 ANG_x_SaberZ--Takeover-(RVC092)-WEB-2021-OMA
2021-11-28 00:33:24 MP3 NERVO--Basement_(Albert_Neve_Remix)-(TOOL104504Z)-WEB-2021-OMA
2021-11-28 00:35:54 MP3 MKII--This_Is_-_Cant_You_See-(HE024)-WEB-2021-OMA
2021-11-28 00:37:15 MP3 Sadboy_Loko-The_Lost_Files-WEB-2021-FiH
2021-11-28 00:38:29 TV-X264 Fear.the.Walking.Dead.S06E16.German.DL.1080p.BluRay.x264-iNTENTiON
2021-11-28 00:44:44 TV-X264 Reba.McEntires.Christmas.in.Tune.2021.720p.HDTV.x264-CRiMSON
2021-11-28 00:46:09 MP3 Between_The_Buried_And_Me_-_Colors_II-2021-FKK
2021-11-28 00:46:30 FLAC Between_The_Buried_And_Me-Colors_II-CD-FLAC-2021-BOCKSCAR
2021-11-28 00:51:47 TV-SD Reba.McEntires.Christmas.in.Tune.2021.HDTV.x264-CRiMSON
2021-11-28 00:56:03 MP3 Redlight-Sweat-WEB-2021-z0ne_int
2021-11-28 01:00:12 MP3 Psycos--25_Years_Psycos_(Remixes)-(TFX005)-WEB-2021-OMA
2021-11-28 01:01:44 MP3 Joris_Voorn-Spectrum_Radio-SAT-28-11-2021-1KING
2021-11-28 01:02:32 MP3 Sigma_and_Carla_Marie--Hope_(Original_Mix)-SINGLE-WEB-2021-OMA
2021-11-28 01:03:00 MP3 Sigma_and_Carla_Marie_feat._Beenie_Man--Hope_(Benny_Page_and_Dope_Ammo_Remix)-SINGLE-WEB-2021-OMA
2021-11-28 01:03:28 MP3 Sigma_and_Carla_Marie--Hope_(Andromedik_Remix)-SINGLE-WEB-2021-OMA
2021-11-28 01:03:57 MP3 Sigma_and_Carla_Marie--Hope_(KC_Lights_Remixes)-WEB-2021-OMA
2021-11-28 01:04:24 MP3 Tanz_MC_Shabba_D_Toddlah_Y-ZER_Zen_Lewis_Kinetic_Swifta_AC_MC_Complex_and_Decoy--Dragons_Pen-(HL003)-SINGLE-WEB-2020-OMA
2021-11-28 01:04:53 MP3 MC_Shabba_D_and_Skamma_and_Frenzee_and_MC_Endo_and_Swifta_and_Tanz_and_Steelo182--Feel_No_Way-(HL004)-SINGLE-WEB-2021-OMA
2021-11-28 01:05:19 MP3 MC_Endo_Mr_Traumatik_Swifta_MC_Shabba_D_Skamma_Runnah_and_Chunky_Bizzle--Who_Said-(HL002)-SINGLE-WEB-2020-OMA
2021-11-28 01:05:47 MP3 MC_Endo_and_Mr_Traumatik_and_Mc_Inna_and_Wrekka--Time-(HL005)-SINGLE-WEB-2021-OMA
2021-11-28 01:06:15 MP3 MC_Shabba_D_and_MC_Endo_and_Tanz_and_Swifta_and_Silent_Storm--5_Minutes-(HL007)-SINGLE-WEB-2021-OMA
2021-11-28 01:06:44 MP3 MC_Shabba_D_and_MC_Endo_and_Tanz_and_Swifta_and_KRUSTY_and_Skamma--Drama-(HL009)-SINGLE-WEB-2021-OMA
2021-11-28 01:07:18 MP3 MC_Shabba_D_and_Mr_Traumatik_and_MC_Endo_and_Tanz_and_Tomoyoshi_and_Swifta--True_Colours-(HL010)-SINGLE-WEB-2021-OMA
2021-11-28 01:09:34 MP3 Makossa_and_Sugar_B_and_Inessa-Swound_Sound-SAT-11-27-2021-PTC
2021-11-28 01:09:34 MP3 VA--True_Colours_EP-(HL006)-WEB-2021-OMA
2021-11-28 01:10:02 MP3 Tune_Brothers-Housesession-SAT-11-28-2021-PTC
2021-11-28 01:10:04 MP3 VA--Run_Tingz_Revolution_LP-(RTZLP007)-WEB-2021-OMA
2021-11-28 01:11:21 MP3 Falco_and_Dubfield--Sub_Mariner_EP-(NBRECS001)-WEB-2018-OMA
2021-11-28 01:11:49 MP3 Evil_Intention--3rd_Eye_EP-(NBRECS004)-WEB-2018-OMA
2021-11-28 01:12:18 MP3 VA--Wu_Style_EP-(NBRECS005)-WEB-2018-OMA
2021-11-28 01:12:47 MP3 Maurizzle_and_Parasite--Too_Far_-_Gods_Gamble-(NBRECS006)-WEB-2018-OMA
2021-11-28 01:13:17 MP3 Jedi--Poor_White_Trash_EP-(NBRECS007)-WEB-2018-OMA
2021-11-28 01:13:44 MP3 Septon--Down_In_Flames_EP-(NBRECS008)-WEB-2018-OMA
2021-11-28 01:14:12 MP3 TbO--Extravagant_EP-(NBRECS009)-WEB-2018-OMA
2021-11-28 01:14:40 MP3 Olly_F--Mankind_EP-(NBRECS010)-WEB-2018-OMA
2021-11-28 01:15:34 MP3 MONSS--Borrelia_EP-(NBRECS011)-WEB-2018-OMA
2021-11-28 01:16:02 MP3 DJ_Zent--Darjeeling_-_A_Place_To_Go-(NBRECS013)-WEB-2019-OMA
2021-11-28 01:16:32 MP3 Jedi--Whos_The_Badman_EP-(NBRECS014)-WEB-2019-OMA
2021-11-28 01:16:58 MP3 Midst--Sexting_EP-(NBRECS015)-WEB-2019-OMA
2021-11-28 01:17:27 MP3 Kendrick--Ranch_-_Chang-(NBRECS016)-WEB-2019-OMA
2021-11-28 01:17:56 MP3 Jedi--Dork_EP-(NBRECS017)-WEB-2019-OMA
2021-11-28 01:18:23 MP3 Septon_feat._MONSS--Premium_Haze_EP-(NBRECS019)-WEB-2019-OMA
2021-11-28 01:18:51 MP3 Wrexx--Halo_EP-(NBRECS020)-WEB-2019-OMA_INT
2021-11-28 01:19:20 MP3 Chilly--Pepper_N_Ting-(NBRECS021)-WEB-2019-OMA_INT
2021-11-28 01:19:47 MP3 Audio_Mobsta--Slaughter_House_EP-(NBRECS022)-WEB-2019-OMA
2021-11-28 01:20:16 MP3 Nixon_and_Kritical--Resonate_EP-(NBRECS023)-WEB-2019-OMA
2021-11-28 01:20:43 MP3 Jedi_feat._Missy_G--Mercy_EP-(NBRECS024)-WEB-2019-OMA
2021-11-28 01:21:30 MP3 PhoroptiC--Murderer_EP-(NBRECS025)-WEB-2019-OMA
2021-11-28 01:21:57 MP3 Midst--Sweet_But_Psycho_EP-(NBRECS026)-WEB-2019-OMA
2021-11-28 01:22:26 MP3 Hamses--Reunion_EP-(NBRECS028)-WEB-2019-OMA
2021-11-28 01:23:02 MP3 Falco--Paradigm_EP-(NBRECS031)-WEB-2019-OMA
2021-11-28 01:23:30 MP3 Midst--Citrus_Flavours_EP-(NBRECS033)-WEB-2019-OMA
2021-11-28 01:23:57 MP3 Hamses--System_Fail_EP-(NBRECS034)-WEB-2019-OMA_INT
2021-11-28 01:24:25 MP3 MONSS--Noodle_VIP_-_Arithmetics_VIP-(NBRECS035)-WEB-2019-OMA
2021-11-28 01:24:52 MP3 Pruf--Zero_Tolerance_EP-(NBRECS038)-WEB-2020-OMA
2021-11-28 01:25:20 MP3 Pruf--Jack_It_Up_EP-(NBRECS043)-WEB-2020-OMA
2021-11-28 01:26:32 MP3 KVLT--Crawling_Terror_-_In_My_Mind-(NBRECS045)-WEB-2020-OMA
2021-11-28 01:27:22 MP3 INSTAG8--Spider_Island_-_Time_and_Space-(NBRECS046)-WEB-2020-OMA
2021-11-28 01:27:28 TV-X264 The.Nature.of.Things.with.David.Suzuki.S61E04.The.New.Human.1080p.WEBRip.x264-BAE
2021-11-28 01:27:30 TV-X264 The.Nature.of.Things.with.David.Suzuki.S61E04.The.New.Human.720p.WEBRip.x264-BAE
2021-11-28 01:27:31 TV-X264 Overnight.Hot.Springs.Creampie.Mei.Satsuki.JAPANESE.XXX.720p.WEBRiP.MP4-MFPF
2021-11-28 01:27:54 MP3 Midst--The_Beast_EP-(NBRECS048)-WEB-2020-OMA
2021-11-28 01:28:30 MP3 Jedi--The_Vow_EP-(NBRECS049)-WEB-2020-OMA
2021-11-28 01:28:31 MP3 VA-Atomic_Bomb_Volume_1-(NBRECS050)-WEB-2020-PTC
2021-11-28 01:28:42 TV-X264 Marketplace.S49E09.1080p.WEB.h264-BAE
2021-11-28 01:28:45 TV-X264 Marketplace.S49E09.720p.WEB.h264-BAE
2021-11-28 01:28:47 TV-X264 The.Fifth.Estate.S47E07.1080p.WEB.h264-BAE
2021-11-28 01:28:48 TV-X264 The.Fifth.Estate.S47E07.720p.WEB.h264-BAE
2021-11-28 01:29:15 MP3 VA--Atomic_Bomb_Volume_1-(NBRECS050)-WEB-2020-OMA
2021-11-28 01:29:20 TV-X264 Paid.To.Have.Fun.Sumire.Mizukawa.JAPANESE.XXX.720p.WEBRiP.MP4-MFPF
2021-11-28 01:29:52 MP3 RD--Terminator_Online_EP-(NBRECS051)-WEB-2020-OMA
2021-11-28 01:30:40 TV-X264 Pantyhose.Sex.Minami.Aizawa.JAPANESE.XXX.720p.WEBRiP.MP4-MFPF
2021-11-28 01:30:41 MP3 Pruf--For_Speed_EP-(NBRECS053)-WEB-2020-OMA
2021-11-28 01:31:21 MP3 Jedi--Everybody_Get_Up_EP-(NBRECS054)-WEB-2020-OMA
2021-11-28 01:31:37 TV-X264 Parents.Away.For.3.Days.Izuna.Maki.JAPANESE.XXX.720p.WEBRiP.MP4-MFPF
2021-11-28 01:31:52 MP3 Midst--Dont_Give_Up_On_Me_Remixes-(NBRECS055)-WEB-2020-OMA
2021-11-28 01:32:13 MP3 Falco_and_Niterider--Excluded_-_Mile_Off-(NBRECS056)-WEB-2020-OMA
2021-11-28 01:33:00 MP3 Maurizzle--Ipso_Iure_EP-(NBRECS057)-WEB-2020-OMA
2021-11-28 01:33:34 MP3 VA--Atomic_Bomb_Volume_2-(NBRECS058)-WEB-2020-OMA
2021-11-28 01:34:02 MP3 Marieme-Mario-WEB-FR-2021-GUESTS
2021-11-28 01:34:52 MP3 Jedi--Mothership_EP-(NBRECS059)-WEB-2020-OMA
2021-11-28 01:35:32 MP3 Jaasper-Pulse_4040-WEB-FR-2021-GUESTS
2021-11-28 01:35:43 MP3 Midst--Bootyroll-(NBRECS060)-WEB-2020-OMA
2021-11-28 01:36:24 MP3 Parasite--Itchy_Trigger_Finger_-_Sin_City-(NBRECS061)-WEB-2020-OMA
2021-11-28 01:36:36 MP3 Stanlee-Hokuto_III-WEB-FR-2021-GUESTS
2021-11-28 01:36:46 MP3 LOTO_And_Riski-Camo_Life-WEB-FR-2021-GUESTS
2021-11-28 01:37:01 MP3 Deeb--Organ_Donor_-_This_That_Tune-(NBRECS018)-WEB-2019-OMA
2021-11-28 01:37:04 MP3 Kirai-Kayworld-WEB-FR-2021-GUESTS
2021-11-28 01:37:41 MP3 Lowlife--Manson_Tapes_EP-(NBRECS052)-WEB-2020-OMA
2021-11-28 01:38:19 MP3 Jedi--Destroyer_EP-(NBRECS083)-WEB-2021-OMA
2021-11-28 01:42:59 TV-HD-DE City.Breaks.S01E18.FrankFurt.Germany.HDR.2160p.UHDTV.H265-CBFM
2021-11-28 01:46:55 MP3 VA--Atomic_Bomb_Volume_1-(NBRECS050)-DiRFiX-WEB-2020-OMA_INT
2021-11-28 01:49:25 TV-X264 Disasters.Engineered.S02E04.1080p.HDTV.H264-CBFM
2021-11-28 01:49:33 TV-X264 Disasters.Engineered.S02E04.720p.HDTV.x264-CBFM
2021-11-28 01:49:44 MP3 VA--Horror_Series_Part_1-(RUM006)-WEB-2021-OMA
2021-11-28 01:50:35 MP3 VA--Horror_Series_Part_2-(RUM007)-WEB-2021-OMA
2021-11-28 01:52:52 TV-X264 Roots.Less.Traveled.S03E05.720p.WEB.h264-DiRT
2021-11-28 01:53:49 TV-X264 Roots.Less.Traveled.S03E05.1080p.WEB.h264-DiRT
2021-11-28 01:56:18 MP3 Paul_von_Lecter--Dust-(29DNB0062)-SINGLE-WEB-2021-OMA
2021-11-28 02:00:45 MP3 Eelke_Kleijn-Days_Like_Nights_Radio_212-SAT-28-11-2021-1KING
2021-11-28 02:03:36 MP3 VA--All_Killers_No_Fillers_Volume_3-(TTB75)-WEB-2018-OMA
2021-11-28 02:04:05 MP3 VA--All_Killers_No_Fillers_Volume_4-(TTB78)-WEB-2019-OMA
2021-11-28 02:05:16 MP3 VA--All_Killers_No_Fillers_Volume_5-(TTB85)-WEB-2019-OMA
2021-11-28 02:05:48 MP3 VA--All_Killers_No_Fillers_Volume_9-(TTB108)-WEB-2021-OMA
2021-11-28 02:13:31 MP3 Scandal_and_Duratan-10L-(29DNB0061)-WEB-2021-PTC
2021-11-28 02:23:08 MP3 Alex_Core-Rain-(29DNB0060)-SINGLE-WEB-2021-PTC
2021-11-28 02:32:58 TV-X264 Sydney.to.the.Max.S03E21.Any.Given.Sunday.Brunch.720p.HDTV.x264-CRiMSON
2021-11-28 02:33:10 MP3 Echologist_-_Thou_Shall_Knot_(KW044)-WEB-2021-TR
2021-11-28 02:34:03 XXX BrazzersExxtra.21.11.28.Bad.Kittyyy.Caught.In.A.Corset.XXX.1080p.MP4-WRB
2021-11-28 02:34:56 TV-SD Sydney.to.the.Max.S03E21.Any.Given.Sunday.Brunch.HDTV.x264-CRiMSON
2021-11-28 02:35:23 XXX BrazzersExxtra.21.11.28.Mona.Azar.More.Mona.Than.You.Can.Handle.XXX.1080p.MP4-WRB
2021-11-28 02:36:35 XXX RKPrime.21.11.28.Jesse.Pony.Dickstracting.Her.Gamer.BF.XXX.1080p.MP4-WRB
2021-11-28 02:37:42 TV-X264 5.More.Sleeps.Til.Christmas.2021.720p.WEB.h264-DiRT
2021-11-28 02:38:59 X264-HD 5.More.Sleeps.Til.Christmas.2021.1080p.WEB.h264-DiRT
2021-11-28 02:46:39 XXX PornWorld.21.11.28.Gia.Derza.XXX.1080p.MP4-WRB
2021-11-28 02:47:52 MP3 Wampa-Metal_Speaking__Malice-(HBA036)-WEB-2021-PTC
2021-11-28 02:50:25 X264-HD Trolls.Holiday.in.Harmony.2021.1080p.WEB.h264-DiRT
2021-11-28 02:59:55 MP3 Secret_Cinema-Gem_FM_233-SAT-28-11-2021-1KING
2021-11-28 03:01:22 MP3 Velo_Misere-Monomania_Del_Inexorable_Vacio-NFOFIX-ES-CD-2021-GRAVEWISH
2021-11-28 03:05:54 MP3 Jimmen--Way_Back-(SVR114)-WEB-2020-BABAS
2021-11-28 03:06:19 MP3 Talfelt--Foret-(ECO003)-WEB-2021-BABAS
2021-11-28 03:09:55 MP3 Blazej_Malinowski--Unpredictability_Of_Probability-(INNT002)-WEB-2021-BABAS
2021-11-28 03:11:09 MP3 Teo_Drean--The_Recruiter_EP-(AFFT009)-WEB-2021-BABAS
2021-11-28 03:14:09 XXX PornMegaLoad.21.11.27.Holly.Garner.Good.Golly.Miss.Holly.Garner.XXX.1080p.MP4-WRB
2021-11-28 03:14:46 TV-SD Saturday.Night.Live.S47E00.A.Saturday.Night.Live.Thanksgiving.WEB.h264-WEBTUBE
2021-11-28 03:14:54 TV-X264 Saturday.Night.Live.S47E00.A.Saturday.Night.Live.Thanksgiving.720p.WEB.h264-WEBTUBE
2021-11-28 03:14:59 TV-HD Saturday.Night.Live.S47E00.A.Saturday.Night.Live.Thanksgiving.1080p.WEB.h264-WEBTUBE
2021-11-28 03:15:21 XXX AuntJudys.21.11.27.Marie.Masturbates.For.You.With.Jerk.Off.Instructions.XXX.1080p.MP4-WRB
2021-11-28 03:16:47 XXX Watch4Beauty.21.11.28.Alissa.Foxy.By.The.Wild.Sea.Backstage.XXX.2160p.MP4-WRB
2021-11-28 03:18:45 XXX JesseLoadsMonsterFacials.21.11.27.Caitlin.Bell.XXX.1080p.MP4-WRB
2021-11-28 03:21:28 MP3 Eddie_Fowlkes--Archives_Vol_5-Black_Technosoul-(CBMD013)-WEB-2021-BABAS
2021-11-28 03:21:53 MP3 Gianluca_Stracuzzi--Fade_Away-(MTGR009)-WEB-2021-BABAS
2021-11-28 03:22:19 MP3 VA-Dub_Magic-WEB-2021-BABAS
2021-11-28 03:24:06 XXX WankItNow.21.11.28.Lucy.Love.Here.For.Your.Pleasure.XXX.1080p.MP4-WRB
2021-11-28 03:25:45 XXX ATKGirlfriends.21.11.28.Fiona.Sprouts.POV.Sex.2.XXX.1080p.MP4-WRB
2021-11-28 03:26:03 MP3 Bony_Fly-Selektor-SAT-11-27-2021-PTC
2021-11-28 03:26:05 TV-HD NBA.2021.11.27.Minnesota.Timberwolves.vs.Philadelphia.76ers.1080p.WEB.H264-SPLASH
2021-11-28 03:26:55 TV-X264 NBA.2021.11.27.Minnesota.Timberwolves.vs.Philadelphia.76ers.720p.WEB.H264-SPLASH
2021-11-28 03:27:22 MP3 Cajoux-Selektor-SAT-11-27-2021-PTC
2021-11-28 03:28:05 MP3 Love_In_The_Endz-Selektor-SAT-11-27-2021-PTC
2021-11-28 03:28:36 XXX ATKGirlfriends.21.11.28.Fiona.Sprouts.POV.Sex.2.XXX.2160p.MP4-WRB
2021-11-28 03:35:47 XXX AnalFuckTour.16.01.04.Cherry.XXX.1080p.MP4-WRB
2021-11-28 03:37:29 XXX AnalFuckTour.16.01.20.Barbara.XXX.1080p.MP4-WRB
2021-11-28 03:39:21 XXX AnalFuckTour.16.01.28.Valentina.XXX.1080p.MP4-WRB
2021-11-28 03:39:39 TV-X264 Digimon.Ghost.Game.S01E08.1080p.WEB.H264-SENPAI
2021-11-28 03:40:59 XXX AnalFuckTour.16.02.13.Cat.XXX.1080p.MP4-WRB
2021-11-28 03:42:47 XXX AnalFuckTour.20.11.22.Brianna.XXX.1080p.MP4-WRB
2021-11-28 03:50:29 MP3 Parallax--Archives_EP-(ZC025)-WEB-2021-BABAS
2021-11-28 03:50:53 MP3 Philipp_Gorbachev--Jump_High-(SCHALE004)-WEB-2021-BABAS
2021-11-28 03:51:17 MP3 Skream--Steel_City_Dance_Discs_Volume_23-(SCDD23)-WEB-2021-BABAS
2021-11-28 03:51:43 MP3 Teddy_Studstill--I_Wanna_Be_With_You__There_Comes_A_Time-(TF007)-WEB-2021-BABAS
2021-11-28 03:52:07 MP3 VA-Syncrophone_10th_Anniversary_(2005-2015)-(SYNCROCD001)-WEB-2015-BABAS
2021-11-28 03:56:18 XXX MetArtFilms.20.02.27.Stella.Cardo.Beautiful.Heavy.Breasts.XXX.1080p.MP4-WRB
2021-11-28 03:56:41 TV-SD Secrets.of.the.Imperial.War.Museum.S01E01.Belfast.WEB.h264-WEBTUBE
2021-11-28 03:59:05 MP3 Jochem_Hamerling-Panorama_097-SAT-28-11-2021-1KING
2021-11-28 03:59:11 XXX MetArtFilms.20.02.27.Stella.Cardo.Beautiful.Heavy.Breasts.XXX.2160p.MP4-WRB
2021-11-28 04:01:50 XXX KinkyFamily.21.08.15.Braylin.Bailey.Balls.Deep.In.My.Cute.Stepsis.XXX.1080p.MP4-WRB
2021-11-28 04:05:25 XXX KinkyFamily.21.08.30.Cecelia.Taylor.Stepsis.Wants.My.Big.Long.Dick.XXX.1080p.MP4-WRB
2021-11-28 04:07:54 MP3 Philipp_Ruhmhardt-Plattenleger-SAT-11-28-2021-PTC
2021-11-28 04:08:41 XXX SheIsNerdy.21.08.19.Regina.Rich.Giving.My.Neighbor.Loud.Orgasm.XXX.1080p.MP4-WRB
2021-11-28 04:10:50 TV-HD NBA.2021.11.27.Phoenix.Suns.vs.Brooklyn.Nets.1080p.WEB.H264-SPLASH
2021-11-28 04:11:26 TV-X264 NBA.2021.11.27.Phoenix.Suns.vs.Brooklyn.Nets.720p.WEB.H264-SPLASH
2021-11-28 04:15:17 TV-X264 Making.Spirits.Bright.2021.720p.HDTV.x264-CRiMSON
2021-11-28 04:23:13 ANIME Future.Boy.Conan.E01.1080p.BluRay.x264-URANiME
2021-11-28 04:24:10 ANIME Future.Boy.Conan.E02.1080p.BluRay.x264-URANiME
2021-11-28 04:24:32 TV-SD Making.Spirits.Bright.2021.HDTV.x264-CRiMSON
2021-11-28 04:25:07 ANIME Future.Boy.Conan.E03.1080p.BluRay.x264-URANiME
2021-11-28 04:25:09 MP3 Bantou_Mentale--Bantou_Mentale-(GBLP073)-WEB-2019-BABAS
2021-11-28 04:25:31 XXX Facials4K.21.10.06.Mackenzie.Mace.Catching.A.Ride.XXX.1080p.MP4-WRB
2021-11-28 04:25:34 MP3 Ebo_Taylor_x_Pat_Thomas--Disco_Highlife_Reedit_Series-(COMET087)-WEB-2019-BABAS
2021-11-28 04:25:59 MP3 Ebo_Taylor_x_Pat_Thomas--Disco_Highlife_Reedit_Series_Vol_3-(COMET092)-WEB-2019-BABAS
2021-11-28 04:26:07 ANIME Future.Boy.Conan.E04.1080p.BluRay.x264-URANiME
2021-11-28 04:26:24 MP3 Pat_Thomas_x_Ebo_Taylor--Pat_Thomas_and_Ebo_Taylor-(TF002)-REISSUE-WEB-2020-BABAS
2021-11-28 04:26:50 MP3 Tony_Allen_With_Africa_70--No_Accommodation_For_Lagos__No_Discrimination-(COMET096)-REISSUE-WEB-2007-BABAS_INT
2021-11-28 04:27:03 TV-HD Future.Boy.Conan.E05.1080p.BluRay.x264-URANiME
2021-11-28 04:27:15 MP3 Tony_Allen_With_Africa_70--Progress__Jealousy-(COMET094095)-WEB-2007-BABAS_INT
2021-11-28 04:27:39 MP3 Tony_Allen_x_Africa_70--Disco_Afro_Reedit_Series_Vol_1_and_2-(COMET08081)-WEB-2018-BABAS
2021-11-28 04:28:00 ANIME Future.Boy.Conan.E06.1080p.BluRay.x264-URANiME
2021-11-28 04:28:01 XXX Facials4K.21.10.28.Tristan.Summers.Facial.Badge.XXX.1080p.MP4-WRB
2021-11-28 04:28:03 MP3 VA-Comet_Afro_Rhythms_Vol_1_(Singles_and_Remixes_1999-2001)-(COMET100)-WEB-2021-BABAS
2021-11-28 04:28:57 ANIME Future.Boy.Conan.E07.1080p.BluRay.x264-URANiME
2021-11-28 04:29:55 ANIME Future.Boy.Conan.E08.1080p.BluRay.x264-URANiME
2021-11-28 04:30:21 XXX SisLovesMe.21.11.27.The.Corruption.Of.Dakota.Burns.Chapter.One.Extended.Cut.XXX.1080p.MP4-WRB
2021-11-28 04:30:54 ANIME Future.Boy.Conan.E09.1080p.BluRay.x264-URANiME
2021-11-28 04:31:52 ANIME Future.Boy.Conan.E10.1080p.BluRay.x264-URANiME
2021-11-28 04:32:42 MP3 Animal_Print_feat._Flu-Change_EP-(SYSTDIGI50)-WEB-2021-PTC
2021-11-28 04:32:49 TV-HD Future.Boy.Conan.E11.1080p.BluRay.x264-URANiME
2021-11-28 04:33:35 MP3 Solee-Sternstunde__Exhilaration-(FUR04)-WEB-2021-PTC
2021-11-28 04:33:46 ANIME Future.Boy.Conan.E12.1080p.BluRay.x264-URANiME
2021-11-28 04:34:35 MP3 Sous_Sol-Laze-(BONDDIGI058)-WEB-2021-PTC
2021-11-28 04:34:46 ANIME Future.Boy.Conan.E13.1080p.BluRay.x264-URANiME
2021-11-28 04:35:42 TV-HD Future.Boy.Conan.E14.1080p.BluRay.x264-URANiME
2021-11-28 04:36:40 ANIME Future.Boy.Conan.E15.1080p.BluRay.x264-URANiME
2021-11-28 04:37:39 ANIME Future.Boy.Conan.E16.1080p.BluRay.x264-URANiME
2021-11-28 04:38:37 ANIME Future.Boy.Conan.E17.1080p.BluRay.x264-URANiME
2021-11-28 04:39:33 ANIME Future.Boy.Conan.E18.1080p.BluRay.x264-URANiME
2021-11-28 04:40:32 ANIME Future.Boy.Conan.E19.1080p.BluRay.x264-URANiME
2021-11-28 04:40:51 TV-HD NBA.2021.11.27.Orlando.Magic.vs.Cleveland.Cavaliers.1080p.WEB.H264-SPLASH
2021-11-28 04:41:26 TV-X264 NBA.2021.11.27.Orlando.Magic.vs.Cleveland.Cavaliers.720p.WEB.H264-SPLASH
2021-11-28 04:41:29 ANIME Future.Boy.Conan.E20.1080p.BluRay.x264-URANiME
2021-11-28 04:42:28 ANIME Future.Boy.Conan.E21.1080p.BluRay.x264-URANiME
2021-11-28 04:42:28 TV-HD NBA.2021.11.27.New.York.Knicks.vs.Atlanta.Hawks.1080p.WEB.H264-SPLASH
2021-11-28 04:43:12 TV-X264 NBA.2021.11.27.New.York.Knicks.vs.Atlanta.Hawks.720p.WEB.H264-SPLASH
2021-11-28 04:43:26 ANIME Future.Boy.Conan.E22.1080p.BluRay.x264-URANiME
2021-11-28 04:43:39 XXX SpyFam.21.11.27.Sophia.Sultry.Watchful.Stepdad.XXX.2160p.MP4-WRB
2021-11-28 04:44:23 ANIME Future.Boy.Conan.E23.1080p.BluRay.x264-URANiME
2021-11-28 04:45:20 ANIME Future.Boy.Conan.E24.1080p.BluRay.x264-URANiME
2021-11-28 04:46:18 ANIME Future.Boy.Conan.E25.1080p.BluRay.x264-URANiME
2021-11-28 04:47:18 ANIME Future.Boy.Conan.E26.1080p.BluRay.x264-URANiME
2021-11-28 04:48:29 TV-X264 Gardening.Australia.S32E28.720p.WEB.h264-DiRT
2021-11-28 04:48:30 XXX HotwifeXXX.21.11.27.Kay.Lovely.XXX.2160p.MP4-WRB
2021-11-28 04:51:33 X264-SD-DE Der.Marsianer.German.2015.DVDRiP.x264.iNTERNAL-CiA
2021-11-28 04:51:38 TV-X264 Gardening.Australia.S32E29.720p.WEB.h264-DiRT
2021-11-28 04:51:56 TV-X264 Love.and.Marriage.Huntsville.S03E18.The.Pot.Calling.the.Kettle.Blaque.DIRFIX.720p.HDTV.x264-CRiMSON
2021-11-28 04:51:58 TV-SD Love.and.Marriage.Huntsville.S03E18.The.Pot.Calling.the.Kettle.Blaque.DIRFIX.HDTV.x264-CRiMSON
2021-11-28 04:52:25 XXX Private.21.11.27.Marilyn.Crystal.Anal.Please.XXX.2160p.MP4-WRB
2021-11-28 04:56:04 TV-HD NBA.2021.11.27.Miami.Heat.vs.Chicago.Bulls.1080p.WEB.H264-SPLASH
2021-11-28 04:56:38 MP3 Solvane_and_Bondi_and_Szafran-Radio_Butzke-SAT-11-27-2021-PTC
2021-11-28 04:56:44 TV-X264 NBA.2021.11.27.Miami.Heat.vs.Chicago.Bulls.720p.WEB.H264-SPLASH
2021-11-28 04:57:04 XXX BigTitsRoundAsses.21.11.27.Payton.Preslee.XXX.2160p.MP4-WRB
2021-11-28 04:57:12 EBOOK Jo.Nesbo.Rotteoen.Og.Andre.Fortaellinger.2021.DANiSH.RETAiL.ePub.eBOOK-DECiPHER
2021-11-28 04:59:36 TV-X264 Gardening.Australia.S32E30.720p.WEB.h264-DiRT
2021-11-28 05:00:25 TV-X264 Gardening.Australia.S32E31.720p.WEB.h264-DiRT
2021-11-28 05:00:55 TV-X264 Gardening.Australia.S32E32.720p.WEB.h264-DiRT
2021-11-28 05:01:41 MP3 Franky_Rizardo-Flow_426-SAT-28-11-2021-1KING
2021-11-28 05:01:52 TV-X264 Gardening.Australia.S32E33.720p.WEB.h264-DiRT
2021-11-28 05:02:24 TV-X264 Gardening.Australia.S32E34.720p.WEB.h264-DiRT
2021-11-28 05:02:34 XXX PornWorld.21.11.28.Gia.Derza.XXX.2160p.MP4-WRB
2021-11-28 05:02:55 TV-X264 Gardening.Australia.S32E35.720p.WEB.h264-DiRT
2021-11-28 05:03:41 TV-X264 Gardening.Australia.S32E36.720p.WEB.h264-DiRT
2021-11-28 05:05:07 XXX SexMex.21.11.28.Emily.Thorne.POV.XXX.1080p.MP4-WRB
2021-11-28 05:10:18 TV-X264 Dispatches.2021.11.27.Escape.from.the.Taliban.1080p.HDTV.H264-DARKFLiX
2021-11-28 05:10:52 TV-HD NBA.2021.11.27.Washington.Wizards.vs.Dallas.Mavericks.1080p.WEB.H264-SPLASH
2021-11-28 05:11:08 TV-X264 Empire.State.of.Mind.S01E02.1080p.HDTV.H264-DARKFLiX
2021-11-28 05:11:30 TV-X264 NBA.2021.11.27.Washington.Wizards.vs.Dallas.Mavericks.720p.WEB.H264-SPLASH
2021-11-28 05:11:57 TV-X264 Love.and.Marriage.Huntsville.S03E19.Lo.and.Be.Holt.720p.HDTV.x264-CRiMSON
2021-11-28 05:11:57 TV-X264 Football.Focus.2021.11.27.1080p.HDTV.H264-DARKSPORT
2021-11-28 05:12:30 TV-HD NBA.2021.11.27.Charlotte.Hornets.vs.Houston.Rockets.1080p.WEB.H264-SPLASH
2021-11-28 05:12:48 TV-X264 Match.of.the.Day.2021.11.27.1080p.HDTV.H264-DARKSPORT
2021-11-28 05:13:19 TV-X264 NBA.2021.11.27.Charlotte.Hornets.vs.Houston.Rockets.720p.WEB.H264-SPLASH
2021-11-28 05:13:37 TV-X264 Strictly.Come.Dancing.S19E19.1080p.HDTV.H264-DARKFLiX
2021-11-28 05:14:25 TV-X264 The.Jonathan.Ross.Show.S18E06.1080p.HDTV.H264-DARKFLiX
2021-11-28 05:15:18 TV-HD The.Queens.Terrible.Year.2021.1080p.HDTV.H264-DARKFLiX
2021-11-28 05:16:10 TV-X264 Universe.S01E04.Black.Holes.Heart.of.Darkness.1080p.HDTV.H264-DARKFLiX
2021-11-28 05:18:05 TV-SD Love.and.Marriage.Huntsville.S03E19.Lo.and.Be.Holt.HDTV.x264-CRiMSON
2021-11-28 05:18:34 XXX SexMex.21.11.28.Emily.Thorne.POV.XXX.2160p.MP4-WRB
2021-11-28 05:35:01 XXX EdgeQueens.21.11.23.Honey.Hayes.Ultimate.Orgasm.Control.XXX.1080p.MP4-WRB
2021-11-28 05:36:02 XXX FinishHim.21.11.23.Honey.Hayes.Cum.For.Me.Babe.XXX.1080p.MP4-WRB
2021-11-28 05:38:18 X264-SD-DE S.W.A.T.Die.Spezialeinheit.German.2003.DVDRiP.x264.iNTERNAL-CiA
2021-11-28 05:40:50 TV-HD NBA.2021.11.27.New.Orleans.Pelicans.vs.Utah.Jazz.1080p.WEB.H264-SPLASH
2021-11-28 05:41:17 X264-SD-DE Eastern.Heroes.German.1991.DVDRiP.x264.iNTERNAL-CiA
2021-11-28 05:41:26 TV-X264 NBA.2021.11.27.New.Orleans.Pelicans.vs.Utah.Jazz.720p.WEB.H264-SPLASH
2021-11-28 05:44:10 XXX SugarDaddyPORN.21.11.25.Veena.Violetta.XXX.1080p.MP4-WRB
2021-11-28 05:46:09 XXX Sperma-Studio.21.11.26.Julia.Exclusiv.Gangbang.XXX.1080p.MP4-WRB
2021-11-28 05:54:36 XXX POVPerv.21.11.25.Samantha.XXX.1080p.MP4-WRB
2021-11-28 05:55:43 XXX Philavise.21.11.16.Nicole.Garcia.Diabetic.Shock.And.A.Fuck.XXX.1080p.MP4-WRB
2021-11-28 05:57:03 XXX Philavise.21.11.16.Nicole.Garcia.Diabetic.Shock.And.A.Fuck.XXX.2160p.MP4-WRB
2021-11-28 06:00:53 TV-X264 Yellowjackets.S01E03.720p.WEB.H264-CAKES
2021-11-28 06:00:57 TV-X264 Yellowjackets.S01E03.1080p.WEB.H264-CAKES
2021-11-28 06:01:26 TV-X264 Hightown.S02E06.720p.WEB.H264-GGWP
2021-11-28 06:01:38 TV-X264 Hightown.S02E06.1080p.WEB.H264-GLHF
2021-11-28 06:01:46 TV-X264 Dexter.New.Blood.S01E04.720p.WEB.H264-CAKES
2021-11-28 06:01:52 TV-X264 Dexter.New.Blood.S01E04.1080p.WEB.H264-CAKES
2021-11-28 06:02:24 TV-X265 Dexter.New.Blood.S01E04.2160p.WEB.H265-GLHF
2021-11-28 06:02:26 TV-HD Dexter.New.Blood.S01E04.HDR.2160p.WEB.H265-GLHF
2021-11-28 06:03:18 MP3 Olivier_Weiter-Weiter_Radio-SAT-28-11-2021-1KING
2021-11-28 06:03:26 TV-X264 Blade.Runner.Black.Lotus.S01E04.720p.WEB.H264-SENPAI
2021-11-28 06:03:28 TV-X264 Blade.Runner.Black.Lotus.S01E04.1080p.WEB.H264-SENPAI
2021-11-28 06:05:22 XXX MonstersOfCock.21.11.28.Jennifer.White.XXX.1080p.MP4-WRB
2021-11-28 06:07:14 MP3 Employee--Hold_Music_Vol_1-(BB017)-WEB-2020-BABAS
2021-11-28 06:07:40 MP3 Employee--Hold_Music_Vol_2-(BB018)-WEB-2021-BABAS
2021-11-28 06:08:16 MP3 Fedbymachines--Beliefs_And_Stories-(FBMA002)-WEB-2017-BABAS_INT
2021-11-28 06:08:28 MP3 Felix_Lenferink--Forlane_II-(SHIP012)-WEB-2013-BABAS
2021-11-28 06:08:54 MP3 Felix_Lenferink--Forlane-(SHIP016)-WEB-2012-BABAS
2021-11-28 06:09:20 MP3 VA-Broken_Bubble_present_Second_Variety-WEB-2014-BABAS_INT
2021-11-28 06:09:45 MP3 VA-Next_Phase_Records_Vol_1-(NPRCD001)-WEB-2016-BABAS
2021-11-28 06:09:59 XXX DesperateAmateurs.21.11.28.Isabella.F.And.Hektex.XXX.1080p.MP4-WRB
2021-11-28 06:11:40 TV-HD Dexter.New.Blood.S01E04.DV.2160p.WEB.h265-GOSSIP
2021-11-28 06:12:01 TV-X264 Power.Book.II.Ghost.S02E02.1080p.WEB.H264-GLHF
2021-11-28 06:12:38 XXX ImmoralLive.21.11.28.Amy.Amor.XXX.1080p.MP4-WRB
2021-11-28 06:12:46 TV-X264 Power.Book.II.Ghost.S02E02.720p.WEB.H264-GLHF
2021-11-28 06:13:04 TV-HD Yellowjackets.S01E03.HDR.2160p.WEB.H265-GLHF
2021-11-28 06:13:43 TV-X265 Yellowjackets.S01E03.2160p.WEB.H265-GLHF
2021-11-28 06:16:38 TV-X265 Yellowjackets.S01E03.DV.2160p.WEB.H265-GGWP
2021-11-28 06:18:18 TV-X264 Eastenders.2021.11.26.720p.WEB.h264-FaiLED
2021-11-28 06:23:40 XXX ExxxtraSmall.21.11.28.Haley.Spades.Lil.Miss.Gamer.XXX.1080p.MP4-WRB
2021-11-28 06:28:06 MP3 Spirit_Mist-Rotting_Wanoka-WEB-2016-RAGEMP3
2021-11-28 06:33:03 MP3 Lil_Sick-In_The_Meantime-WEB-2016-RAGEMP3
2021-11-28 06:45:49 MP3 Flow_ProductionZ-Flow_And_Gunnah_Presents_Lyrikal_Pimpin-WEB-2008-RAGEMP3
2021-11-28 06:47:44 XXX HijabHookup.21.11.28.Destiny.Cruz.Fully.Filling.Destiny.XXX.1080p.MP4-WRB
2021-11-28 06:50:57 MP3 Spirit_Mist-Awaken-WEB-2017-RAGEMP3
2021-11-28 06:55:24 MP3 Rio_N_Sneed-Both_Sides_Of_The_Game-WEB-2005-RAGEMP3
2021-11-28 06:56:34 TV-X264 Gyamo.Queen.Of.The.Mountains.2017.720p.HDTV.x264-CBFM
2021-11-28 07:02:06 TV-X265 Hightown.S02E06.2160p.WEB.H265-GGWP
2021-11-28 07:02:10 TV-X264 Merry.Liddle.Christmas.Baby.2021.720p.HDTV.x264-CRiMSON
2021-11-28 07:03:02 MP3 Lil_Sick-One_Good_Side-WEB-2016-RAGEMP3
2021-11-28 07:03:36 XXX GirlsOutWest.21.11.28.Indie.Summers.And.Ivory.Mae.Cosy.XXX.1080p.MP4-WRB
2021-11-28 07:06:17 XXX GirlsOutWest.21.11.28.Indie.Summers.And.Ivory.Mae.Cosy.XXX.2160p.MP4-WRB
2021-11-28 07:09:48 TV-SD Merry.Liddle.Christmas.Baby.2021.HDTV.x264-CRiMSON
2021-11-28 07:20:45 XXX VRLatina.19.03.01.Beatriz.Lopez.and.Natasha.Teen.Sharing.Is.Caring.XXX.VR180.1500p.MP4-GUSH
2021-11-28 07:23:41 XXX BJRaw.21.11.25.Misty.Meaner.XXX.1080p.MP4-NBQ
2021-11-28 07:24:21 XXX BJRaw.21.11.25.Misty.Meaner.XXX.2160p.MP4-NBQ
2021-11-28 07:25:38 GAMES GreedFall_The_De_Vespe_Conspiracy_v1.0.5686-Razor1911
2021-11-28 07:25:40 XXX Vixen.21.11.26.Liya.Silver.And.Agatha.Vega.XXX.1080p.MP4-NBQ
2021-11-28 07:30:50 GAMES Crash.The.Core-TiNYiSO
2021-11-28 07:31:59 XXX NetVideoGirls.21.11.23.Numi.XXX.2160p.MP4-NBQ
2021-11-28 07:34:13 XXX LegalPorno.20.12.24.XXXmas.2020.Party.10.Versus.10.Anal.Orgy.Piss.Version.SZ2590.XXX.1080p.MP4-NBQ
2021-11-28 07:35:12 MP3 Spirit_Mist-Grave_Diggers-WEB-2017-RAGEMP3
2021-11-28 07:39:16 XXX LegalPorno.20.12.24.XXXmas.2020.Party.10.Versus.10.Anal.Orgy.Piss.Version.SZ2590.XXX.2160p.MP4-NBQ
2021-11-28 07:41:16 MP3 Flow_ProductionZ-Monetary_Mind_Vol._1-WEB-2008-RAGEMP3
2021-11-28 07:47:54 EBOOK PluralSight.Mitigate.Threats.Using.Microsoft.Defender.Bookware-KNiSO
2021-11-28 07:55:35 TV-X264 Family.or.Fiance.S02E18.Camisha.and.Rashad.In.Love.and.Custody.Wars.720p.HDTV.x264-CRiMSON
2021-11-28 07:56:30 MP3 Spirit_Mist-Mystical_Native_One_Pt._1-WEB-2018-RAGEMP3
2021-11-28 07:56:57 BLURAY-FULL In.the.Mood.for.Love.2000.MULTi.COMPLETE.BLURAY-PENTAGON
2021-11-28 07:57:32 TV-SD Family.or.Fiance.S02E18.Camisha.and.Rashad.In.Love.and.Custody.Wars.HDTV.x264-CRiMSON
2021-11-28 07:59:34 TV-HD In.the.Mood.for.Love.Der.Klang.der.Liebe.2000.German.1080p.BluRay.x264-ROCKEFELLER
2021-11-28 08:00:01 TV-X264 In.the.Mood.for.Love.Der.Klang.der.Liebe.2000.German.720p.BluRay.x264-ROCKEFELLER
2021-11-28 08:00:32 X264-SD-DE In.the.Mood.for.Love.Der.Klang.der.Liebe.German.2000.REMASTERED.AC3.BDRiP.x264-ROCKEFELLER
2021-11-28 08:02:07 TV-X265 Mayor.of.Kingstown.S01E04.2160p.WEB.H265-GLHF
2021-11-28 08:02:23 XXX Anilos.21.11.28.Wild.Nicol.Lingerie.Love.XXX.1080p.MP4-WRB
2021-11-28 08:03:19 MP3 HolyMafia-The_Light_Side_Of_The_Force-EP-WEB-2007-RAGEMP3
2021-11-28 08:03:24 MP3 Nicole_Moudaber_-_In_The_MOOD_396__Live_from_EDC_(Orlando)-SAT-11-28-2021-TALiON
2021-11-28 08:04:05 MP3 Chris_Liebing_-_AM.FM_351-SAT-11-28-2021-TALiON
2021-11-28 08:04:09 MP3 Nicky_Romero_-_Protocol_Radio_485-SAT-11-28-2021-TALiON
2021-11-28 08:05:36 MP3 CB14-FYFR-WEB-2021-RAGEMP3
2021-11-28 08:05:49 TV-HD-NORD Vintermastarna.S01E01.SWEDiSH.720p.WEB.h264-NORUSH
2021-11-28 08:06:22 TV-HD-NORD Vintermastarna.S01E01.SWEDiSH.1080p.WEB.h264-NORUSH
2021-11-28 08:06:51 XXX VRLatina.19.02.26.Vicky.Hope.Pussy.Wants.Milk.XXX.VR180.1500p.MP4-GUSH
2021-11-28 08:07:58 XXX Nubiles.21.11.28.Amelia.Sweet.Amelia.XXX.1080p.MP4-WRB
2021-11-28 08:09:05 TV-X264 Mayor.of.Kingstown.S01E04.720p.WEB.H264-GLHF
2021-11-28 08:09:09 XXX Nubiles.21.11.28.Eva.Lee.That.Good.Feeling.XXX.1080p.MP4-WRB
2021-11-28 08:10:52 0DAY No_Mans_Sky_Expeditions.Revisited_Update_v3.74-RazorDOX
2021-11-28 08:10:53 TV-X264 Mayor.of.Kingstown.S01E04.1080p.WEB.H264-GGEZ
2021-11-28 08:15:29 TV-X264 Merry.Liddle.Christmas.Baby.2021.1080p.HDTV.x264-CRiMSON
2021-11-28 08:17:41 MP3 Spirit_Mist-Mystical_Native_One_Pt._2-WEB-2019-RAGEMP3
2021-11-28 08:27:40 MP3 Lil_Sick-Funkytowns_Finest-WEB-2021-RAGEMP3
2021-11-28 08:32:30 MP3 Atonement-Merciless_Blasphemy-EP-WEB-2021-ENTiTLED
2021-11-28 08:32:49 MP3 Desertrain-Grunge_Locomotive-WEB-2020-ENTiTLED
2021-11-28 08:33:10 MP3 Elephants_in_Paradise-Extinction_Appetite-EP-WEB-2021-ENTiTLED
2021-11-28 08:33:32 MP3 Elephants_in_Paradise-Extinction_Destruction-EP-WEB-2021-ENTiTLED
2021-11-28 08:33:51 MP3 Elephants_in_Paradise-Extinction_Ignorance-EP-WEB-2021-ENTiTLED
2021-11-28 08:34:13 MP3 Existentia-Calculating_Failure-EP-WEB-2021-ENTiTLED
2021-11-28 08:34:30 MP3 Flow_ProductionZ-Flow_And_Gunnah_Presents_Kick_These_Soundz-WEB-2016-RAGEMP3
2021-11-28 08:34:34 MP3 FRONTM3N-Enjoy_The_Ride-WEB-2021-ENTiTLED
2021-11-28 08:34:54 MP3 Formlos-Dein_Platz-WEB-DE-2021-ENTiTLED
2021-11-28 08:35:14 MP3 Spirit_Mist-Mystical_Native_One_Pt._3-WEB-2019-RAGEMP3
2021-11-28 08:35:17 MP3 Heads_For_The_Dead-Slash_n_Roll-EP-WEB-2021-ENTiTLED
2021-11-28 08:35:38 MP3 Morgarten-Cry_of_the_Lost-WEB-2021-ENTiTLED
2021-11-28 08:35:56 MP3 Lil_Sick-Ghetto_Gospel-WEB-2017-RAGEMP3
2021-11-28 08:35:59 MP3 Radio_Haze-Strangers-WEB-2021-ENTiTLED
2021-11-28 08:36:19 MP3 Rexul-Erebus_Virtuosus_Alpha-WEB-2021-ENTiTLED
2021-11-28 08:36:34 MP3 The_Marksman-The_Reason_I_Put_This_Together-WEB-2006-RAGEMP3
2021-11-28 08:36:41 MP3 Ruttenskalle-Skinem_Alive-WEB-2021-ENTiTLED
2021-11-28 08:37:02 MP3 The_Warning-MAYDAY-EP-WEB-2021-ENTiTLED
2021-11-28 08:37:13 MP3 Spirit_Mist-918_Lord_Of_Flies-WEB-2019-RAGEMP3
2021-11-28 08:37:49 MP3 Torus-Damsel-WEB-2021-ENTiTLED
2021-11-28 08:38:00 MP3 Lil_Sick-One_Gud_Side_2-PrequelThe_Return_Of_Lil_Robert-WEB-2018-RAGEMP3
2021-11-28 08:39:59 APPS CyberTaxi-TiNYiSO
2021-11-28 08:50:27 TV-X265 Power.Book.II.Ghost.S02E02.2160p.WEB.H265-GLHF
2021-11-28 08:50:59 MP3 CB14-FYFR2-WEB-2021-RAGEMP3
2021-11-28 09:00:04 TV-SD Soul.Santa.2021.HDTV.x264-CRiMSON
2021-11-28 09:01:12 TV-X264 The.Walking.Dead.World.Beyond.S02E10.720p.WEB.H264-CAKES
2021-11-28 09:01:20 TV-X264 The.Walking.Dead.World.Beyond.S02E10.1080p.WEB.H264-CAKES
2021-11-28 09:01:57 TV-X264 Fear.the.Walking.Dead.S07E08.720p.WEB.H264-CAKES
2021-11-28 09:02:06 XXX Anal-Beauty.21.11.28.Viola.Weber.XXX.1080p.MP4-WRB
2021-11-28 09:02:18 TV-X264 SEAL.Team.S05E09.1080p.WEB.H264-CAKES
2021-11-28 09:02:21 TV-X264 Fear.the.Walking.Dead.S07E08.1080p.WEB.H264-CAKES
2021-11-28 09:02:25 TV-X264 SEAL.Team.S05E09.720p.WEB.H264-CAKES
2021-11-28 09:03:35 MP3 Spirit_Mist-Spring_Dreams-WEB-2020-RAGEMP3
2021-11-28 09:04:01 XXX MetArt.21.11.28.Bernie.Taking.A.Breather.XXX.1080p.MP4-WRB
2021-11-28 09:05:16 XXX MetArtX.21.11.28.Eve.Sweet.Red.Wine.XXX.1080p.MP4-WRB
2021-11-28 09:06:23 XXX TheLifeErotic.21.11.28.Deepika.Hard.Play.2.XXX.1080p.MP4-WRB
2021-11-28 09:08:00 XXX SexArt.21.11.28.Lenna.Ross.Love.Who.You.Love.XXX.1080p.MP4-WRB
2021-11-28 09:10:12 XXX Anal-Beauty.21.11.28.Viola.Weber.XXX.2160p.MP4-WRB
2021-11-28 09:13:03 XXX TheLifeErotic.21.11.28.Deepika.Hard.Play.2.XXX.2160p.MP4-WRB
2021-11-28 09:14:13 TV-X264 Space.Jam.A.New.Legacy.2021.TRUEFRENCH.720p.BluRay.x264-Ulysse
2021-11-28 09:14:33 TV-HD Space.Jam.A.New.Legacy.2021.MULTi.TRUEFRENCH.1080p.BluRay.x264-Ulysse
2021-11-28 09:14:50 X264-SD-FR Space.Jam.A.New.Legacy.2021.TRUEFRENCH.BDRip.x264-Ulysse
2021-11-28 09:15:13 TV-HD SEAL.Team.S05E09.HDR.2160p.WEB.H265-GGWP
2021-11-28 09:15:19 X265 Space.Jam.A.New.Legacy.2021.MULTi.TRUEFRENCH.2160p.UHD.BluRay.x265-SESKAPiLE
2021-11-28 09:15:25 MP3 Flow_ProductionZ-505-WEB-2021-RAGEMP3
2021-11-28 09:16:26 TV-HD-NORD Din.Sang.S01E01.NORWEGiAN.720p.WEB.h264-BAKFYLLA
2021-11-28 09:17:20 TV-HD-NORD Kongsvika.S01E05.NORWEGiAN.1080p.WEB.h264-BAKFYLLA
2021-11-28 09:18:03 TV-HD-NORD Kongsvika.S01E05.NORWEGiAN.720p.WEB.h264-BAKFYLLA
2021-11-28 09:19:07 TV-HD-NORD Vaalnes.Saken.S01E05.NORWEGiAN.1080p.WEB.h264-BAKFYLLA
2021-11-28 09:19:52 TV-HD-NORD Vaalnes.Saken.S01E05.NORWEGiAN.720p.WEB.h264-BAKFYLLA
2021-11-28 09:20:44 TV-HD-NORD Vaart.Lille.Land.S10E07.NORWEGiAN.720p.WEB.h264-BAKFYLLA
2021-11-28 09:24:34 TV-HD-DE Elfen.S01E01.German.DL.1080p.WEB.h264-OHD
2021-11-28 09:24:43 TV-HD-DE Elfen.S01E01.German.DL.720p.WEB.h264-OHD
2021-11-28 09:24:48 XXX MetArt.21.11.28.Bernie.Taking.A.Breather.XXX.2160p.MP4-WRB
2021-11-28 09:25:35 MP3 Lil_Sick-No_Longer_Local_2-WEB-2018-RAGEMP3
2021-11-28 09:28:02 XXX MetArtX.21.11.28.Eve.Sweet.Red.Wine.XXX.2160p.MP4-WRB
2021-11-28 09:32:39 XXX-IMAGESET VivThomas.com_21.11.25.Sybil.A.Dream.Girl.XXX.IMAGESET-FuGLi
2021-11-28 09:35:30 TV-HD-DE Elfen.S01E02.German.DL.720p.WEB.h264-OHD
2021-11-28 09:35:58 TV-HD-DE Elfen.S01E03.German.DL.720p.WEB.h264-OHD
2021-11-28 09:36:29 TV-HD-DE Elfen.S01E04.German.DL.720p.WEB.h264-OHD
2021-11-28 09:36:59 TV-HD-DE Elfen.S01E05.German.DL.720p.WEB.h264-OHD
2021-11-28 09:37:31 TV-HD-DE Elfen.S01E06.German.DL.720p.WEB.h264-OHD
2021-11-28 09:38:01 TV-HD-DE Elfen.S01E02.German.DL.1080p.WEB.h264-OHD
2021-11-28 09:38:11 XXX-IMAGESET MetArtX.com_21.11.23.Sherice.My.Scent.1.XXX.IMAGESET-FuGLi
2021-11-28 09:38:29 TV-HD-DE Elfen.S01E03.German.DL.1080p.WEB.h264-OHD
2021-11-28 09:39:00 TV-HD-DE Elfen.S01E04.German.DL.1080p.WEB.h264-OHD
2021-11-28 09:39:08 MP3 CB14-The_Glow_Is_Real-WEB-2021-RAGEMP3
2021-11-28 09:39:29 TV-HD-DE Elfen.S01E05.German.DL.1080p.WEB.h264-OHD
2021-11-28 09:39:59 TV-HD-DE Elfen.S01E06.German.DL.1080p.WEB.h264-OHD
2021-11-28 09:43:40 TV-X264 Christmas.at.Castle.Hart.2021.720p.HDTV.x264-CRiMSON
2021-11-28 09:44:01 X264-SD-DE Ninja.The.Violent.Sorcerer.1986.GERMAN.DVDRIP.X264-WATCHABLE
2021-11-28 09:44:13 X264-SD-DE Black.Ninja.Black.Panther.1987.GERMAN.DVDRIP.X264-WATCHABLE
2021-11-28 09:44:23 X264-SD-DE American.of.Vice.The.Ninja.1988.GERMAN.DVDRIP.X264-WATCHABLE
2021-11-28 09:48:49 TV-SD Christmas.at.Castle.Hart.2021.HDTV.x264-CRiMSON
2021-11-28 09:52:07 APPS Memory.Grove-TiNYiSO
2021-11-28 09:55:19 MP3 Spirit_Mist-Let_Em_Hang_EP-WEB-2020-RAGEMP3
2021-11-28 09:56:00 TV-HD-DE Eine.franzoesische.Mordsache.S01E06.GERMAN.DL.1080P.WEB.H264-WAYNE
2021-11-28 09:56:21 XXX-IMAGESET SexArt.com_21.11.26.Claudia.Bavel.Know.Me.Now.XXX.IMAGESET-FuGLi
2021-11-28 09:56:42 TV-HD-DE Hightown.S02E06.GERMAN.DL.1080P.WEB.H264-WAYNE
2021-11-28 09:57:26 TV-HD-DE Power.Book.II.Ghost.S02E02.GERMAN.DL.1080P.WEB.H264-WAYNE
2021-11-28 10:00:37 TV-HD-NORD Efter.Ex.S06E04.DANiSH.720p.WEB.h264-HYGGE
2021-11-28 10:00:43 TV-HD-NORD Efter.Ex.S06E04.DANiSH.1080p.WEB.h264-HYGGE
2021-11-28 10:00:54 TV-HD-FR Nisser.S01E01.MULTi.1080p.WEB.x264-AZR
2021-11-28 10:01:12 X265 Citizen.Kane.1941.2160p.UHD.BluRay.x265-B0MBARDiERS
2021-11-28 10:01:28 TV-HD-FR Nisser.S01E02.MULTi.1080p.WEB.x264-AZR
2021-11-28 10:01:43 TV-HD-NORD Singletown.S02E08.DANiSH.720p.WEB.h264-HYGGE
2021-11-28 10:02:01 TV-HD-FR Nisser.S01E03.MULTi.1080p.WEB.x264-AZR
2021-11-28 10:02:35 TV-HD-FR Nisser.S01E04.MULTi.1080p.WEB.x264-AZR
2021-11-28 10:03:04 TV-HD-FR Nisser.S01E05.MULTi.1080p.WEB.x264-AZR
2021-11-28 10:03:15 TV-HD-NORD Singletown.S02E08.DANiSH.1080p.WEB.h264-HYGGE
2021-11-28 10:03:22 TV-HD-FR Nisser.S01E06.FiNAL.MULTi.1080p.WEB.x264-AZR
2021-11-28 10:03:57 TV-HD-FR Nisser.S01E01.FRENCH.720p.WEB.x264-AZR
2021-11-28 10:04:14 TV-HD-FR Nisser.S01E02.FRENCH.720p.WEB.x264-AZR
2021-11-28 10:04:29 TV-HD-FR Nisser.S01E03.FRENCH.720p.WEB.x264-AZR
2021-11-28 10:04:37 TV-HD-NORD Singletown.S02E07.DANiSH.720p.WEB.h264-HYGGE
2021-11-28 10:04:42 TV-HD-FR Nisser.S01E04.FRENCH.720p.WEB.x264-AZR
2021-11-28 10:05:02 TV-HD-FR Nisser.S01E05.FRENCH.720p.WEB.x264-AZR
2021-11-28 10:05:11 TV-HD-FR Nisser.S01E06.FiNAL.FRENCH.720p.WEB.x264-AZR
2021-11-28 10:05:15 TV-HD-NORD Singletown.S02E07.DANiSH.1080p.WEB.h264-HYGGE
2021-11-28 10:05:24 TV-SD-FR Nisser.S01E01.FRENCH.WEB.x264-AZR
2021-11-28 10:05:38 TV-SD-FR Nisser.S01E02.FRENCH.WEB.x264-AZR
2021-11-28 10:05:45 TV-SD-FR Nisser.S01E03.FRENCH.WEB.x264-AZR
2021-11-28 10:05:57 TV-SD-FR Nisser.S01E04.FRENCH.WEB.x264-AZR
2021-11-28 10:06:05 TV-SD-FR Nisser.S01E05.FRENCH.WEB.x264-AZR
2021-11-28 10:06:17 TV-SD-FR Nisser.S01E06.FiNAL.FRENCH.WEB.x264-AZR
2021-11-28 10:07:44 XXX Mylfwood.21.11.28.Penny.Barber.Nurse.Ratched.XXX.1080p.MP4-WRB
2021-11-28 10:08:40 MP3 Lil_Sick-So_Far-WEB-2020-RAGEMP3
2021-11-28 10:09:18 XXX ALSScan.21.11.28.Lana.Smalls.Puddles.XXX.1080p.MP4-WRB
2021-11-28 10:12:41 FLAC Pia_Fraus-After_Summer-(DDCJ-3048)-JP_Retail-CD-FLAC-2008-SHGZ
2021-11-28 10:12:44 TV-HD-NL Cupido.Ofzo.S02E02.FLEMISH.720p.WEB.H264-MERCATOR
2021-11-28 10:14:47 XXX-IMAGESET SexArt.com_21.11.25.Sophie.Sparks.Smooth.Shave.XXX.IMAGESET-FuGLi
2021-11-28 10:15:06 TV-HD-NL Mindfuck.S06E04.DUTCH.720p.WEB.h264-ADRENALiNE
2021-11-28 10:15:42 MP3 Pizzera_and_Jaus_-_Der_Seidene_Faden-WEB-DE-2021-ZzZz
2021-11-28 10:15:46 TV-X265 SEAL.Team.S05E09.DV.2160p.WEB.H265-GLHF
2021-11-28 10:16:42 TV-HD-NL Mindfuck.S06E04.DUTCH.1080p.WEB.h264-ADRENALiNE
2021-11-28 10:17:03 FLAC Pia_Fraus-Empty_Parks-(VJR-3222)-JP_Retail-CD-FLAC-2020-SHGZ
2021-11-28 10:17:51 MP3 Da_Damn_Sen_And_Boom_Box_Bravo-1st_Of_The_Month-SINGLE-WEB-2021-RAGEMP3
2021-11-28 10:19:00 XXX-IMAGESET TheLifeErotic.com_21.11.22.Antonia.Sainz.Penis.Practice.1.XXX.IMAGESET-FuGLi
2021-11-28 10:20:19 APPS Space.Gliders-TiNYiSO
2021-11-28 10:20:36 X264-SD-DE Die.Unschlagbaren.Supernieten.1988.GERMAN.DVDRIP.X264-WATCHABLE
2021-11-28 10:24:11 XXX VRLatina.19.02.18.Beatriz.Lopez.Purple.Delight.Tonight.XXX.VR180.1500p.MP4-GUSH
2021-11-28 10:24:29 XXX PervMom.21.11.28.Alura.Jenson.A.Lasting.Erection.XXX.1080p.MP4-WRB
2021-11-28 10:27:18 MP3 Flow_ProductionZ_And_Gunnuh-Monetary_Mind_Vol._2-WEB-2021-RAGEMP3
2021-11-28 10:30:18 FLAC Pia_Fraus-Field_Ceremony-(VJR-3204)-JP_Retail-CD-FLAC-2017-SHGZ
2021-11-28 10:31:30 MP3 Aline_Rocha_Feat_ARIA_LYRIC_-_Preach-WEB-2021-iDC
2021-11-28 10:35:55 BLURAY-FULL Citizen.Kane.1941.COMPLETE.UHD.BLURAY-B0MBARDiERS
2021-11-28 10:35:55 FLAC Pia_Fraus-In_Solarium-(VJR-009)-JP_Retail-CD-FLAC-2004-SHGZ
2021-11-28 10:37:28 MP3 CB14-FYFR_3-WEB-2021-RAGEMP3
2021-11-28 10:40:32 FLAC Pia_Fraus-Nature_Heart_Software-(DDCJ-3011)-JP_Retail-CD-FLAC-2006-SHGZ
2021-11-28 10:41:39 ABOOKS Andreas_Eschbach-Perfect_Copy_-_Die_Zweite_Schoepfung_(Ungekuerzt)-ABOOK-DE-WEB-2021-FLUiD
2021-11-28 10:43:26 MP3 Anna_M_-_The_Magic-SINGLE-WEB-2021-iDC
2021-11-28 10:44:18 TV-HD 48.Hrs.1982.PROOFFIX.REMASTERED.1080p.BluRay.x264-VETO
2021-11-28 10:44:46 MP3 Disk_Nation_-_Right_Now-WEB-2021-iDC
2021-11-28 10:45:11 FLAC Pia_Fraus-Sailing_On_A_Grapefruit_Lake-(VJR-019)-CD-FLAC-2005-SHGZ
2021-11-28 10:46:16 MP3 Fabian_Haneke_Ft_Jame_Starck_And_Divine_-_All_I_Want_Is_You-WEB-2021-iDC
2021-11-28 10:47:21 MP3 Rapid_Fire_And_Big_Lex-Columbia_Cartel-WEB-2021-RAGEMP3
2021-11-28 10:47:25 MP3 Mattei_And_Omich_-_Groovy_70-WEB-2021-iDC
2021-11-28 10:48:52 MP3 Micronoise_-_Deep_Down-SINGLE-WEB-2021-iDC
2021-11-28 10:51:06 GAMES Warp_Frontier_MacOS-Razor1911
2021-11-28 11:00:14 MP3 Beyond_the_Struttosphere--Celestial_Drift-(MRD002)-WEB-2021-BABAS
2021-11-28 11:00:27 TV-X264 BORUTO.NARUTO.NEXT.GENERATIONS.S01E226.720p.WEB.H264-SENPAI
2021-11-28 11:00:29 TV-X264 BORUTO.NARUTO.NEXT.GENERATIONS.S01E226.1080p.WEB.H264-SENPAI
2021-11-28 11:00:40 MP3 Brandski--Plaisir_Secret-(MRI001)-WEB-2020-BABAS
2021-11-28 11:01:05 MP3 Brandski--Quilting-(MRI003)-WEB-2021-BABAS
2021-11-28 11:01:29 FLAC Pia_Fraus-Ten_Remixes_Of_Yenissey-(SEKs018)-CDEP-FLAC-2008-SHGZ
2021-11-28 11:01:29 MP3 Camilo_Sanjuan--Lola-(MRD003)-WEB-2021-BABAS
2021-11-28 11:01:55 MP3 David_Body--Nostromo-(MRI004)-WEB-2021-BABAS
2021-11-28 11:02:20 MP3 Lex--Punta_Allen_EP-(LENG055)-WEB-2021-BABAS
2021-11-28 11:02:45 MP3 Nick_Klein--Jesus_Take_The_Wheel-(V029)-WEB-2021-BABAS
2021-11-28 11:03:10 MP3 Novamen--Lies-(V019)-SINGLE-WEB-2008-BABAS
2021-11-28 11:03:38 MP3 Syd--Le_Jazz_De_Jupiter-(V1220)-WEB-2003-BABAS
2021-11-28 11:03:41 MP3 Pia_Fraus-After_Summer-(DDCJ-3048)-JP_Retail-CD-2008-SHGZ
2021-11-28 11:04:02 MP3 The_Wheel_Of_Rituals--The_Wheel_Of_Rituals-(V028)-WEB-2020-BABAS
2021-11-28 11:04:53 MP3 VA-Electro_95-(VD001)-WEB-2021-BABAS
2021-11-28 11:05:15 MP3 VA-Owl-(MRC002)-WEB-2021-BABAS
2021-11-28 11:05:18 MP3 Pia_Fraus-Empty_Parks-(VJR-3222)-JP_Retail-CD-2020-SHGZ
2021-11-28 11:05:44 MP3 VA-Owl_One_Year_Compilation-(MRC001)-WEB-2020-BABAS
2021-11-28 11:07:32 MP3 Pia_Fraus-Field_Ceremony-(VJR-3204)-JP_Retail-CD-2017-SHGZ
2021-11-28 11:09:07 MP3 Pia_Fraus-In_Solarium-(VJR-009)-JP_Retail-CD-2004-SHGZ
2021-11-28 11:11:37 MP3 Pia_Fraus-Nature_Heart_Software-(DDCJ-3011)-JP_Retail-CD-2006-SHGZ
2021-11-28 11:14:19 TV-X264 Rebels.of.WW.II.Operation.Avalanche.2021.German.720p.BluRay.x264-ROCKEFELLER
2021-11-28 11:14:26 MP3 Pia_Fraus-Sailing_On_A_Grapefruit_Lake-(VJR-019)-CD-2005-SHGZ
2021-11-28 11:14:48 TV-HD Rebels.of.WW.II.Operation.Avalanche.2021.German.DL.1080p.BluRay.x264-ROCKEFELLER
2021-11-28 11:15:20 X264-SD-DE Rebels.of.WW.II.Operation.Avalanche.German.2021.AC3.BDRiP.x264-ROCKEFELLER
2021-11-28 11:16:10 MP3 Pia_Fraus-Ten_Remixes_Of_Yenissey-(SEKs018)-CDEP-2008-SHGZ_INT
2021-11-28 11:16:26 X264-HD-DE Vendetta.2015.German.DL.1080p.BluRay.AVC-HOVAC
2021-11-28 11:22:43 TV-HD-NL Alloo.bij.de.Verkeerspolitie.S01E03.FLEMISH.1080p.WEB.H264-MERCATOR
2021-11-28 11:22:54 TV-HD-NL Alloo.bij.de.Verkeerspolitie.S01E04.FLEMISH.1080p.WEB.H264-MERCATOR
2021-11-28 11:23:10 TV-HD-NL Alloo.bij.de.Verkeerspolitie.S01E05.FLEMISH.1080p.WEB.H264-MERCATOR
2021-11-28 11:23:18 TV-HD-NL Alloo.bij.de.Verkeerspolitie.S01E06.FLEMISH.1080p.WEB.H264-MERCATOR
2021-11-28 11:24:17 EBOOK 220.Triathlon.April.2015.HYBRiD.MAGAZiNE.eBook-PAPERCLiPS
2021-11-28 11:24:33 EBOOK 220.Triathlon.April.2016.HYBRiD.MAGAZiNE.eBook-PAPERCLiPS
2021-11-28 11:24:49 EBOOK 220.Triathlon.April.2017.HYBRiD.MAGAZiNE.eBook-PAPERCLiPS
2021-11-28 11:25:05 EBOOK 220.Triathlon.April.2018.HYBRiD.MAGAZiNE.eBook-PAPERCLiPS
2021-11-28 11:25:21 EBOOK 220.Triathlon.April.2019.HYBRiD.MAGAZiNE.eBook-PAPERCLiPS
2021-11-28 11:25:37 EBOOK 220.Triathlon.April.2020.HYBRiD.MAGAZiNE.eBook-PAPERCLiPS
2021-11-28 11:25:54 EBOOK 220.Triathlon.April.2021.HYBRiD.MAGAZiNE.eBook-PAPERCLiPS
2021-11-28 11:26:09 EBOOK 220.Triathlon.August.2015.HYBRiD.MAGAZiNE.eBook-PAPERCLiPS
2021-11-28 11:26:25 EBOOK 220.Triathlon.August.2016.HYBRiD.MAGAZiNE.eBook-PAPERCLiPS
2021-11-28 11:26:41 EBOOK 220.Triathlon.August.2017.HYBRiD.MAGAZiNE.eBook-PAPERCLiPS
2021-11-28 11:26:58 EBOOK 220.Triathlon.August.2018.HYBRiD.MAGAZiNE.eBook-PAPERCLiPS
2021-11-28 11:27:14 EBOOK 220.Triathlon.August.2019.HYBRiD.MAGAZiNE.eBook-PAPERCLiPS
2021-11-28 11:27:30 EBOOK 220.Triathlon.August.2020.HYBRiD.MAGAZiNE.eBook-PAPERCLiPS
2021-11-28 11:27:45 EBOOK 220.Triathlon.August.2021.HYBRiD.MAGAZiNE.eBook-PAPERCLiPS
2021-11-28 11:28:01 EBOOK 220.Triathlon.December.2014.HYBRiD.MAGAZiNE.eBook-PAPERCLiPS
2021-11-28 11:28:17 EBOOK 220.Triathlon.December.2015.HYBRiD.MAGAZiNE.eBook-PAPERCLiPS
2021-11-28 11:28:33 EBOOK 220.Triathlon.December.2016.HYBRiD.MAGAZiNE.eBook-PAPERCLiPS
2021-11-28 11:28:49 EBOOK 220.Triathlon.December.2017.HYBRiD.MAGAZiNE.eBook-PAPERCLiPS
2021-11-28 11:29:05 EBOOK 220.Triathlon.December.2018.HYBRiD.MAGAZiNE.eBook-PAPERCLiPS
2021-11-28 11:29:21 EBOOK 220.Triathlon.December.2019.HYBRiD.MAGAZiNE.eBook-PAPERCLiPS
2021-11-28 11:29:37 EBOOK 220.Triathlon.December.2020.HYBRiD.MAGAZiNE.eBook-PAPERCLiPS
2021-11-28 11:29:53 EBOOK 220.Triathlon.December.2021.HYBRiD.MAGAZiNE.eBook-PAPERCLiPS
2021-11-28 11:30:09 EBOOK 220.Triathlon.February.2015.HYBRiD.MAGAZiNE.eBook-PAPERCLiPS
2021-11-28 11:30:26 EBOOK 220.Triathlon.February.2016.HYBRiD.MAGAZiNE.eBook-PAPERCLiPS
2021-11-28 11:30:41 EBOOK 220.Triathlon.February.2017.HYBRiD.MAGAZiNE.eBook-PAPERCLiPS
2021-11-28 11:30:57 EBOOK 220.Triathlon.February.2018.HYBRiD.MAGAZiNE.eBook-PAPERCLiPS
2021-11-28 11:31:13 EBOOK 220.Triathlon.February.2019.HYBRiD.MAGAZiNE.eBook-PAPERCLiPS
2021-11-28 11:31:29 EBOOK 220.Triathlon.February.2020.HYBRiD.MAGAZiNE.eBook-PAPERCLiPS
2021-11-28 11:31:45 EBOOK 220.Triathlon.February.2021.HYBRiD.MAGAZiNE.eBook-PAPERCLiPS
2021-11-28 11:32:02 EBOOK 220.Triathlon.January.2015.HYBRiD.MAGAZiNE.eBook-PAPERCLiPS
2021-11-28 11:32:17 EBOOK 220.Triathlon.January.2016.HYBRiD.MAGAZiNE.eBook-PAPERCLiPS
2021-11-28 11:32:33 EBOOK 220.Triathlon.January.2017.HYBRiD.MAGAZiNE.eBook-PAPERCLiPS
2021-11-28 11:32:48 EBOOK 220.Triathlon.January.2018.HYBRiD.MAGAZiNE.eBook-PAPERCLiPS
2021-11-28 11:33:04 EBOOK 220.Triathlon.January.2019.HYBRiD.MAGAZiNE.eBook-PAPERCLiPS
2021-11-28 11:33:20 EBOOK 220.Triathlon.January.2020.HYBRiD.MAGAZiNE.eBook-PAPERCLiPS
2021-11-28 11:33:37 EBOOK 220.Triathlon.January.2021.HYBRiD.MAGAZiNE.eBook-PAPERCLiPS
2021-11-28 11:33:53 EBOOK 220.Triathlon.January.2022.HYBRiD.MAGAZiNE.eBook-PAPERCLiPS
2021-11-28 11:34:08 EBOOK 220.Triathlon.July.2015.HYBRiD.MAGAZiNE.eBook-PAPERCLiPS
2021-11-28 11:34:24 EBOOK 220.Triathlon.July.2016.HYBRiD.MAGAZiNE.eBook-PAPERCLiPS
2021-11-28 11:34:41 EBOOK 220.Triathlon.July.2017.HYBRiD.MAGAZiNE.eBook-PAPERCLiPS
2021-11-28 11:34:58 EBOOK 220.Triathlon.July.2018.HYBRiD.MAGAZiNE.eBook-PAPERCLiPS
2021-11-28 11:35:13 EBOOK 220.Triathlon.July.2019.HYBRiD.MAGAZiNE.eBook-PAPERCLiPS
2021-11-28 11:35:29 EBOOK 220.Triathlon.July.2020.HYBRiD.MAGAZiNE.eBook-PAPERCLiPS
2021-11-28 11:35:45 EBOOK 220.Triathlon.July.2021.HYBRiD.MAGAZiNE.eBook-PAPERCLiPS
2021-11-28 11:36:01 EBOOK 220.Triathlon.June.2015.HYBRiD.MAGAZiNE.eBook-PAPERCLiPS
2021-11-28 11:36:17 EBOOK 220.Triathlon.June.2016.HYBRiD.MAGAZiNE.eBook-PAPERCLiPS
2021-11-28 11:36:32 EBOOK 220.Triathlon.June.2017.HYBRiD.MAGAZiNE.eBook-PAPERCLiPS
2021-11-28 11:36:48 EBOOK 220.Triathlon.June.2018.HYBRiD.MAGAZiNE.eBook-PAPERCLiPS
2021-11-28 11:37:04 EBOOK 220.Triathlon.June.2019.HYBRiD.MAGAZiNE.eBook-PAPERCLiPS
2021-11-28 11:37:19 EBOOK 220.Triathlon.June.2020.HYBRiD.MAGAZiNE.eBook-PAPERCLiPS
2021-11-28 11:37:36 EBOOK 220.Triathlon.June.2021.HYBRiD.MAGAZiNE.eBook-PAPERCLiPS
2021-11-28 11:37:52 EBOOK 220.Triathlon.March.2015.HYBRiD.MAGAZiNE.eBook-PAPERCLiPS
2021-11-28 11:38:06 BLURAY-FULL The.Rebels.of.PT.218.2021.COMPLETE.BLURAY-PENTAGON
2021-11-28 11:38:08 EBOOK 220.Triathlon.March.2016.HYBRiD.MAGAZiNE.eBook-PAPERCLiPS
2021-11-28 11:38:23 EBOOK 220.Triathlon.March.2017.HYBRiD.MAGAZiNE.eBook-PAPERCLiPS
2021-11-28 11:38:40 EBOOK 220.Triathlon.March.2018.HYBRiD.MAGAZiNE.eBook-PAPERCLiPS
2021-11-28 11:38:56 EBOOK 220.Triathlon.March.2019.HYBRiD.MAGAZiNE.eBook-PAPERCLiPS
2021-11-28 11:39:12 EBOOK 220.Triathlon.March.2020.HYBRiD.MAGAZiNE.eBook-PAPERCLiPS
2021-11-28 11:39:28 EBOOK 220.Triathlon.March.2021.HYBRiD.MAGAZiNE.eBook-PAPERCLiPS
2021-11-28 11:39:47 EBOOK 220.Triathlon.May.2015.HYBRiD.MAGAZiNE.eBook-PAPERCLiPS
2021-11-28 11:40:02 EBOOK 220.Triathlon.May.2016.HYBRiD.MAGAZiNE.eBook-PAPERCLiPS
2021-11-28 11:40:18 EBOOK 220.Triathlon.May.2017.HYBRiD.MAGAZiNE.eBook-PAPERCLiPS
2021-11-28 11:40:35 EBOOK 220.Triathlon.May.2018.HYBRiD.MAGAZiNE.eBook-PAPERCLiPS
2021-11-28 11:40:51 EBOOK 220.Triathlon.May.2019.HYBRiD.MAGAZiNE.eBook-PAPERCLiPS
2021-11-28 11:41:07 EBOOK 220.Triathlon.May.2020.HYBRiD.MAGAZiNE.eBook-PAPERCLiPS
2021-11-28 11:41:23 EBOOK 220.Triathlon.May.2021.HYBRiD.MAGAZiNE.eBook-PAPERCLiPS
2021-11-28 11:41:39 EBOOK 220.Triathlon.November.2015.HYBRiD.MAGAZiNE.eBook-PAPERCLiPS
2021-11-28 11:41:58 EBOOK 220.Triathlon.November.2016.HYBRiD.MAGAZiNE.eBook-PAPERCLiPS
2021-11-28 11:42:13 EBOOK 220.Triathlon.November.2017.HYBRiD.MAGAZiNE.eBook-PAPERCLiPS
2021-11-28 11:42:30 EBOOK 220.Triathlon.November.2018.HYBRiD.MAGAZiNE.eBook-PAPERCLiPS
2021-11-28 11:42:46 EBOOK 220.Triathlon.November.2019.HYBRiD.MAGAZiNE.eBook-PAPERCLiPS
2021-11-28 11:43:03 EBOOK 220.Triathlon.November.2020.HYBRiD.MAGAZiNE.eBook-PAPERCLiPS
2021-11-28 11:43:18 EBOOK 220.Triathlon.November.2021.HYBRiD.MAGAZiNE.eBook-PAPERCLiPS
2021-11-28 11:43:34 EBOOK 220.Triathlon.October.2015.HYBRiD.MAGAZiNE.eBook-PAPERCLiPS
2021-11-28 11:43:49 EBOOK 220.Triathlon.October.2016.HYBRiD.MAGAZiNE.eBook-PAPERCLiPS
2021-11-28 11:44:05 EBOOK 220.Triathlon.October.2017.HYBRiD.MAGAZiNE.eBook-PAPERCLiPS
2021-11-28 11:44:20 EBOOK 220.Triathlon.October.2018.HYBRiD.MAGAZiNE.eBook-PAPERCLiPS
2021-11-28 11:44:37 EBOOK 220.Triathlon.October.2019.HYBRiD.MAGAZiNE.eBook-PAPERCLiPS
2021-11-28 11:44:53 EBOOK 220.Triathlon.October.2020.HYBRiD.MAGAZiNE.eBook-PAPERCLiPS
2021-11-28 11:45:08 EBOOK 220.Triathlon.October.2021.HYBRiD.MAGAZiNE.eBook-PAPERCLiPS
2021-11-28 11:45:25 EBOOK 220.Triathlon.September.2015.HYBRiD.MAGAZiNE.eBook-PAPERCLiPS
2021-11-28 11:45:39 EBOOK 220.Triathlon.September.2016.HYBRiD.MAGAZiNE.eBook-PAPERCLiPS
2021-11-28 11:45:55 EBOOK 220.Triathlon.September.2017.HYBRiD.MAGAZiNE.eBook-PAPERCLiPS
2021-11-28 11:46:12 EBOOK 220.Triathlon.September.2018.HYBRiD.MAGAZiNE.eBook-PAPERCLiPS
2021-11-28 11:46:26 EBOOK 220.Triathlon.September.2019.HYBRiD.MAGAZiNE.eBook-PAPERCLiPS
2021-11-28 11:46:42 EBOOK 220.Triathlon.September.2020.HYBRiD.MAGAZiNE.eBook-PAPERCLiPS
2021-11-28 11:46:57 EBOOK 220.Triathlon.September.2021.HYBRiD.MAGAZiNE.eBook-PAPERCLiPS
2021-11-28 11:47:13 EBOOK 220.Triathlon.Spring.2016.HYBRiD.MAGAZiNE.eBook-PAPERCLiPS
2021-11-28 11:47:30 EBOOK 220.Triathlon.Spring.2017.HYBRiD.MAGAZiNE.eBook-PAPERCLiPS
2021-11-28 11:47:44 EBOOK 220.Triathlon.Spring.2018.HYBRiD.MAGAZiNE.eBook-PAPERCLiPS
2021-11-28 11:48:00 EBOOK 220.Triathlon.Spring.2019.HYBRiD.MAGAZiNE.eBook-PAPERCLiPS
2021-11-28 11:48:16 EBOOK 220.Triathlon.Spring.2020.HYBRiD.MAGAZiNE.eBook-PAPERCLiPS
2021-11-28 11:48:33 EBOOK 220.Triathlon.Spring.2021.HYBRiD.MAGAZiNE.eBook-PAPERCLiPS
2021-11-28 11:48:48 EBOOK 220.Triathlon.Summer.2015.HYBRiD.MAGAZiNE.eBook-PAPERCLiPS
2021-11-28 11:48:53 MP3 Deimler-A_Thousand_Suns-WEB-2021-ENTiTLED
2021-11-28 11:49:04 EBOOK The.Lady.02.May.2014.HYBRiD.MAGAZiNE.eBook-PAPERCLiPS
2021-11-28 11:49:20 EBOOK The.Lady.03.October.2014.HYBRiD.MAGAZiNE.eBook-PAPERCLiPS
2021-11-28 11:49:24 MP3 Verminoth-Primordial_Tomb-WEB-2021-ENTiTLED
2021-11-28 11:49:29 X264-HD-IT 4.Ragazzi.E.La.Magica.Creatura.2020.iTALiAN.1080p.AHDTV.x264-RAMSEiS
2021-11-28 11:49:37 EBOOK The.Lady.04.April.2014.HYBRiD.MAGAZiNE.eBook-PAPERCLiPS
2021-11-28 11:49:52 EBOOK The.Lady.04.July.2014.HYBRiD.MAGAZiNE.eBook-PAPERCLiPS
2021-11-28 11:50:08 EBOOK The.Lady.05.December.2014.HYBRiD.MAGAZiNE.eBook-PAPERCLiPS
2021-11-28 11:50:21 EBOOK The.Lady.05.September.2014.HYBRiD.MAGAZiNE.eBook-PAPERCLiPS
2021-11-28 11:50:31 X264-HD-IT 4.Ragazzi.E.La.Magica.Creatura.2020.iTALiAN.720p.AHDTV.x264-RAMSEiS
2021-11-28 11:50:38 EBOOK The.Lady.06.June.2014.HYBRiD.MAGAZiNE.eBook-PAPERCLiPS
2021-11-28 11:50:48 TV-HD-DE Die.Snoopy.Show.S01E07.GERMAN.DL.1080P.WEB.H264.REPACK-WAYNE
2021-11-28 11:50:56 EBOOK The.Lady.07.March.2014.HYBRiD.MAGAZiNE.eBook-PAPERCLiPS
2021-11-28 11:51:11 EBOOK The.Lady.07.November.2014.HYBRiD.MAGAZiNE.eBook-PAPERCLiPS
2021-11-28 11:51:21 X264-SD-IT 4.Ragazzi.E.La.Magica.Creatura.2020.iTALiAN.AHDTV.x264-RAMSEiS
2021-11-28 11:51:24 EBOOK The.Lady.08.August.2014.HYBRiD.MAGAZiNE.eBook-PAPERCLiPS
2021-11-28 11:51:31 TV-HD-DE Die.Snoopy.Show.S01E08.GERMAN.DL.1080P.WEB.H264.REPACK-WAYNE
2021-11-28 11:51:41 EBOOK The.Lady.09.May.2014.HYBRiD.MAGAZiNE.eBook-PAPERCLiPS
2021-11-28 11:51:56 EBOOK The.Lady.10.October.2014.HYBRiD.MAGAZiNE.eBook-PAPERCLiPS
2021-11-28 11:52:13 EBOOK The.Lady.11.April.2014.HYBRiD.MAGAZiNE.eBook-PAPERCLiPS
2021-11-28 11:52:15 TV-HD-DE Die.Snoopy.Show.S01E09.GERMAN.DL.1080P.WEB.H264.REPACK-WAYNE
2021-11-28 11:52:28 EBOOK The.Lady.11.July.2014.HYBRiD.MAGAZiNE.eBook-PAPERCLiPS
2021-11-28 11:52:43 EBOOK The.Lady.12.December.2014.HYBRiD.MAGAZiNE.eBook-PAPERCLiPS
2021-11-28 11:52:58 TV-HD-DE Die.Snoopy.Show.S01E10.GERMAN.DL.1080P.WEB.H264.REPACK-WAYNE
2021-11-28 11:52:59 EBOOK The.Lady.12.September.2014.HYBRiD.MAGAZiNE.eBook-PAPERCLiPS
2021-11-28 11:53:16 EBOOK The.Lady.13.June.2014.HYBRiD.MAGAZiNE.eBook-PAPERCLiPS
2021-11-28 11:53:32 MP3 Malrun-Pandemonium-WEB-2021-ENTiTLED
2021-11-28 11:53:34 EBOOK The.Lady.14.February.2014.HYBRiD.MAGAZiNE.eBook-PAPERCLiPS
2021-11-28 11:53:41 TV-HD-DE Die.Snoopy.Show.S01E11.GERMAN.DL.1080P.WEB.H264.REPACK-WAYNE
2021-11-28 11:53:49 EBOOK The.Lady.14.March.2014.HYBRiD.MAGAZiNE.eBook-PAPERCLiPS
2021-11-28 11:54:02 EBOOK The.Lady.14.November.2014.HYBRiD.MAGAZiNE.eBook-PAPERCLiPS
2021-11-28 11:54:17 EBOOK The.Lady.15.August.2014.HYBRiD.MAGAZiNE.eBook-PAPERCLiPS
2021-11-28 11:54:24 TV-HD-DE Die.Snoopy.Show.S01E12.GERMAN.DL.1080P.WEB.H264.REPACK-WAYNE
2021-11-28 11:54:33 EBOOK The.Lady.16.May.2014.HYBRiD.MAGAZiNE.eBook-PAPERCLiPS
2021-11-28 11:54:49 EBOOK The.Lady.17.October.2014.HYBRiD.MAGAZiNE.eBook-PAPERCLiPS
2021-11-28 11:55:04 EBOOK The.Lady.18.July.2014.HYBRiD.MAGAZiNE.eBook-PAPERCLiPS
2021-11-28 11:55:07 TV-HD-DE Die.Snoopy.Show.S01E13.GERMAN.DL.1080P.WEB.H264.REPACK-WAYNE
2021-11-28 11:55:20 EBOOK The.Lady.19.September.2014.HYBRiD.MAGAZiNE.eBook-PAPERCLiPS
2021-11-28 11:55:34 EBOOK The.Lady.20.June.2014.HYBRiD.MAGAZiNE.eBook-PAPERCLiPS
2021-11-28 11:55:49 EBOOK The.Lady.21.February.2014.HYBRiD.MAGAZiNE.eBook-PAPERCLiPS
2021-11-28 11:55:51 TV-HD-DE Stargirl.S02E03.GERMAN.DL.1080P.WEB.H264-WAYNE
2021-11-28 11:56:06 EBOOK The.Lady.21.March.2014.HYBRiD.MAGAZiNE.eBook-PAPERCLiPS
2021-11-28 11:56:20 EBOOK The.Lady.21.November.2014.HYBRiD.MAGAZiNE.eBook-PAPERCLiPS
2021-11-28 11:56:35 EBOOK The.Lady.22.August.2014.HYBRiD.MAGAZiNE.eBook-PAPERCLiPS
2021-11-28 11:56:51 MP3 The_Pinpricks-Rituals-EP-WEB-2021-ENTiTLED
2021-11-28 11:56:54 EBOOK The.Lady.23.May.2014.HYBRiD.MAGAZiNE.eBook-PAPERCLiPS
2021-11-28 11:57:08 EBOOK The.Lady.24.October.2014.HYBRiD.MAGAZiNE.eBook-PAPERCLiPS
2021-11-28 11:57:25 EBOOK The.Lady.25.April.2014.HYBRiD.MAGAZiNE.eBook-PAPERCLiPS
2021-11-28 11:57:39 EBOOK The.Lady.26.September.2014.HYBRiD.MAGAZiNE.eBook-PAPERCLiPS
2021-11-28 11:57:53 EBOOK The.Lady.27.June.2014.HYBRiD.MAGAZiNE.eBook-PAPERCLiPS
2021-11-28 11:58:09 EBOOK The.Lady.28.February.2014.HYBRiD.MAGAZiNE.eBook-PAPERCLiPS
2021-11-28 11:58:13 TV-X264 Cliff.Walkers.2021.720p.BluRay.x264-USURY
2021-11-28 11:58:24 EBOOK The.Lady.28.March.2014.HYBRiD.MAGAZiNE.eBook-PAPERCLiPS
2021-11-28 11:58:40 EBOOK The.Lady.28.November.2014.HYBRiD.MAGAZiNE.eBook-PAPERCLiPS
2021-11-28 11:58:55 EBOOK The.Lady.29.August.2014.HYBRiD.MAGAZiNE.eBook-PAPERCLiPS
2021-11-28 11:59:10 EBOOK The.Lady.30.May.2014.HYBRiD.MAGAZiNE.eBook-PAPERCLiPS
2021-11-28 11:59:27 EBOOK The.Lady.31.October.2014.HYBRiD.MAGAZiNE.eBook-PAPERCLiPS
2021-11-28 12:00:36 XXX VRLatina.19.02.11.Amaranta.Hank.Cocking.In.The.Kitchen.XXX.VR180.1500p.MP4-GUSH
2021-11-28 12:02:39 TV-X264 Dragon.Inn.1992.PROPER.720p.BluRay.x264-USURY
2021-11-28 12:08:50 TV-X264 Full.Alert.1997.720p.BluRay.x264-USURY
2021-11-28 12:09:54 EBOOK Il.Fatto.Quotidiano.2021.11.28.iTALiAN.RETAiL.eBook-iDiB
2021-11-28 12:11:03 TV-HD-IT Deadliest.Catch.S17E18.iTALiAN.1080p.WEB.H264-RAMSEiS
2021-11-28 12:14:42 TV-X264 The.State.of.Things.1982.720p.BluRay.x264-USURY
2021-11-28 12:20:56 TV-X264 Tierra.1996.720p.BluRay.x264-USURY
2021-11-28 12:24:31 TV-HD Cliff.Walkers.2021.1080p.BluRay.x264-USURY
2021-11-28 12:26:23 TV-HD-IT Deadliest.Catch.S17E18.iTALiAN.720p.WEB.H264-RAMSEiS
2021-11-28 12:26:40 TV-SD-IT Deadliest.Catch.S17E18.iTALiAN.WEB.H264-RAMSEiS
2021-11-28 12:31:28 TV-HD-NL De.Bende.van.Jan.De.Lichte.Behind.the.Scenes.S01E01.FLEMISH.1080p.WEB.H264-MERCATOR
2021-11-28 12:31:35 TV-HD-NL De.Bende.van.Jan.De.Lichte.Behind.the.Scenes.S01E02.FLEMISH.1080p.WEB.H264-MERCATOR
2021-11-28 12:31:45 TV-HD-NL De.Bende.van.Jan.De.Lichte.Behind.the.Scenes.S01E03.FLEMISH.1080p.WEB.H264-MERCATOR
2021-11-28 12:32:20 X264-HD-IT 47.Metri.Great.White.2021.iTALiAN.1080p.AHDTV.x264-RAMSEiS
2021-11-28 12:33:22 X264-HD-IT 47.Metri.Great.White.2021.iTALiAN.720p.AHDTV.x264-RAMSEiS
2021-11-28 12:33:27 TV-HD Dragon.Inn.1992.PROPER.1080p.BluRay.x264-USURY
2021-11-28 12:34:08 X264-SD-IT 47.Metri.Great.White.2021.iTALiAN.AHDTV.x264-RAMSEiS
2021-11-28 12:37:05 X264-HD-IT Il.Settimo.Giorno.2021.iTALiAN.1080p.AHDTV.x264-RAMSEiS
2021-11-28 12:37:16 TV-HD-NORD Over.The.Garden.Wall.S01E01.NORWEGiAN.720p.WEB.h264-NORKiDS
2021-11-28 12:37:49 X264-HD-IT Il.Settimo.Giorno.2021.iTALiAN.720p.AHDTV.x264-RAMSEiS
2021-11-28 12:38:47 X264-SD-IT Il.Settimo.Giorno.2021.iTALiAN.AHDTV.x264-RAMSEiS
2021-11-28 12:39:17 TV-HD-NORD Over.The.Garden.Wall.S01E02.NORWEGiAN.720p.WEB.h264-NORKiDS
2021-11-28 12:41:19 TV-HD-NORD Over.The.Garden.Wall.S01E03.NORWEGiAN.720p.WEB.h264-NORKiDS
2021-11-28 12:41:22 TV-HD-NL De.Bende.van.Jan.De.Lichte.Behind.the.Scenes.S01E01.FLEMISH.720p.WEB.H264-MERCATOR
2021-11-28 12:41:29 TV-HD-NL De.Bende.van.Jan.De.Lichte.Behind.the.Scenes.S01E02.FLEMISH.720p.WEB.H264-MERCATOR
2021-11-28 12:41:34 TV-HD-NL De.Bende.van.Jan.De.Lichte.Behind.the.Scenes.S01E03.FLEMISH.720p.WEB.H264-MERCATOR
2021-11-28 12:42:11 XXX VRLatina.19.02.03.Marcela.Alma.Festive.Fin.XXX.VR180.1500p.MP4-GUSH
2021-11-28 12:43:20 TV-HD-NORD Over.The.Garden.Wall.S01E04.NORWEGiAN.720p.WEB.h264-NORKiDS
2021-11-28 12:43:35 TV-HD Full.Alert.1997.1080p.BluRay.x264-USURY
2021-11-28 12:45:21 TV-HD-NORD Over.The.Garden.Wall.S01E05.NORWEGiAN.720p.WEB.h264-NORKiDS
2021-11-28 12:47:23 TV-HD-NORD Over.The.Garden.Wall.S01E06.NORWEGiAN.720p.WEB.h264-NORKiDS
2021-11-28 12:48:57 MP3 Gayax_-_Connected_(Sam_Fletcher_Remix)-(HER012)-WEB-2021-ZzZz
2021-11-28 12:49:25 TV-HD-NORD Over.The.Garden.Wall.S01E07.NORWEGiAN.720p.WEB.h264-NORKiDS
2021-11-28 12:51:26 TV-HD-NORD Over.The.Garden.Wall.S01E08.NORWEGiAN.720p.WEB.h264-NORKiDS
2021-11-28 12:52:28 TV-X264 LEGO.Masters.AU.S03E00.Bricksmas.Special.Part.2.720p.HDTV.x264-ORENJI
2021-11-28 12:52:38 TV-SD LEGO.Masters.AU.S03E00.Bricksmas.Special.Part.2.HDTV.x264-FQM
2021-11-28 12:53:28 TV-HD-NORD Over.The.Garden.Wall.S01E09.NORWEGiAN.720p.WEB.h264-NORKiDS
2021-11-28 12:54:28 TV-HD The.State.of.Things.1982.1080p.BluRay.x264-USURY
2021-11-28 12:55:30 TV-HD-NORD Over.The.Garden.Wall.S01E10.NORWEGiAN.720p.WEB.h264-NORKiDS
2021-11-28 12:57:33 TV-HD-NORD Over.The.Garden.Wall.S01E01.NORWEGiAN.1080p.WEB.h264-NORKiDS
2021-11-28 12:59:34 TV-HD-NORD Over.The.Garden.Wall.S01E02.NORWEGiAN.1080p.WEB.h264-NORKiDS
2021-11-28 13:01:38 TV-HD-NORD Over.The.Garden.Wall.S01E03.NORWEGiAN.1080p.WEB.h264-NORKiDS
2021-11-28 13:03:39 TV-HD-NORD Over.The.Garden.Wall.S01E04.NORWEGiAN.1080p.WEB.h264-NORKiDS
2021-11-28 13:05:27 TV-HD Tierra.1996.1080p.BluRay.x264-USURY
2021-11-28 13:05:39 TV-HD-NORD Over.The.Garden.Wall.S01E05.NORWEGiAN.1080p.WEB.h264-NORKiDS
2021-11-28 13:07:43 TV-HD-NORD Over.The.Garden.Wall.S01E06.NORWEGiAN.1080p.WEB.h264-NORKiDS
2021-11-28 13:09:43 TV-HD-NORD Over.The.Garden.Wall.S01E07.NORWEGiAN.1080p.WEB.h264-NORKiDS
2021-11-28 13:10:03 TV-HD Shang-Chi.E.La.Leggenda.Dei.Dieci.Anelli.2021.iTALiAN.1080p.BluRay.x264-RAMSEiS
2021-11-28 13:11:46 TV-HD-NORD Over.The.Garden.Wall.S01E08.NORWEGiAN.1080p.WEB.h264-NORKiDS
2021-11-28 13:13:47 TV-HD-NORD Over.The.Garden.Wall.S01E09.NORWEGiAN.1080p.WEB.h264-NORKiDS
2021-11-28 13:14:11 0DAY Active.Password.Changer.Ultimate.v12.WinPE.iSO-rG
2021-11-28 13:15:01 0DAY Active.Disk.Image.Professional.v11.WinPE.iSO-rG
2021-11-28 13:15:50 TV-HD-NORD Over.The.Garden.Wall.S01E10.NORWEGiAN.1080p.WEB.h264-NORKiDS
2021-11-28 13:16:33 TV-X264 Adoration.2019.720p.BluRay.x264-BiPOLAR
2021-11-28 13:17:13 TV-X264 Shang-Chi.E.La.Leggenda.Dei.Dieci.Anelli.2021.iTALiAN.720p.BluRay.x264-RAMSEiS
2021-11-28 13:20:04 MP3 Joshua_Redman-Trios_Live-2014-DGN_INT
2021-11-28 13:21:43 MP3 Nick_the_Nightfly-Monte_Carlo_Nights-DAB-11-22-2021-G4E
2021-11-28 13:24:19 TV-HD Adoration.2019.1080p.BluRay.x264-BiPOLAR
2021-11-28 13:25:21 MP3 Furney-Under_Below-(SDE326)-WEB-2021-PTC
2021-11-28 13:25:31 X264-HD-IT The.Iron.Mask.La.Leggenda.Del.Dragone.2019.iTALiAN.1080p.AHDTV.x264-RAMSEiS
2021-11-28 13:25:50 MP3 Grinder_and_Ceph-Remixes_EP_PT.1-(OZRR001)-WEB-2021-PTC
2021-11-28 13:26:12 MP3 Hydrah_and_Ezek_and_Khaled_Abdrabo-Solstice-(AWEN153)-WEB-2021-PTC
2021-11-28 13:26:50 MP3 Joyblade-Run-(LQBDIG483)-WEB-2021-PTC
2021-11-28 13:27:40 TV-SD 48.Hours.S34E10.WEB.h264-WEBTUBE
2021-11-28 13:27:46 TV-X264 48.Hours.S34E10.720p.WEB.h264-WEBTUBE
2021-11-28 13:27:51 TV-X264 48.Hours.S34E10.1080p.WEB.h264-WEBTUBE
2021-11-28 13:27:53 MP3 Michael_Kortenhaus-Christine-(PLTL066)-WEB-2021-PTC
2021-11-28 13:28:23 MP3 Niclas_Erlandsson-Irrbloss-(DARKNET249)-WEB-2021-PTC
2021-11-28 13:28:45 MP3 Propellar-Mane_(Andys_Echo_Remix)-(KUK026)-SINGLE-WEB-2021-PTC
2021-11-28 13:29:24 MP3 Rachel_Raw_and_Krueger_and_Meyer-Buzzer-(JANNOWITZ095)-WEB-2021-PTC
2021-11-28 13:29:49 MP3 Rafau_Etamski-Maybe-(YUMI014)-WEB-2021-PTC
2021-11-28 13:30:17 MP3 Rudra-Vishes_(Remixes)-(FA133)-WEB-2021-PTC
2021-11-28 13:30:45 MP3 Saive-Give_Up-(TRNDMSK115)-WEB-2021-PTC
2021-11-28 13:31:19 MP3 Stan_Seba-First_Arrival-(ARRVLR015)-WEB-2021-PTC
2021-11-28 13:31:43 MP3 SuperHuman_(UK)-Leda-(TR94)-WEB-2021-PTC
2021-11-28 13:33:06 MP3 T_and_Sugah_feat._Ayah_Marar-Be_There_(Kove_Remix)-(LIQ128)-WEB-2021-PTC
2021-11-28 13:34:10 MP3 Unknown_Artist-Back_to_the_Classics_EP-(93TI003)-WEB-2021-PTC
2021-11-28 13:35:54 X264-SD Adoration.2019.BDRip.x264-BiPOLAR
2021-11-28 13:38:33 X264-SD An.Injury.to.One.2002.DVDRip.x264-BiPOLAR
2021-11-28 13:39:35 TV-SD Dirty.Little.Deeds.2021.HDTV.x264-CRiMSON
2021-11-28 13:40:29 X264-SD Cliff.Walkers.2021.BDRip.x264-BiPOLAR
2021-11-28 13:41:07 MP3 Sunwell-Sunlight_Yellow_Overdrive-SINGLE-WEB-2021-ENTiTLED
2021-11-28 13:42:34 X264-SD Falkenberg.Farewell.2006.BDRip.x264-BiPOLAR
2021-11-28 13:42:40 X264-HD-IT The.Iron.Mask.La.Leggenda.Del.Dragone.2019.iTALiAN.720p.AHDTV.x264-RAMSEiS
2021-11-28 13:43:30 X264-SD-IT The.Iron.Mask.La.Leggenda.Del.Dragone.2019.iTALiAN.AHDTV.x264-RAMSEiS
2021-11-28 13:45:08 X264-SD Liebesfilm.2018.DVDRip.x264-BiPOLAR
2021-11-28 13:48:10 XXX VRLatina.19.01.26.Natahsa.Teen.Bedroom.Badness.XXX.VR180.1500p.MP4-GUSH
2021-11-28 13:48:29 X264-SD Movements.of.a.Nearby.Mountain.2019.DVDRip.x264-BiPOLAR
2021-11-28 13:50:18 X264-SD Son.of.Mine.2015.DVDRip.x264-BiPOLAR
2021-11-28 13:53:11 X264-SD The.Sky.Turns.2004.DVDRip.x264-BiPOLAR
2021-11-28 13:55:15 X264-SD The.Sun.and.Richard.Lippold.1966.DVDRip.x264-BiPOLAR
2021-11-28 13:57:06 X264-SD The.State.of.Things.1982.PROPER.BDRip.x264-BiPOLAR
2021-11-28 13:59:10 BLURAY-FULL Adoration.2019.COMPLETE.BLURAY-UNRELiABLE
2021-11-28 14:02:50 PRE WRONG.EPISODE_GET.REPACK
2021-11-28 14:06:29 PRE WRONG.SHOW_GET.REPACK
2021-11-28 14:08:31 X264-HD-DE Rebels.of.WW.II.Operation.Avalanche.2021.German.DL.1080p.BluRay.AVC-SAViOURHD
2021-11-28 14:12:31 TV-X264 Love.It.Or.List.It.Australia.S04E01.1080p.WEB.H264-CBFM
2021-11-28 14:12:36 TV-X264 Love.It.Or.List.It.Australia.S04E01.720p.WEB.H264-CBFM
2021-11-28 14:13:50 X264-HD-DE In.the.Mood.for.Love.Der.Klang.der.Liebe.2000.German.DL.1080p.BluRay.AVC-SAViOURHD
2021-11-28 14:16:21 TV-X264 Love.It.Or.List.It.Australia.S04E02.1080p.WEB.H264-CBFM
2021-11-28 14:16:31 TV-X264 Love.It.Or.List.It.Australia.S04E02.720p.WEB.H264-CBFM
2021-11-28 14:17:26 TV-HD-DE Ghofrane.Eine.Frau.im.tunesischen.Fruehling.GERMAN.SUBBED.DOKU.720p.HDTV.264-REQiT
2021-11-28 14:18:36 TV-X264 Love.It.Or.List.It.Australia.S04E03.1080p.WEB.H264-CBFM
2021-11-28 14:18:44 TV-X264 Love.It.Or.List.It.Australia.S04E03.720p.WEB.H264-CBFM
2021-11-28 14:20:24 TV-X264 Love.It.Or.List.It.Australia.S04E04.1080p.WEB.H264-CBFM
2021-11-28 14:20:29 TV-X264 Love.It.Or.List.It.Australia.S04E04.720p.WEB.H264-CBFM
2021-11-28 14:22:20 TV-X264 Love.It.Or.List.It.Australia.S04E05.1080p.WEB.H264-CBFM
2021-11-28 14:22:29 TV-X264 Love.It.Or.List.It.Australia.S04E05.720p.WEB.H264-CBFM
2021-11-28 14:24:14 TV-X264 Love.It.Or.List.It.Australia.S04E06.1080p.WEB.H264-CBFM
2021-11-28 14:24:20 TV-X264 Love.It.Or.List.It.Australia.S04E06.720p.WEB.H264-CBFM
2021-11-28 14:26:19 TV-X264 Love.It.Or.List.It.Australia.S04E07.1080p.WEB.H264-CBFM
2021-11-28 14:26:24 TV-X264 Love.It.Or.List.It.Australia.S04E07.720p.WEB.H264-CBFM
2021-11-28 14:28:16 TV-X264 Love.It.Or.List.It.Australia.S04E08.1080p.WEB.H264-CBFM
2021-11-28 14:28:21 TV-X264 Love.It.Or.List.It.Australia.S04E08.720p.WEB.H264-CBFM
2021-11-28 14:28:37 MP3 Thomas_Newson-Skin-(PR278)-WEB-2021-AOV
2021-11-28 14:30:56 TV-X264 Love.It.Or.List.It.Australia.S04E09.1080p.WEB.H264-CBFM
2021-11-28 14:31:01 TV-X264 Love.It.Or.List.It.Australia.S04E09.720p.WEB.H264-CBFM
2021-11-28 14:34:52 TV-X264 Old.Peoples.Home.For.4.Year.Olds.AU.S01E01.1080p.HDTV.H264-CBFM
2021-11-28 14:35:38 TV-X264 Old.Peoples.Home.For.4.Year.Olds.AU.S01E01.720p.HDTV.x264-CBFM
2021-11-28 14:36:54 MP3 Kudus_And_Diandra_Faye-Limitless-(ENPROG463)-WEB-2021-AOV
2021-11-28 14:38:44 TV-X264 Old.Peoples.Home.For.4.Year.Olds.AU.S01E02.1080p.HDTV.H264-CBFM
2021-11-28 14:38:50 TV-X264 Old.Peoples.Home.For.4.Year.Olds.AU.S01E02.720p.HDTV.x264-CBFM
2021-11-28 14:38:56 TV-HD-DE Ein.Hauch.von.Amerika.S01E01.GERMAN.DOKU.720p.WEBRip.x264-TMSF
2021-11-28 14:39:48 TV-HD-DE Ein.Hauch.von.Amerika.S01E01.GERMAN.DOKU.1080p.WEB.h264-TMSF
2021-11-28 14:40:05 MP3 Klur-Chronology-(ENCOLOR314)-WEB-2021-AOV
2021-11-28 14:40:48 TV-X264 Old.Peoples.Home.For.4.Year.Olds.AU.S01E03.1080p.HDTV.H264-CBFM
2021-11-28 14:40:54 TV-X264 Old.Peoples.Home.For.4.Year.Olds.AU.S01E03.720p.HDTV.x264-CBFM
2021-11-28 14:42:35 TV-SD-DE Ein.Hauch.von.Amerika.S01E01.GERMAN.DOKU.WEBRip.x264-TMSF
2021-11-28 14:44:32 TV-X264 Old.Peoples.Home.For.4.Year.Olds.AU.S01E04.1080p.HDTV.H264-CBFM
2021-11-28 14:44:38 TV-X264 Old.Peoples.Home.For.4.Year.Olds.AU.S01E04.720p.HDTV.x264-CBFM
2021-11-28 14:46:38 TV-X264 Old.Peoples.Home.For.4.Year.Olds.AU.S01E05.1080p.HDTV.H264-CBFM
2021-11-28 14:46:42 TV-X264 Old.Peoples.Home.For.4.Year.Olds.AU.S01E05.720p.HDTV.x264-CBFM
2021-11-28 14:47:41 XXX VRLatina.19.01.21.Marcela.Alma.Every.Last.Drop.XXX.VR180.1500p.MP4-GUSH
2021-11-28 14:49:52 MP3 De_Dijk-Merk_Je_Het_Niet-SINGLE-WEB-NL-2021-NLG
2021-11-28 14:50:28 TV-X264 American.Tragedy.The.Gabby.Petito.Story.2021.1080p.HDTV.H264-CBFM
2021-11-28 14:50:32 TV-X264 American.Tragedy.The.Gabby.Petito.Story.2021.720p.HDTV.x264-CBFM
2021-11-28 14:52:40 TV-X264 Code.1.The.Bourke.Street.Mall.Tragedy.2021.1080p.HDTV.H264-CBFM
2021-11-28 14:52:43 TV-X264 Code.1.The.Bourke.Street.Mall.Tragedy.2021.720p.HDTV.x264-CBFM
2021-11-28 14:58:08 TV-X264 Fight.The.Power.The.Movements.That.Changed.America.2021.1080p.HDTV.H264-CBFM
2021-11-28 15:00:22 TV-X264 Life.On.The.Line.The.Amazing.True.Story.Of.The.Southern.Bluefin.Tuna.2019.1080p.HDTV.H264-CBFM
2021-11-28 15:00:30 TV-X264 Life.On.The.Line.The.Amazing.True.Story.Of.The.Southern.Bluefin.Tuna.2019.720p.HDTV.x264-CBFM
2021-11-28 15:01:12 MP3 VA-Balearic_Sundown_012-(HOTQBS012)-WEB-2021-COS
2021-11-28 15:02:02 MP3 VA-Crossfit_Collection_012-(HOTQCRC012)-WEB-2021-COS
2021-11-28 15:02:23 TV-X264 Mieruko-chan.S01E09.720p.WEB.H264-SUGOI
2021-11-28 15:02:27 TV-X264 Mieruko-chan.S01E09.1080p.WEB.H264-SUGOI
2021-11-28 15:02:41 TV-X264 Peter.Kuruvitas.Coastal.Kitchen.S01E01.1080p.WEB.H264-CBFM
2021-11-28 15:02:49 MP3 VA-Essential_Leftfield_Bass_Vol._02-(LWELB02)-WEB-2021-COS
2021-11-28 15:02:49 TV-X264 Peter.Kuruvitas.Coastal.Kitchen.S01E01.720p.WEB.H264-CBFM
2021-11-28 15:03:32 MP3 VA-Essential_Peak_Time_Techno_Vol._02-(LWEPTT02)-WEB-2021-COS
2021-11-28 15:04:16 TV-X264 Peter.Kuruvitas.Coastal.Kitchen.S01E02.1080p.WEB.H264-CBFM
2021-11-28 15:04:21 TV-X264 Peter.Kuruvitas.Coastal.Kitchen.S01E02.720p.WEB.H264-CBFM
2021-11-28 15:04:25 MP3 VA-God_Mode_Motivation_012-(HOTQGMM012)-WEB-2021-COS
2021-11-28 15:05:14 MP3 VA-Liquid_Drum_And_Bass_Selections_Vol._08-(LWLDNBS08)-WEB-2021-COS
2021-11-28 15:05:31 FLAC Koba_Lad-VII-FR-CD-FLAC-2018-Mrflac
2021-11-28 15:06:08 MP3 VA-Underground_House_Vol._02-(LWUHOUSE02)-WEB-2021-COS
2021-11-28 15:06:22 TV-X264 Peter.Kuruvitas.Coastal.Kitchen.S01E03.1080p.WEB.H264-CBFM
2021-11-28 15:06:29 TV-X264 Peter.Kuruvitas.Coastal.Kitchen.S01E03.720p.WEB.H264-CBFM
2021-11-28 15:06:52 MP3 VA-Underground_Raw_Techno_Vol._02-(LWURT02)-WEB-2021-COS
2021-11-28 15:08:30 TV-X264 Peter.Kuruvitas.Coastal.Kitchen.S01E04.1080p.WEB.H264-CBFM
2021-11-28 15:08:36 TV-X264 Peter.Kuruvitas.Coastal.Kitchen.S01E04.720p.WEB.H264-CBFM
2021-11-28 15:10:23 TV-X264 Peter.Kuruvitas.Coastal.Kitchen.S01E05.1080p.WEB.H264-CBFM
2021-11-28 15:10:29 TV-X264 Peter.Kuruvitas.Coastal.Kitchen.S01E05.720p.WEB.H264-CBFM
2021-11-28 15:11:29 FLAC Maes-Reelle_Vie_3.0-FR-CD-FLAC-2021-Mrflac
2021-11-28 15:12:27 TV-X264 Peter.Kuruvitas.Coastal.Kitchen.S01E06.1080p.WEB.H264-CBFM
2021-11-28 15:12:32 TV-X264 Peter.Kuruvitas.Coastal.Kitchen.S01E06.720p.WEB.H264-CBFM
2021-11-28 15:12:47 GAMES Arm.Wrestling.Reborn-TiNYiSO
2021-11-28 15:14:12 FLAC Ziak-Akimbo-FR-CD-FLAC-2021-Mrflac
2021-11-28 15:14:34 TV-X264 Peter.Kuruvitas.Coastal.Kitchen.S02E01.1080p.WEB.H264-CBFM
2021-11-28 15:14:41 TV-X264 Peter.Kuruvitas.Coastal.Kitchen.S02E01.720p.WEB.H264-CBFM
2021-11-28 15:16:26 TV-X264 Peter.Kuruvitas.Coastal.Kitchen.S02E02.1080p.WEB.H264-CBFM
2021-11-28 15:16:30 TV-X264 Peter.Kuruvitas.Coastal.Kitchen.S02E02.720p.WEB.H264-CBFM
2021-11-28 15:18:35 TV-X264 Peter.Kuruvitas.Coastal.Kitchen.S02E03.1080p.WEB.H264-CBFM
2021-11-28 15:18:38 TV-X264 Peter.Kuruvitas.Coastal.Kitchen.S02E03.720p.WEB.H264-CBFM
2021-11-28 15:20:23 TV-X264 Peter.Kuruvitas.Coastal.Kitchen.S02E04.1080p.WEB.H264-CBFM
2021-11-28 15:20:26 TV-X264 Peter.Kuruvitas.Coastal.Kitchen.S02E04.720p.WEB.H264-CBFM
2021-11-28 15:23:34 XXX VRLatina.19.01.14.Vicky.Hope.Attention.In.Detention.XXX.VR180.1500p.MP4-GUSH
2021-11-28 15:24:22 TV-X264 Peter.Kuruvitas.Coastal.Kitchen.S02E05.720p.WEB.H264-CBFM
2021-11-28 15:24:27 TV-X264 Peter.Kuruvitas.Coastal.Kitchen.S02E05.1080p.WEB.H264-CBFM
2021-11-28 15:24:42 FLAC Richthoven-Loops_And_Tings_2000-(DNT_0013_12)-WHITELABEL-VINYL-FLAC-2000-STAX
2021-11-28 15:26:25 MP3 Selva_-_El_Artesano_(DE030)-WEB-2021-TR
2021-11-28 15:26:32 APPS The.Gnomon.Workshop.Airship.Arrival.TUTORiAL-SOFTiMAGE
2021-11-28 15:26:47 TV-X264 Peter.Kuruvitas.Coastal.Kitchen.S02E06.1080p.WEB.H264-CBFM
2021-11-28 15:26:52 TV-X264 Peter.Kuruvitas.Coastal.Kitchen.S02E06.720p.WEB.H264-CBFM
2021-11-28 15:27:10 MP3 Eloi_-_The_Four_Lines_Of_Desire-WEB-2021-TR
2021-11-28 15:28:30 TV-HD-FR Inspector.Gadget.2015.S03E01.MULTi.1080p.WEB.x264-AMB3R
2021-11-28 15:28:35 TV-HD-FR Inspector.Gadget.2015.S03E02.MULTi.1080p.WEB.x264-AMB3R
2021-11-28 15:28:44 TV-HD-FR Inspector.Gadget.2015.S03E03.MULTi.1080p.WEB.x264-AMB3R
2021-11-28 15:28:51 TV-HD-FR Inspector.Gadget.2015.S03E04.MULTi.1080p.WEB.x264-AMB3R
2021-11-28 15:29:06 TV-HD-FR Inspector.Gadget.2015.S03E05.MULTi.1080p.WEB.x264-AMB3R
2021-11-28 15:29:13 TV-HD-FR Inspector.Gadget.2015.S03E06.MULTi.1080p.WEB.x264-AMB3R
2021-11-28 15:29:21 TV-HD-FR Inspector.Gadget.2015.S03E07.MULTi.1080p.WEB.x264-AMB3R
2021-11-28 15:29:25 APPS The.Gnomon.Workshop.Creating.an.Illustration.from.A.to.Z.TUTORiAL-SOFTiMAGE
2021-11-28 15:29:31 TV-HD-FR Inspector.Gadget.2015.S03E08.MULTi.1080p.WEB.x264-AMB3R
2021-11-28 15:29:38 TV-HD-FR Inspector.Gadget.2015.S03E09.MULTi.1080p.WEB.x264-AMB3R
2021-11-28 15:29:47 TV-HD-FR Inspector.Gadget.2015.S03E10.MULTi.1080p.WEB.x264-AMB3R
2021-11-28 15:29:52 TV-HD-FR Inspector.Gadget.2015.S03E11.MULTi.1080p.WEB.x264-AMB3R
2021-11-28 15:30:06 TV-HD-FR Inspector.Gadget.2015.S03E12.MULTi.1080p.WEB.x264-AMB3R
2021-11-28 15:30:18 TV-HD-FR Inspector.Gadget.2015.S03E13.FiNAL.MULTi.1080p.WEB.x264-AMB3R
2021-11-28 15:30:23 TV-HD The.Real.Des.The.Dennis.Nilsen.Story.2021.1080p.HDTV.H264-CBFM
2021-11-28 15:30:27 TV-X264 The.Real.Des.The.Dennis.Nilsen.Story.2021.720p.HDTV.x264-CBFM
2021-11-28 15:30:36 TV-HD-FR Inspector.Gadget.2015.S04E01.MULTi.1080p.WEB.x264-AMB3R
2021-11-28 15:30:41 TV-HD-FR Inspector.Gadget.2015.S04E02.MULTi.1080p.WEB.x264-AMB3R
2021-11-28 15:30:49 TV-HD-FR Inspector.Gadget.2015.S04E03.MULTi.1080p.WEB.x264-AMB3R
2021-11-28 15:30:56 TV-HD-FR Inspector.Gadget.2015.S04E04.MULTi.1080p.WEB.x264-AMB3R
2021-11-28 15:31:06 TV-HD-FR Inspector.Gadget.2015.S04E05.MULTi.1080p.WEB.x264-AMB3R
2021-11-28 15:31:17 TV-HD-FR Inspector.Gadget.2015.S04E06.MULTi.1080p.WEB.x264-AMB3R
2021-11-28 15:31:27 TV-HD-FR Inspector.Gadget.2015.S04E07.MULTi.1080p.WEB.x264-AMB3R
2021-11-28 15:31:37 TV-HD-FR Inspector.Gadget.2015.S04E08.MULTi.1080p.WEB.x264-AMB3R
2021-11-28 15:31:52 TV-HD-FR Inspector.Gadget.2015.S04E09.MULTi.1080p.WEB.x264-AMB3R
2021-11-28 15:32:14 TV-X264 Tesla.Note.S01E09.720p.WEB.H264-SUGOI
2021-11-28 15:32:21 TV-X264 Tesla.Note.S01E09.1080p.WEB.H264-SUGOI
2021-11-28 15:32:33 TV-X264 Tracing.Heritage.S03E01.1080p.WEB.H264-CBFM
2021-11-28 15:32:43 TV-HD-FR Inspector.Gadget.2015.S04E10.MULTi.1080p.WEB.x264-AMB3R
2021-11-28 15:32:43 TV-X264 Tracing.Heritage.S03E01.720p.WEB.H264-CBFM
2021-11-28 15:32:50 TV-HD-FR Inspector.Gadget.2015.S04E11.MULTi.1080p.WEB.x264-AMB3R
2021-11-28 15:32:53 TV-HD-FR Inspector.Gadget.2015.S04E12.MULTi.1080p.WEB.x264-AMB3R
2021-11-28 15:33:01 TV-HD-FR Inspector.Gadget.2015.S04E13.FiNAL.MULTi.1080p.WEB.x264-AMB3R
2021-11-28 15:34:06 MP3 Ton_Steine_Scherben--50_Jahre-2CD-DE-2021-OMA
2021-11-28 15:34:25 TV-X264 Tracing.Heritage.S03E02.1080p.WEB.H264-CBFM
2021-11-28 15:34:31 TV-X264 Tracing.Heritage.S03E02.720p.WEB.H264-CBFM
2021-11-28 15:35:34 BLURAY-FULL Another.Round.2020.MULTi.COMPLETE.BLURAY-MONUMENT
2021-11-28 15:36:22 TV-X264 Mcleods.Daughters.S02E01.1080p.WEB.H264-CBFM
2021-11-28 15:36:25 TV-X264 Mcleods.Daughters.S02E01.720p.WEB.H264-CBFM
2021-11-28 15:38:17 APPS The.Gnomon.Workshop.Creating.An.Original.3D.Creature.Concept.Viper.Dragon.TUTORiAL-SOFTiMAGE
2021-11-28 15:38:32 TV-X264 Mcleods.Daughters.S02E02.1080p.WEB.H264-CBFM
2021-11-28 15:38:35 TV-X264 Mcleods.Daughters.S02E02.720p.WEB.H264-CBFM
2021-11-28 15:39:19 FLAC VA-Parquet_Most_Wanted_Ep_18-(PARQUETSPECIAL019)-VINYL-FLAC-2021-STAX
2021-11-28 15:40:14 TV-X264 Mcleods.Daughters.S02E03.1080p.WEB.H264-CBFM
2021-11-28 15:40:17 TV-X264 Mcleods.Daughters.S02E03.720p.WEB.H264-CBFM
2021-11-28 15:41:04 TV-HD-NORD Den.Store.Bagedyst.S10E09.DANiSH.720p.WEB.h264-HYGGE
2021-11-28 15:41:49 MP3 Mikkel_Metal_-_Fron_(SEMANTICA48)-WEB-2012-TR_INT
2021-11-28 15:41:50 FLAC VA-20_Years_Cocoon_Recordings-(CORLP049_S04)-VINYL-FLAC-2021-STAX
2021-11-28 15:42:08 GAMES WinCanVX.v1.10.2.MultiLanguage.WinALL.Incl.Keygen.Patch-BLiZZARD
2021-11-28 15:42:10 APPS The.Gnomon.Workshop.Gaea.Essentials.Create.Realistic.Procedural.Environments.TUTORiAL-SOFTiMAGE
2021-11-28 15:42:20 TV-X264 Mcleods.Daughters.S02E04.1080p.WEB.H264-CBFM
2021-11-28 15:42:25 TV-X264 Mcleods.Daughters.S02E04.720p.WEB.H264-CBFM
2021-11-28 15:42:38 TV-HD-NORD Den.Store.Bagedyst.S10E09.DANiSH.1080p.WEB.h264-HYGGE
2021-11-28 15:45:07 MP3 B-Front_Ft._Pleuni_-_Everlasting-WEB-2021-SRG
2021-11-28 15:45:20 MP3 Lost_Minds_-_Unstoppable-(MDM27)-WEB-2021-SRG
2021-11-28 15:45:26 XXX VRLatina.19.01.08.Andrea.Ambrosini.Teen.Tooty.Fruity.XXX.VR180.1500p.MP4-GUSH
2021-11-28 15:45:31 MP3 SveTec_-_Dementia_EP-(ECO006)-WEB-2021-SRG
2021-11-28 15:46:01 MP3 System_Of_Loudness_-_Strength_Of_The_Mind_(Freshcore_Remix)-(CM026)-WEB-2021-SRG
2021-11-28 15:46:20 TV-X264 Mcleods.Daughters.S02E05.1080p.WEB.H264-CBFM
2021-11-28 15:46:22 TV-X264 Mcleods.Daughters.S02E05.720p.WEB.H264-CBFM
2021-11-28 15:48:18 TV-X264 Mcleods.Daughters.S02E06.1080p.WEB.H264-CBFM
2021-11-28 15:48:21 APPS The.Gnomon.Workshop.Introduction.to.Creature.Design.Vol.1.TUTORiAL-SOFTiMAGE
2021-11-28 15:48:25 TV-X264 Mcleods.Daughters.S02E06.720p.WEB.H264-CBFM
2021-11-28 15:50:19 TV-X264 Mcleods.Daughters.S02E07.1080p.WEB.H264-CBFM
2021-11-28 15:50:22 TV-X264 Mcleods.Daughters.S02E07.720p.WEB.H264-CBFM
2021-11-28 15:50:29 TV-SD-FR Hightown.S02E06.FRENCH.WEB.H264-AVON
2021-11-28 15:51:16 TV-HD-FR Hightown.S02E06.FRENCH.720p.WEB.H264-AVON
2021-11-28 15:52:16 TV-X264 Mcleods.Daughters.S02E08.1080p.WEB.H264-CBFM
2021-11-28 15:52:19 TV-X264 Mcleods.Daughters.S02E08.720p.WEB.H264-CBFM
2021-11-28 15:52:37 MP3 Anane-Get_On_The_Funk_Train-(NER25192)-VINYL-2020-BF
2021-11-28 15:52:47 APPS The.Gnomon.Workshop.Introduction.to.Creature.Design.Vol.2.TUTORiAL-SOFTiMAGE
2021-11-28 15:52:53 MP3 Carl_Carlton-Slipped_Tripped_(Fooled_Around_And_Fell_In_Love)-(8842741)-VINYL-1985-BF
2021-11-28 15:54:31 TV-X264 Mcleods.Daughters.S02E09.1080p.WEB.H264-CBFM
2021-11-28 15:54:34 TV-X264 Mcleods.Daughters.S02E09.720p.WEB.H264-CBFM
2021-11-28 15:56:18 TV-SD-FR Power.Book.II.Ghost.S02E02.FRENCH.WEB.H264-AVON
2021-11-28 15:56:31 TV-X264 Mcleods.Daughters.S02E10.1080p.WEB.H264-CBFM
2021-11-28 15:56:36 TV-X264 Mcleods.Daughters.S02E10.720p.WEB.H264-CBFM
2021-11-28 15:56:55 APPS The.Gnomon.Workshop.Lighting.and.Look.Dev.Essentials.Vol.1.Lighting.Theory.TUTORiAL-SOFTiMAGE
2021-11-28 15:56:59 TV-HD-FR Power.Book.II.Ghost.S02E02.FRENCH.720p.WEB.H264-AVON
2021-11-28 15:59:16 XXX VRLatina.18.12.28.Valentina.Sky.Let.Me.Ride.You.XXX.VR180.1500p.MP4-GUSH
2021-11-28 16:01:56 APPS The.Gnomon.Workshop.Lighting.and.Look.Dev.Essentials.Vol.2.Shading.and.Texturing.TUTORiAL-SOFTiMAGE
2021-11-28 16:02:30 TV-X264 Mcleods.Daughters.S02E11.1080p.WEB.H264-CBFM
2021-11-28 16:02:33 TV-X264 Mcleods.Daughters.S02E11.720p.WEB.H264-CBFM
2021-11-28 16:02:47 TV-X264 Heisse.Naechte.im.Knast.2016.German.1080p.HDTV.x264-SOFTCORE
2021-11-28 16:03:55 TV-X264 Heisse.Naechte.im.Knast.2016.German.720p.HDTV.x264-SOFTCORE
2021-11-28 16:04:33 TV-X264 Heisse.Naechte.im.Knast.2016.German.1080p.HDTV.x264-SOFTC
2021-11-28 16:04:34 APPS The.Gnomon.Workshop.Master.Rigging.and.Python.Scripting.in.Maya.TUTORiAL-SOFTiMAGE
2021-11-28 16:04:59 X264-SD-DE Heisse.Naechte.im.Knast.2016.German.HDTVRip.x264-SOFTCORE
2021-11-28 16:06:02 TV-X264 Honeymoon.Toedliche.Tropen.2019.German.1080p.HDTV.x264-SOFTCORE
2021-11-28 16:06:23 TV-X264 Mcleods.Daughters.S02E12.1080p.WEB.H264-CBFM
2021-11-28 16:06:27 TV-X264 Mcleods.Daughters.S02E12.720p.WEB.H264-CBFM
2021-11-28 16:07:04 TV-X264 Honeymoon.Toedliche.Tropen.2019.German.720p.HDTV.x264-SOFTCORE
2021-11-28 16:08:09 X264-SD-DE Honeymoon.Toedliche.Tropen.2019.German.HDTVRip.x264-SOFTCORE
2021-11-28 16:08:35 TV-X264 Mcleods.Daughters.S02E13.1080p.WEB.H264-CBFM
2021-11-28 16:08:39 TV-X264 Mcleods.Daughters.S02E13.720p.WEB.H264-CBFM
2021-11-28 16:09:05 APPS The.Gnomon.Workshop.The.Art.of.the.Armature.Mastering.TUTORiAL-SOFTiMAGE
2021-11-28 16:09:16 TV-X264 Myriam.meine.wilden.Freuden.1982.German.1080p.HDTV.x264-SOFTCORE
2021-11-28 16:10:03 TV-HD-FR One.Piece.E1001.SUBFRENCH.1080p.WEB.x264-AMB3R
2021-11-28 16:10:15 TV-X264 Myriam.meine.wilden.Freuden.1982.German.720p.HDTV.x264-SOFTCORE
2021-11-28 16:10:24 TV-X264 Mcleods.Daughters.S02E14.1080p.WEB.H264-CBFM
2021-11-28 16:10:26 TV-HD-DE Reservation.Dogs.S01E08.GERMAN.DUBBED.DL.2160p.WEB.h265-FRAGGERS
2021-11-28 16:10:29 TV-X264 Mcleods.Daughters.S02E14.720p.WEB.H264-CBFM
2021-11-28 16:11:18 X264-SD-DE Myriam.meine.wilden.Freuden.1982.German.HDTVRip.x264-SOFTCORE
2021-11-28 16:11:59 APPS Udemy.Mastering.SolidWorks.as.a.beginner.TUTORiAL-SOFTiMAGE
2021-11-28 16:12:21 TV-X264 Ultimative.MILF.Fantasien.2019.German.1080p.HDTV.x264-SOFTCORE
2021-11-28 16:12:27 TV-X264 Mcleods.Daughters.S02E15.1080p.WEB.H264-CBFM
2021-11-28 16:12:31 TV-X264 Mcleods.Daughters.S02E15.720p.WEB.H264-CBFM
2021-11-28 16:13:23 TV-X264 Ultimative.MILF.Fantasien.2019.German.720p.HDTV.x264-SOFTCORE
2021-11-28 16:14:19 TV-X264 Mcleods.Daughters.S02E16.1080p.WEB.H264-CBFM
2021-11-28 16:14:24 TV-X264 Mcleods.Daughters.S02E16.720p.WEB.H264-CBFM
2021-11-28 16:14:25 X264-SD-DE Ultimative.MILF.Fantasien.2019.German.HDTVRip.x264-SOFTCORE
2021-11-28 16:15:53 APPS Udemy.Podcasting.Mastery.2022.TUTORiAL-SOFTiMAGE
2021-11-28 16:16:13 TV-X264 Mcleods.Daughters.S02E17.1080p.WEB.H264-CBFM
2021-11-28 16:16:16 TV-X264 Mcleods.Daughters.S02E17.720p.WEB.H264-CBFM
2021-11-28 16:17:16 APPS Udemy.Unity.Stat.System.TUTORiAL-SOFTiMAGE
2021-11-28 16:18:19 TV-X264 Mcleods.Daughters.S02E18.1080p.WEB.H264-CBFM
2021-11-28 16:18:26 TV-HD Mcleods.Daughters.S02E18.720p.WEB.H264-CBFM
2021-11-28 16:20:13 TV-X264 Mcleods.Daughters.S02E19.1080p.WEB.H264-CBFM
2021-11-28 16:20:18 TV-X264 Mcleods.Daughters.S02E19.720p.WEB.H264-CBFM
2021-11-28 16:22:38 TV-X264 Mcleods.Daughters.S02E20.1080p.WEB.H264-CBFM
2021-11-28 16:22:42 TV-X264 Mcleods.Daughters.S02E20.720p.WEB.H264-CBFM
2021-11-28 16:24:17 TV-X264 Mcleods.Daughters.S02E21.1080p.WEB.H264-CBFM
2021-11-28 16:28:17 TV-X264 Christmas.CEO.2021.720p.HDTV.x264-CRiMSON
2021-11-28 16:28:25 TV-X264 Mcleods.Daughters.S02E21.720p.WEB.H264-CBFM
2021-11-28 16:30:43 TV-X264 Mcleods.Daughters.S02E22.1080p.WEB.H264-CBFM
2021-11-28 16:30:48 TV-X264 Mcleods.Daughters.S02E22.720p.WEB.H264-CBFM
2021-11-28 16:31:18 MP3 Gesloten_Cirkel_-_Gesloten_Boekwerk_(M-EX)-PROPER-WEB-2021-TR
2021-11-28 16:32:34 TV-SD Christmas.CEO.2021.HDTV.x264-CRiMSON
2021-11-28 16:32:58 TV-X264 Genius.2017.S01E01.1080p.WEB.h264-NOMA
2021-11-28 16:33:45 TV-X264 Genius.2017.S01E02.1080p.WEB.h264-NOMA
2021-11-28 16:34:33 TV-X264 Genius.2017.S01E03.1080p.WEB.h264-NOMA
2021-11-28 16:35:20 TV-X264 Genius.2017.S01E04.1080p.WEB.h264-NOMA
2021-11-28 16:36:08 TV-X264 Genius.2017.S01E05.1080p.WEB.h264-NOMA
2021-11-28 16:36:56 TV-X264 Genius.2017.S01E06.1080p.WEB.h264-NOMA
2021-11-28 16:37:44 TV-X264 Genius.2017.S01E07.1080p.WEB.h264-NOMA
2021-11-28 16:38:16 MP3 Revolverheld--Neu_erzaehlen-DE-2021-OMA
2021-11-28 16:40:03 TV-X264 Genius.2017.S01E08.1080p.WEB.h264-NOMA
2021-11-28 16:40:50 TV-X264 Genius.2017.S01E09.1080p.WEB.h264-NOMA
2021-11-28 16:44:26 TV-X264 Al.Pacino.The.Reluctant.Star.2020.1080p.HDTV.H264-CBFM
2021-11-28 16:44:30 TV-X264 Al.Pacino.The.Reluctant.Star.2020.720p.HDTV.x264-CBFM
2021-11-28 16:46:00 TV-X264 Demon.Slayer.Kimetsu.no.Yaiba.S02E07.720p.WEB.H264-SENPAI
2021-11-28 16:46:02 TV-X264 Demon.Slayer.Kimetsu.no.Yaiba.S02E07.1080p.WEB.H264-SENPAI
2021-11-28 16:46:40 TV-HD The.Assassination.Of.JFK.2021.1080p.HDTV.H264-CBFM
2021-11-28 16:46:45 TV-X264 The.Assassination.Of.JFK.2021.720p.HDTV.x264-CBFM
2021-11-28 16:48:07 TV-HD-FR Blade.Runner.Black.Lotus.S01E04.SUBFRENCH.1080p.WEB.x264-AMB3R
2021-11-28 16:48:15 TV-HD-FR New.Amsterdam.2018.S03E01.FRENCH.720p.WEB.H264-FREAMON
2021-11-28 16:48:26 TV-HD-FR New.Amsterdam.2018.S03E02.FRENCH.720p.WEB.H264-FREAMON
2021-11-28 16:48:41 TV-HD-NL K2.Zoekt.Mee.S01E08.FLEMISH.1080p.WEB.H264-MERCATOR
2021-11-28 16:48:55 TV-HD-NL K2.Zoekt.Mee.S01E08.FLEMISH.720p.WEB.H264-MERCATOR
2021-11-28 16:49:02 TV-HD-FR New.Amsterdam.2018.S03E03.FRENCH.720p.WEB.H264-FREAMON
2021-11-28 16:49:02 TV-HD-NL K2.Zoekt.Mee.S01E09.FLEMISH.1080p.WEB.H264-MERCATOR
2021-11-28 16:49:11 TV-HD-NL K2.Zoekt.Mee.S01E09.FLEMISH.720p.WEB.H264-MERCATOR
2021-11-28 16:49:20 TV-HD-NL K2.Zoekt.Mee.S01E10.FLEMISH.1080p.WEB.H264-MERCATOR
2021-11-28 16:49:24 MP3 Damians_Ghost_-_All_I_Remember_(APHALTD004)-WEB-2021-TR
2021-11-28 16:49:26 TV-HD-NL K2.Zoekt.Mee.S01E10.FLEMISH.720p.WEB.H264-MERCATOR
2021-11-28 16:49:32 TV-HD-FR New.Amsterdam.2018.S03E04.FRENCH.720p.WEB.H264-FREAMON
2021-11-28 16:50:11 TV-HD-FR New.Amsterdam.2018.S03E05.FRENCH.720p.WEB.H264-FREAMON
2021-11-28 16:50:20 TV-HD-FR New.Amsterdam.2018.S03E06.FRENCH.720p.WEB.H264-FREAMON
2021-11-28 16:50:29 TV-X264 Mystery.Road.S02E01.1080p.WEB.H264-CBFM
2021-11-28 16:50:38 TV-X264 Mystery.Road.S02E01.720p.WEB.H264-CBFM
2021-11-28 16:51:07 TV-X264 Time.for.Them.to.Come.Home.for.Christmas.2021.720p.HDTV.x264-CRiMSON
2021-11-28 16:52:26 TV-X264 Mystery.Road.S02E02.1080p.WEB.H264-CBFM
2021-11-28 16:52:30 TV-X264 Mystery.Road.S02E02.720p.WEB.H264-CBFM
2021-11-28 16:54:21 XXX VRLatina.18.12.21.Amaranta.Hank.Colombian.Dreams.XXX.VR180.1500p.MP4-GUSH
2021-11-28 16:54:30 TV-X264 Mystery.Road.S02E03.1080p.WEB.H264-CBFM
2021-11-28 16:54:37 TV-X264 Mystery.Road.S02E03.720p.WEB.H264-CBFM
2021-11-28 16:56:20 TV-X264 Mystery.Road.S02E04.1080p.WEB.H264-CBFM
2021-11-28 16:56:26 TV-X264 Mystery.Road.S02E04.720p.WEB.H264-CBFM
2021-11-28 16:57:30 TV-X264 Genius.2017.S01E10.1080p.WEB.h264-NOMA
2021-11-28 16:57:42 TV-SD Time.for.Them.to.Come.Home.for.Christmas.2021.HDTV.x264-CRiMSON
2021-11-28 16:58:24 MP3 DJ_Wiggle_-_Wiggle_(HOTHAUS068)-WEB-2021-TR
2021-11-28 16:59:56 TV-X264 Lost.Treasures.of.the.Maya.S01E01.1080p.WEB.h264-NOMA
2021-11-28 17:00:43 TV-X264 Lost.Treasures.of.the.Maya.S01E02.1080p.WEB.h264-NOMA
2021-11-28 17:00:52 TV-HD-FR Waccha.PriMagi.E09.SUBFRENCH.1080p.WEB.x264-AMB3R
2021-11-28 17:01:08 APPS Humano3d.Vol.09.Kids-SoSISO
2021-11-28 17:01:30 TV-X264 Lost.Treasures.of.the.Maya.S01E03.1080p.WEB.h264-NOMA
2021-11-28 17:02:16 TV-X264 Lost.Treasures.of.the.Maya.S01E04.1080p.WEB.h264-NOMA
2021-11-28 17:04:49 TV-X264 Mystery.Road.S02E05.1080p.WEB.H264-CBFM
2021-11-28 17:04:57 TV-X264 Mystery.Road.S02E05.720p.WEB.H264-CBFM
2021-11-28 17:06:42 TV-X264 Mystery.Road.S02E06.1080p.WEB.H264-CBFM
2021-11-28 17:06:46 TV-X264 Mystery.Road.S02E06.720p.WEB.H264-CBFM
2021-11-28 17:10:38 TV-X264 Living.With.Hitler.S01E01.1080p.WEB.H264-CBFM
2021-11-28 17:10:43 TV-X264 Living.With.Hitler.S01E01.720p.WEB.H264-CBFM
2021-11-28 17:12:53 TV-X264 Living.With.Hitler.S01E02.1080p.WEB.H264-CBFM
2021-11-28 17:13:00 TV-X264 Living.With.Hitler.S01E02.720p.WEB.H264-CBFM
2021-11-28 17:14:52 TV-X264 Living.With.Hitler.S01E03.1080p.WEB.H264-CBFM
2021-11-28 17:15:24 TV-X264 Living.With.Hitler.S01E03.720p.WEB.H264-CBFM
2021-11-28 17:16:53 MP3 Power_Station-20_New_Duet_Best_Collection-CN-2016-TosK
2021-11-28 17:17:22 MP3 Bii-Im_Bii_To_The_Double_I-CN-2016-TosK
2021-11-28 17:17:48 MP3 Bii-Bii_Your_Light-CN-2017-TosK
2021-11-28 17:18:04 FLAC Delly_Ranks-Good_Gal-(MM004)-VLS-FLAC-199X-YARD
2021-11-28 17:18:17 MP3 Victor_Wong-Adulthood-CN-2015-TosK
2021-11-28 17:18:39 FLAC Elephant_Man_and_Harry_Toddler-Wan_Come_Theif_Him-(MM003)-VLS-FLAC-199X-YARD
2021-11-28 17:18:59 MP3 Victor_Wong-The_Pursuit_of_Happiness-CN-2019-TosK
2021-11-28 17:19:02 FLAC Hawk_Eye__Goofy-How_Yuh_So_Bless-VLS-FLAC-199X-YARD
2021-11-28 17:19:21 FLAC Lexus-Who-(MM005)-VLS-FLAC-199X-YARD
2021-11-28 17:19:38 FLAC Nitty_Kutchie_and_Boom_Dandimite-Girls_Style-(MM006)-VLS-FLAC-199X-YARD
2021-11-28 17:19:55 FLAC Red_Dragon-How_Yu_Pretty_So-VLS-FLAC-199X-YARD
2021-11-28 17:20:10 FLAC Tony_Curtis-Lose_Yu_Women-(MM001)-VLS-FLAC-199X-YARD
2021-11-28 17:20:54 TV-X264 Hitler.Countdown.To.War.S01E01.1080p.HDTV.H264-CBFM
2021-11-28 17:20:57 TV-X264 Hitler.Countdown.To.War.S01E01.720p.HDTV.x264-CBFM
2021-11-28 17:20:57 MP3 Delly_Ranks-Good_Gal-(MM004)-VLS-199X-YARD
2021-11-28 17:21:26 MP3 Elephant_Man_and_Harry_Toddler-Wan_Come_Theif_Him-(MM003)-VLS-199X-YARD
2021-11-28 17:21:51 MP3 Hawk_Eye__Goofy-How_Yuh_So_Bless-VLS-199X-YARD
2021-11-28 17:22:17 MP3 Lexus-Who-(MM005)-VLS-199X-YARD
2021-11-28 17:22:34 MP3 Nitty_Kutchie_and_Boom_Dandimite-Girls_Style-(MM006)-VLS-199X-YARD
2021-11-28 17:22:36 TV-X264 Hitler.Countdown.To.War.S01E02.1080p.HDTV.H264-CBFM
2021-11-28 17:22:40 TV-X264 Hitler.Countdown.To.War.S01E02.720p.HDTV.x264-CBFM
2021-11-28 17:22:52 MP3 Red_Dragon-How_Yu_Pretty_So-VLS-199X-YARD
2021-11-28 17:23:13 MP3 Tony_Curtis-Lose_Yu_Women-(MM001)-VLS-199X-YARD
2021-11-28 17:23:26 TV-HD-FR Shikizakura.E08.SUBFRENCH.1080p.WEB.x264-AMB3R
2021-11-28 17:24:23 TV-X264 Hitler.Countdown.To.War.S01E03.1080p.HDTV.H264-CBFM
2021-11-28 17:24:32 TV-X264 Hitler.Countdown.To.War.S01E03.720p.HDTV.x264-CBFM
2021-11-28 17:27:13 TV-X264 Worlds.Apart.2008.SUBBED.1080p.HDTV.H264-CBFM
2021-11-28 17:27:25 TV-X264 Worlds.Apart.2008.SUBBED.720p.HDTV.x264-CBFM
2021-11-28 17:30:32 TV-HD The.Life.And.Adventures.Of.Nicholas.Nickleby.1947.iNTERNAL.1080p.HDTV.H264-CBFM
2021-11-28 17:30:40 TV-X264 The.Life.And.Adventures.Of.Nicholas.Nickleby.1947.720p.HDTV.x264-CBFM
2021-11-28 17:31:22 TV-HD-DE Vienna.Blood.S02E01.Die.Traurige.Graefin.GERMAN.720p.WEBRiP.x264-RWP
2021-11-28 17:31:57 MP3 Aldreen-Distant_Skies-(M017)-SINGLE-WEB-2021-FALCON
2021-11-28 17:32:29 MP3 Bugra_Baran-Entity_EP-(EFM052)-WEB-2021-FALCON
2021-11-28 17:33:01 TV-X264 The.Ash.Lad.In.The.Hall.Of.The.Mountain.King.2017.SUBBED.1080p.HDTV.H264-CBFM
2021-11-28 17:33:01 MP3 Cenk_Basaran-Overdose-(EFM050)-SINGLE-WEB-2021-FALCON
2021-11-28 17:33:07 TV-X264 The.Ash.Lad.In.The.Hall.Of.The.Mountain.King.2017.SUBBED.720p.HDTV.x264-CBFM
2021-11-28 17:33:23 TV-HD-DE Vienna.Blood.S02E02.Die.Schwarze.Feder.GERMAN.720p.WEBRiP.x264-RWP
2021-11-28 17:33:33 MP3 Civil_Servant-One_More_Night-(TYC620)-WEB-2021-FALCON
2021-11-28 17:34:05 MP3 DJ_B-My_Baby-(BSD2021166)-SINGLE-WEB-2021-FALCON
2021-11-28 17:34:37 MP3 ID7-Eridan-(USA047)-WEB-2021-FALCON
2021-11-28 17:35:08 MP3 Mattew_Collins-Everlasting_Touch-(HWS682)-WEB-2021-FALCON
2021-11-28 17:35:41 MP3 Nbdy_Knws_And_Tonderde-Stranger_Things-(BNU124)-SINGLE-WEB-2021-FALCON
2021-11-28 17:36:12 MP3 Nikolay_Mikryukov-Underground_Bird_Dance_And_Milestone_EP-(MY157)-WEB-2021-FALCON
2021-11-28 17:36:47 MP3 Paradoks-Sense_Of_Wonder-(PF030)-SINGLE-WEB-2021-FALCON
2021-11-28 17:36:57 TV-X264 She.Made.Them.Do.It.2013.1080p.HDTV.H264-CBFM
2021-11-28 17:37:04 TV-X264 She.Made.Them.Do.It.2013.720p.HDTV.x264-CBFM
2021-11-28 17:37:19 MP3 Passenger_10-Osmania-(ETR614)-SINGLE-WEB-2021-FALCON
2021-11-28 17:37:50 MP3 Perfect_Stranger-Bliss_Life_Style_Remix-(PTJL000012)-SINGLE-WEB-2021-FALCON
2021-11-28 17:38:23 MP3 R.Hood-Battle-(VSN081)-WEB-2021-FALCON
2021-11-28 17:38:56 MP3 Sian-Waiting_For_You-(MAU50432)-SINGLE-WEB-2021-FALCON
2021-11-28 17:39:27 MP3 Steny-Visions-(KAR010)-SINGLE-WEB-2021-FALCON
2021-11-28 17:39:59 MP3 Terry_Golden-Illusion-(SIR218)-SINGLE-WEB-2021-FALCON
2021-11-28 17:40:00 TV-HD Girl.Meets.Farm.S09E10.Heck.Yeah.Hanukkah.1080p.WEB.h264-KOMPOST
2021-11-28 17:40:20 TV-X264 Girl.Meets.Farm.S09E10.Heck.Yeah.Hanukkah.720p.WEB.h264-KOMPOST
2021-11-28 17:40:31 MP3 Tom_Baker-Collecting_Kindling-(BSSEP043)-WEB-2021-FALCON
2021-11-28 17:40:41 TV-X264 Home.Town.Takeover.S01E00.Where.Are.They.Now.720p.WEBRip.x264-KOMPOST
2021-11-28 17:40:44 TV-X264 The.Beatles.Get.Back.S01E03.1080p.WEB.h264-KOGi
2021-11-28 17:40:47 TV-HD Pearl.2018.SUBBED.1080p.HDTV.H264-CBFM
2021-11-28 17:41:02 TV-X264 Table.Wars.S01E03.Decades.720p.WEBRip.x264-KOMPOST
2021-11-28 17:41:05 MP3 VA-Remixed_Version-(SR054)-WEB-2021-FALCON
2021-11-28 17:41:06 TV-X264 Pearl.2018.SUBBED.720p.HDTV.x264-CBFM
2021-11-28 17:41:23 TV-X264 The.Dead.Files.S16E06.Darkness.Calls.720p.WEBRip.x264-KOMPOST
2021-11-28 17:42:50 TV-X264 The.Beatles.Get.Back.S01E03.720p.WEB.h264-KOGi
2021-11-28 17:44:54 TV-X264 Carlton-Browne.Of.The.F.O.1959.iNTERNAL.1080p.HDTV.H264-CBFM
2021-11-28 17:44:57 TV-HD The.Beatles.Get.Back.S01E03.HDR.2160p.WEB.h265-KOGi
2021-11-28 17:45:12 TV-X264 Carlton-Browne.Of.The.F.O.1959.720p.HDTV.x264-CBFM
2021-11-28 17:48:27 TV-X264 Broken.Hill.2009.1080p.HDTV.x264-CBFM
2021-11-28 17:48:39 TV-X264 Broken.Hill.2009.720p.HDTV.x264-CBFM
2021-11-28 17:48:48 MP3 Mark_and_Matt_Thibideau_-_Two_Sides_(JOULE04)-REISSUE-WEB-2020-TR
2021-11-28 17:53:51 TV-X264 Dirty.Little.Deeds.2021.720p.HDTV.x264-CRiMSON
2021-11-28 17:54:15 TV-HD-DE Home.und.Office.-.Wir.ziehen.hin.wos.uns.gefaellt.S01E01.Trubel.oder.Ruhe.German.DOKU.1080p.WEB.h264-ATAX
2021-11-28 17:54:36 TV-HD Old.Henry.2021.SAMPLEFIX.1080p.BluRay.x264-PiGNUS
2021-11-28 17:55:43 TV-HD-DE Home.und.Office.-.Wir.ziehen.hin.wos.uns.gefaellt.S01E01.Trubel.oder.Ruhe.German.DOKU.720p.WEB.h264-ATAX
2021-11-28 17:56:48 TV-SD-DE Home.und.Office.-.Wir.ziehen.hin.wos.uns.gefaellt.S01E01.Trubel.oder.Ruhe.German.DOKU.WebRip.x264-ATAX
2021-11-28 17:58:39 TV-HD-DE Home.und.Office.-.Wir.ziehen.hin.wos.uns.gefaellt.S01E02.Ein.historischer.Schritt.German.DOKU.1080p.WEB.h264-ATAX
2021-11-28 18:00:26 MP3 David_Rodigan--BBC_Radio_1Xtra-DVBS-11-28-2021-OMA
2021-11-28 18:01:19 TV-HD-DE Home.und.Office.-.Wir.ziehen.hin.wos.uns.gefaellt.S01E02.Ein.historischer.Schritt.German.DOKU.720p.WEB.h264-ATAX
2021-11-28 18:02:35 TV-SD-DE Home.und.Office.-.Wir.ziehen.hin.wos.uns.gefaellt.S01E02.Ein.historischer.Schritt.German.DOKU.WebRip.x264-ATAX
2021-11-28 18:06:09 TV-HD-DE Die.Osbournes.-.Paranormal.Check.S01E01.Die.Skeptiker.German.DOKU.1080p.WEB.h264-ATAX
2021-11-28 18:07:44 TV-X264 Das.Supertalent.S15E08.GERMAN.720p.HDTV.x264-RTL
2021-11-28 18:07:50 TV-X264 Irina.The.Vampire.Cosmonaut.S01E09.720p.WEB.H264-SUGOI
2021-11-28 18:08:03 TV-X264 Irina.The.Vampire.Cosmonaut.S01E09.1080p.WEB.H264-SUGOI
2021-11-28 18:09:30 TV-HD-FR Kimetsu.no.Yaiba.Mugen.Ressha-hen.TV.E07.FiNAL.SUBFRENCH.1080p.WEB.x264-AMB3R
2021-11-28 18:09:44 TV-HD-DE Die.Osbournes.-.Paranormal.Check.S01E01.Die.Skeptiker.German.DOKU.720p.WEB.h264-ATAX
2021-11-28 18:11:08 TV-SD-DE Die.Osbournes.-.Paranormal.Check.S01E01.Die.Skeptiker.German.DOKU.WebRip.x264-ATAX
2021-11-28 18:14:35 TV-HD-DE Die.Osbournes.-.Paranormal.Check.S01E02.Breaking.all.the.Rules.German.DOKU.1080p.WEB.h264-ATAX
2021-11-28 18:17:50 MP3 Noreaga-Melvin_Flynt-Da_Hustler-WEB-1999-CGPABN_INT
2021-11-28 18:18:08 TV-HD-DE Die.Osbournes.-.Paranormal.Check.S01E02.Breaking.all.the.Rules.German.DOKU.720p.WEB.h264-ATAX
2021-11-28 18:19:21 TV-SD-DE Die.Osbournes.-.Paranormal.Check.S01E02.Breaking.all.the.Rules.German.DOKU.WebRip.x264-ATAX
2021-11-28 18:22:57 BLURAY-FULL Cliff.Walkers.2021.COMPLETE.BLURAY-UNRELiABLE
2021-11-28 18:23:27 MP3 VA--D.Trance_96_(Incl_Techno_53)-WEB-2021-KPS_INT
2021-11-28 18:24:05 TV-X264 The.2021.National.Memorial.Day.Parade.Our.Sacred.Honor.2021.720p.HDTV.x264-60FPS
2021-11-28 18:24:19 TV-X264 Re.E784.Bandenkriminalitaet.in.Schweden.-.Eskalation.der.Gewalt.GERMAN.DOKU.720p.HDTV.x264-Pumuck
2021-11-28 18:24:20 TV-X264 The.6abc.Thanksgiving.Day.Parade.2021.720p.HDTV.x264-60FPS
2021-11-28 18:24:28 TV-X264 The.95th.Annual.Macys.Thanksgiving.Day.Parade.2021.720p.HDTV.x264-60FPS
2021-11-28 18:24:51 TV-X264 The.95th.Annual.Macys.Thanksgiving.Day.Parade.2021.CBS.FEED.720p.HDTV.x264-60FPS
2021-11-28 18:26:30 TV-SD-DE Re.E784.Bandenkriminalitaet.in.Schweden.-.Eskalation.der.Gewalt.GERMAN.DOKU.WS.HDTVRip.x264-Pumuck
2021-11-28 18:26:52 MP3 VA--FETENHITS_Dancefloor-WEB-2017-KPS_INT
2021-11-28 18:28:26 TV-X264 Re.E785.One.Way.Ticket.aus.Budapest.-.Ungarn.in.Berlin.GERMAN.DOKU.720p.HDTV.x264-Pumuck
2021-11-28 18:28:41 MP3 Everto_Signum-Synergy-MCD-2014-GRAVEWISH
2021-11-28 18:29:11 MP3 The_Whorehouse_Massacre-Altar_of_the_Goat_Skull_-_VI-CD-2015-GRAVEWISH
2021-11-28 18:29:35 TV-SD The.95th.Annual.Macys.Thanksgiving.Day.Parade.2021.HDTV.x264-60FPS
2021-11-28 18:30:14 TV-SD-DE Re.E785.One.Way.Ticket.aus.Budapest.-.Ungarn.in.Berlin.GERMAN.DOKU.WS.HDTVRip.x264-Pumuck
2021-11-28 18:35:53 TV-HD-DE Die.Osbournes.-.Paranormal.Check.S01E03.Feen.tragen.Stiefel.German.DOKU.1080p.WEB.h264-ATAX
2021-11-28 18:36:53 MP3 VA--Dance_Anthems_1990s_and_2000s-WEB-2015-KPS_INT
2021-11-28 18:38:16 TV-HD-DE Die.Osbournes.-.Paranormal.Check.S01E03.Feen.tragen.Stiefel.German.DOKU.720p.WEB.h264-ATAX
2021-11-28 18:40:00 TV-SD-DE Die.Osbournes.-.Paranormal.Check.S01E03.Feen.tragen.Stiefel.German.DOKU.WebRip.x264-ATAX
2021-11-28 18:43:03 TV-HD-DE Die.Osbournes.-.Paranormal.Check.S01E04.Poltergeisthunde.German.DOKU.1080p.WEB.h264-ATAX
2021-11-28 18:43:48 TV-X264 Total.Control.S02E04.720p.WEB.h264-DiRT
2021-11-28 18:44:26 TV-HD Yokai.Monsters.100.Monsters.1968.1080p.BluRay.x264-CiNEPHiLiA
2021-11-28 18:45:57 BLURAY-FULL Full.Alert.1997.COMPLETE.BLURAY-UNRELiABLE
2021-11-28 18:45:57 TV-HD-DE Die.Osbournes.-.Paranormal.Check.S01E04.Poltergeisthunde.German.DOKU.720p.WEB.h264-ATAX
2021-11-28 18:46:19 TV-X264 Yokai.Monsters.100.Monsters.1968.720p.BluRay.x264-CiNEPHiLiA
2021-11-28 18:47:33 TV-SD-DE Die.Osbournes.-.Paranormal.Check.S01E04.Poltergeisthunde.German.DOKU.WebRip.x264-ATAX
2021-11-28 18:50:35 TV-HD-DE Die.Osbournes.-.Paranormal.Check.S01E05.Crazy.Babies.German.DOKU.1080p.WEB.h264-ATAX
2021-11-28 18:50:47 TV-X264 Re.E786.Gewalt.im.Kreisssaal.-.Wenn.die.Geburt.zum.Albtraum.wird.GERMAN.DOKU.720p.HDTV.x264-Pumuck
2021-11-28 18:52:04 MP3 VA--25_Years_of_Drum_and_Bass_Arena-(DNBA25LP)-WEB-2021-KPS_INT
2021-11-28 18:52:40 TV-SD-DE Re.E786.Gewalt.im.Kreisssaal.-.Wenn.die.Geburt.zum.Albtraum.wird.GERMAN.DOKU.WS.HDTVRip.x264-Pumuck
2021-11-28 18:53:20 TV-HD The.Great.Yokai.War.1968.1080p.BluRay.x264-CiNEPHiLiA
2021-11-28 18:54:11 TV-HD-DE Die.Osbournes.-.Paranormal.Check.S01E05.Crazy.Babies.German.DOKU.720p.WEB.h264-ATAX
2021-11-28 18:54:15 TV-X264 Re.E787.Wunderwaffe.Hanf.-.Altes.Wissen.neu.entdeckt.GERMAN.DOKU.720p.HDTV.x264-Pumuck
2021-11-28 18:55:24 TV-SD-DE Die.Osbournes.-.Paranormal.Check.S01E05.Crazy.Babies.German.DOKU.WebRip.x264-ATAX
2021-11-28 18:55:40 MP3 Meau-Dat_Heb_Jij_Gedaan-SINGLE-REPACK-WEB-NL-2021-NLG
2021-11-28 18:55:57 TV-X264 The.Great.Yokai.War.1968.720p.BluRay.x264-CiNEPHiLiA
2021-11-28 18:56:12 TV-SD-DE Re.E787.Wunderwaffe.Hanf.-.Altes.Wissen.neu.entdeckt.GERMAN.DOKU.WS.HDTVRip.x264-Pumuck
2021-11-28 19:00:03 MP3 VA--Presence_Hard_Dance_Anthology_Bundle_Vol_2-WEB-2021-KPS_INT
2021-11-28 19:00:58 TV-HD-DE Eiskaltes.Gold.S03E07.Gefangen.in.Cloud.Island.German.DOKU.1080p.WEB.h264.REPACK-ATAX
2021-11-28 19:04:33 TV-HD Yokai.Monsters.Along.with.Ghosts.1969.1080p.BluRay.x264-CiNEPHiLiA
2021-11-28 19:04:57 MP3 Froukje-Een_Teken-WEB-NL-2021-NLG
2021-11-28 19:05:11 TV-HD-NL Olaf.Presents.S01E01.DUTCH.1080p.WEB.h264-NLKIDS
2021-11-28 19:05:14 TV-HD-DE Eiskaltes.Gold.S03E07.Gefangen.in.Cloud.Island.German.DOKU.720p.WEB.h264.REPACK-ATAX
2021-11-28 19:05:35 MP3 Froukje-Niets_Tussen-WEB-NL-2021-NLG
2021-11-28 19:05:36 BLURAY-FULL Tierra.1996.COMPLETE.BLURAY-UNRELiABLE
2021-11-28 19:05:41 TV-X264 Yokai.Monsters.Along.with.Ghosts.1969.720p.BluRay.x264-CiNEPHiLiA
2021-11-28 19:05:42 TV-HD-NL Olaf.Presents.S01E02.DUTCH.1080p.WEB.h264-NLKIDS
2021-11-28 19:06:10 TV-HD-NL Olaf.Presents.S01E03.DUTCH.1080p.WEB.h264-NLKIDS
2021-11-28 19:06:41 TV-HD-NL Olaf.Presents.S01E04.DUTCH.1080p.WEB.h264-NLKIDS
2021-11-28 19:06:45 TV-SD-DE Eiskaltes.Gold.S03E07.Gefangen.in.Cloud.Island.German.DOKU.WebRip.x264.REPACK-ATAX
2021-11-28 19:07:11 TV-HD-NL Olaf.Presents.S01E05.DUTCH.1080p.WEB.h264-NLKIDS
2021-11-28 19:07:43 TV-HD-NL Olaf.Presents.S01E06.DUTCH.1080p.WEB.h264-NLKIDS
2021-11-28 19:08:09 TV-X264 Barefoot.Contessa.S29E05.1080p.WEB.h264-KOMPOST
2021-11-28 19:08:27 TV-X264 Barefoot.Contessa.S29E05.720p.WEB.h264-KOMPOST
2021-11-28 19:08:46 TV-X264 Destination.Fear.2019.S03E12.Nevada.State.Prison.720p.WEBRip.x264-KOMPOST
2021-11-28 19:09:06 TV-X264 The.Dead.Files.S16E06.Darkness.Calls.1080p.WEBRip.x264-KOMPOST
2021-11-28 19:09:18 MP3 VA--Presence_Hard_Dance_Anthology_Bundle_Vol_1-WEB-2021-KPS_INT
2021-11-28 19:10:42 TV-X264 BuZa.S01E02.DUTCH.1080p.HDTV.x264-DTOD
2021-11-28 19:11:18 TV-HD-DE Eiskaltes.Gold.S03E08.Ein.heisser.Tipp.German.DOKU.1080p.WEB.h264-ATAX
2021-11-28 19:13:50 TV-HD-DE Eiskaltes.Gold.S03E08.Ein.heisser.Tipp.German.DOKU.720p.WEB.h264-ATAX
2021-11-28 19:14:14 TV-X264 Chantals.Pyjama.Party.S02E05.DUTCH.1080p.HDTV.x264-DTOD
2021-11-28 19:15:01 TV-HD The.Great.Yokai.War.2005.1080p.BluRay.x264-CiNEPHiLiA
2021-11-28 19:15:33 TV-SD-DE Eiskaltes.Gold.S03E08.Ein.heisser.Tipp.German.DOKU.WebRip.x264-ATAX
2021-11-28 19:16:27 TV-X264 Mindfuck.S06E04.DUTCH.1080p.HDTV.x264-DTOD
2021-11-28 19:17:49 TV-X264 The.Great.Yokai.War.2005.720p.BluRay.x264-CiNEPHiLiA
2021-11-28 19:20:01 TV-HD-DE Eiskaltes.Gold.S03E09.Der.Schein.truegt.German.DOKU.1080p.WEB.h264-ATAX
2021-11-28 19:21:14 TV-X264 The.Masked.Singer.NL.S03E07.DUTCH.1080p.HDTV.x264-DTOD
2021-11-28 19:21:48 TV-HD-NL Klopjacht.S01E05.FLEMISH.720p.WEB.H264-MERCATOR
2021-11-28 19:22:32 TV-SD Das.Supertalent.S15E08.GERMAN.HDTV.x264-RTL
2021-11-28 19:23:15 TV-HD-DE Eiskaltes.Gold.S03E09.Der.Schein.truegt.German.DOKU.720p.WEB.h264-ATAX
2021-11-28 19:23:38 TV-X264 EPL.2021.11.27.Arsenal.Vs.Newcastle.United.720p.WEB.h264-SPORTSNET
2021-11-28 19:24:07 MP3 VA--Pump_It_Vol_18-(LNGA0260)-WEB-2021-KPS
2021-11-28 19:24:54 TV-SD-DE Eiskaltes.Gold.S03E09.Der.Schein.truegt.German.DOKU.WebRip.x264-ATAX
2021-11-28 19:28:57 MP3 VA--Pump_It_Vol_19-WEB-2021-KPS
2021-11-28 19:28:58 TV-HD-DE Eiskaltes.Gold.S03E10.Am.Scheideweg.German.DOKU.1080p.WEB.h264-ATAX
2021-11-28 19:29:15 TV-HD-FR Tesla.Note.E09.SUBFRENCH.1080p.WEB.H264-AMB3R
2021-11-28 19:30:39 MP3 Betamax--Betamax_vs_Clive_Bell-(BYR35LP)-WEB-2021-OMA
2021-11-28 19:32:16 TV-HD-DE Eiskaltes.Gold.S03E10.Am.Scheideweg.German.DOKU.720p.WEB.h264-ATAX
2021-11-28 19:34:02 TV-SD-DE Eiskaltes.Gold.S03E10.Am.Scheideweg.German.DOKU.WebRip.x264-ATAX
2021-11-28 19:37:44 MP3 VA--Furia_Ibiza_Summer_2021_(Compiled)-WEB-2021-KPS
2021-11-28 19:40:25 TV-X264 Delicious.Miss.Brown.S05E12.Bridge.Run.Brunch.1080p.WEBRip.x264-KOMPOST
2021-11-28 19:40:29 TV-X264 Delicious.Miss.Brown.S05E12.Bridge.Run.Brunch.720p.WEBRip.x264-KOMPOST
2021-11-28 19:50:59 GAMES Fort_Triumph_v1.1.7_Linux-Razor1911
2021-11-28 19:52:20 TV-X264 Das.Gold.der.Sachsen.-.Wie.Agenten.die.Schatzkammer.des.Koenigs.fuellten.GERMAN.DOKU.720p.HDTV.x264-Pumuck
2021-11-28 19:57:01 TV-SD-DE Das.Gold.der.Sachsen.-.Wie.Agenten.die.Schatzkammer.des.Koenigs.fuellten.GERMAN.DOKU.WS.HDTVRip.x264-Pumuck
2021-11-28 20:00:04 MP3 Freddy_Moreira_-_Moreiras_Mansion_(FunX)-CABLE-11-26-2021-TALiON
2021-11-28 20:01:03 MP3 Childsplay_-_Fissa_(FunX)-CABLE-11-26-2021-TALiON
2021-11-28 20:01:51 X264-SD-DE Muenchen.Mord.Der.letzte.seiner.Art.German.2021.AC3.DVDRip.x264-SAVASTANOS
2021-11-28 20:02:03 MP3 Lucky_Jones_-_Lucky_Hour_(FunX)-CABLE-11-27-2021-TALiON
2021-11-28 20:03:05 MP3 Robin_Roxette_-_Fissa_(FunX)-CABLE-11-26-2021-TALiON
2021-11-28 20:04:06 MP3 Lost_Frequencies_-_Lost_Radio_Show-CABLE-11-26-2021-TALiON
2021-11-28 20:05:04 MP3 5napback_-_In_The_Mix_(MNM)-CABLE-11-26-2021-TALiON
2021-11-28 20:06:05 MP3 DJ_Leony_-_BPM_Thanksgiving-SAT-11-25-2021-TALiON
2021-11-28 20:07:05 MP3 Kastra_-_BPM_Thanksgiving-SAT-11-25-2021-TALiON
2021-11-28 20:08:05 MP3 DJ_Nurotic_-_BPM_Thanksgiving-SAT-11-25-2021-TALiON
2021-11-28 20:09:05 MP3 GATTUSO_-_BPM_Thanksgiving-SAT-11-25-2021-TALiON
2021-11-28 20:10:05 MP3 The_Disco_Fries_-_BPM_Thanksgiving-SAT-11-25-2021-TALiON
2021-11-28 20:11:05 MP3 Gryffin_-_Elevate_Radio_023-SAT-11-26-2021-TALiON
2021-11-28 20:11:45 TV-HD-NORD Farmen.S17E39.NORWEGiAN.720p.WEB.h264-BAKFYLLA
2021-11-28 20:12:04 MP3 Cheat_Codes_-_Too_Easy_Radio_049-SAT-11-26-2021-TALiON
2021-11-28 20:13:03 MP3 Cash_Cash_-_Cash_Cash_Radio_067-SAT-11-26-2021-TALiON
2021-11-28 20:14:04 MP3 Tiesto_-_Club_Life_765-SAT-11-27-2021-TALiON
2021-11-28 20:15:06 MP3 Jonas_Blue_-_Musical_Freedom_Radio-SAT-11-27-2021-TALiON
2021-11-28 20:16:05 MP3 Rufus_Du_Sol_-_Rose_Avenue_Radio_017-SAT-11-26-2021-TALiON
2021-11-28 20:16:32 TV-X264 Texas.6.S02E05.1080p.WEB.h264-DiRT
2021-11-28 20:17:03 TV-X264 Texas.6.S02E05.720p.WEB.h264-DiRT
2021-11-28 20:17:04 MP3 Flight_Facilities_-_Rose_Avenue_Radio_017-SAT-11-26-2021-TALiON
2021-11-28 20:17:32 TV-X264 Texas.6.S02E06.1080p.WEB.h264-DiRT
2021-11-28 20:18:02 TV-X264 Texas.6.S02E06.720p.WEB.h264-DiRT
2021-11-28 20:18:04 MP3 Alyx_Ander_-_Day_Life_Radio-SAT-11-26-2021-TALiON
2021-11-28 20:18:32 TV-X264 Texas.6.S02E07.1080p.WEB.h264-DiRT
2021-11-28 20:19:03 MP3 Nora_En_Pure_-_Purified_275-SAT-11-27-2021-TALiON
2021-11-28 20:19:03 TV-X264 Texas.6.S02E07.720p.WEB.h264-DiRT
2021-11-28 20:19:31 TV-X264 Texas.6.S02E08.1080p.WEB.h264-DiRT
2021-11-28 20:19:43 MP3 Monty--Stylz-(ONEF038S3)-SINGLE-WEB-2021-OMA
2021-11-28 20:20:03 TV-X264 Texas.6.S02E08.720p.WEB.h264-DiRT
2021-11-28 20:20:04 MP3 Trent_Cantrelle_-_Sounds_Like_Radio-SAT-11-27-2021-TALiON
2021-11-28 20:20:12 MP3 Monty_and_Visages_feat._PAV4N_and_Strategy--Hardware-(ONEF038S4)-SINGLE-WEB-2021-OMA
2021-11-28 20:20:40 MP3 Enei_and_Kasra_feat._T_Man--Take_A_Dive-(CRITMLP001S1D)-SINGLE-WEB-2021-OMA
2021-11-28 20:21:05 MP3 Vice_-_Vice_Airwaves-SAT-11-27-2021-TALiON
2021-11-28 20:21:20 MP3 Sam_Binga_and_Particle_and_Oneda--Rude_Girl-(CRIT183S1D)-SINGLE-WEB-2021-OMA
2021-11-28 20:22:04 MP3 Diplo_-_Records_on_Records-SAT-11-27-2021-TALiON
2021-11-28 20:23:06 MP3 Martin_Garrix_-_The_Martin_Garrix_Radio_Show_376-SAT-11-28-2021-TALiON
2021-11-28 20:23:38 MP3 The_Disco_Boys_feat_Manfred_Manns_Earth_Band_-_For_You_(2021_Remixes)-(4251603277054KON)-WEB-2021-ZzZz
2021-11-28 20:24:05 MP3 UNIIQU3_-_Club_Queen_Radio_010-SAT-11-28-2021-TALiON
2021-11-28 20:24:43 MP3 VA--Momentum_Chapter_1-(GRA012)-WEB-2021-OMA
2021-11-28 20:24:53 TV-SD-FR New.Amsterdam.2018.S03E01.FRENCH.WEB.H264-AMB3R
2021-11-28 20:25:00 TV-SD-FR New.Amsterdam.2018.S03E02.FRENCH.WEB.H264-AMB3R
2021-11-28 20:25:03 MP3 Stonebridge_-_BPM_Mix-SAT-11-28-2021-TALiON
2021-11-28 20:25:09 TV-SD-FR New.Amsterdam.2018.S03E03.FRENCH.WEB.H264-AMB3R
2021-11-28 20:25:15 TV-SD-FR New.Amsterdam.2018.S03E04.FRENCH.WEB.H264-AMB3R
2021-11-28 20:25:23 TV-SD-FR New.Amsterdam.2018.S03E05.FRENCH.WEB.H264-AMB3R
2021-11-28 20:25:30 TV-SD-FR New.Amsterdam.2018.S03E06.FRENCH.WEB.H264-AMB3R
2021-11-28 20:26:05 MP3 Sunnery_James_and_Ryan_Marciano_-_In_The_Mix-CABLE-11-28-2021-TALiON
2021-11-28 20:27:05 MP3 Adam_K_-_Tomorrowland_One_World_Radio-CABLE-11-28-2021-TALiON
2021-11-28 20:28:04 MP3 Afrojack_-_Jacked_Radio_527-CABLE-11-28-2021-TALiON
2021-11-28 20:29:02 MP3 Christopher_von_Deylen--Colors-WEB-2020-OMA
2021-11-28 20:29:05 MP3 Dennis_Verheugd_-_Powermix_(Radio10)-CABLE-11-28-2021-TALiON
2021-11-28 20:29:11 TV-X264 Wentworth.S09E01.1080p.BluRay.x264-CARVED
2021-11-28 20:30:04 MP3 Ben_Liebrand_-_In_The_Mix_(Radio10)-CABLE-11-27-2021-TALiON
2021-11-28 20:30:21 TV-HD-NORD Hellenius.Horna.S13E09.SWEDiSH.720p.WEB.h264-NORUSH
2021-11-28 20:30:42 TV-X264 Wentworth.S09E02.1080p.BluRay.x264-CARVED
2021-11-28 20:31:04 MP3 Eelke_Kleijn_-_The_Boom_Room_387-CABLE-11-27-2021-TALiON
2021-11-28 20:31:17 TV-HD-NORD Hellenius.Horna.S13E09.SWEDiSH.1080p.WEB.h264-NORUSH
2021-11-28 20:32:05 MP3 Ivo_van_Breukelen_-_Dance_Department_(Radio538)-CABLE-11-27-2021-TALiON
2021-11-28 20:32:30 TV-X264 Wentworth.S09E03.1080p.BluRay.x264-CARVED
2021-11-28 20:33:06 MP3 Hugel_-_Dance_Department_(Radio538)-CABLE-11-27-2021-TALiON
2021-11-28 20:34:05 MP3 Lucas_and_Steve_-_Skyline_Sessions_256-CABLE-11-28-2021-TALiON
2021-11-28 20:34:07 TV-X264 Wentworth.S09E04.1080p.BluRay.x264-CARVED
2021-11-28 20:35:04 MP3 The_Partysquad_-_Palooza_(FunX)-CABLE-11-27-2021-TALiON
2021-11-28 20:35:42 TV-X264 911.Crisis.Center.S01E07.1080p.WEB.h264-BAE
2021-11-28 20:35:45 TV-X264 Wentworth.S09E05.1080p.BluRay.x264-CARVED
2021-11-28 20:35:56 TV-X264 911.Crisis.Center.S01E07.720p.WEB.h264-BAE
2021-11-28 20:36:04 MP3 D-Train_-_Fissa_(FunX)-CABLE-11-27-2021-TALiON
2021-11-28 20:36:12 TV-X264 911.Crisis.Center.S01E08.1080p.WEB.h264-BAE
2021-11-28 20:36:13 TV-X264 Wentworth.S09E06.1080p.BluRay.x264-CARVED
2021-11-28 20:36:27 TV-X264 911.Crisis.Center.S01E08.720p.WEB.h264-BAE
2021-11-28 20:36:42 TV-X264 Cold.Justice.S06E08.1080p.WEB.h264-BAE
2021-11-28 20:36:56 TV-X264 Cold.Justice.S06E08.720p.WEB.h264-BAE
2021-11-28 20:37:04 MP3 Above_and_Beyond_-_Trancegiving-SAT-11-24-2021-TALiON
2021-11-28 20:37:06 TV-X264 Wentworth.S09E07.1080p.BluRay.x264-CARVED
2021-11-28 20:37:13 TV-X264 Dirty.Little.Deeds.2021.720p.WEB.h264-BAE
2021-11-28 20:37:26 TV-X264 Merry.Liddle.Christmas.Baby.2021.720p.WEB.h264-BAE
2021-11-28 20:37:31 TV-X264 Wentworth.S09E08.1080p.BluRay.x264-CARVED
2021-11-28 20:37:43 TV-X264 Reba.McEntires.Christmas.in.Tune.2021.720p.WEB.h264-BAE
2021-11-28 20:38:00 TV-X264 Sinister.Switch.2021.720p.WEB.h264-BAE
2021-11-28 20:38:04 MP3 GVN_-_Trancegiving-SAT-11-24-2021-TALiON
2021-11-28 20:38:28 TV-X264 Wentworth.S09E09.1080p.BluRay.x264-CARVED
2021-11-28 20:39:04 MP3 HALIENE_-_Trancegiving-SAT-11-24-2021-TALiON
2021-11-28 20:39:44 TV-X264 Wentworth.S09E10.1080p.BluRay.x264-CARVED
2021-11-28 20:40:05 MP3 Genix_-_Trancegiving__Live_from_Group_Therapy_450_(London)-SAT-11-24-2021-TALiON
2021-11-28 20:41:03 MP3 Andrew_Rayel_-_Trancegiving-SAT-11-24-2021-TALiON
2021-11-28 20:41:05 TV-X264 Wentworth.S09E01.720p.BluRay.x264-CARVED
2021-11-28 20:42:02 TV-HD-NORD 71.Grader.Nord.Kjendis.S13E21.NORWEGiAN.720p.WEB.h264-BAKFYLLA
2021-11-28 20:42:03 MP3 Armin_van_Buuren_-_Trancegiving-SAT-11-25-2021-TALiON
2021-11-28 20:43:05 MP3 ATB_-_Trancegiving-SAT-11-25-2021-TALiON
2021-11-28 20:43:07 TV-X264 Wentworth.S09E02.720p.BluRay.x264-CARVED
2021-11-28 20:43:10 TV-X264 Wentworth.S09E03.720p.BluRay.x264-CARVED
2021-11-28 20:44:03 MP3 Ryan_Farish_-_Trancegiving-SAT-11-25-2021-TALiON
2021-11-28 20:44:17 TV-HD-NORD 71.Grader.Nord.Kjendis.S13E21.NORWEGiAN.1080p.WEB.h264-BAKFYLLA
2021-11-28 20:44:31 TV-X264 Wentworth.S09E04.720p.BluRay.x264-CARVED
2021-11-28 20:45:03 TV-X264 Wentworth.S09E05.720p.BluRay.x264-CARVED
2021-11-28 20:45:05 MP3 Ferry_Corsten_-_Trancegiving-SAT-11-25-2021-TALiON
2021-11-28 20:46:04 MP3 Cosmic_Gate_-_Trancegiving-SAT-11-25-2021-TALiON
2021-11-28 20:46:08 TV-X264 Wentworth.S09E06.720p.BluRay.x264-CARVED
2021-11-28 20:47:03 MP3 Maor_Levi_-_Trancegiving-SAT-11-26-2021-TALiON
2021-11-28 20:47:19 TV-HD-NORD Farmen.S17E40.NORWEGiAN.720p.WEB.h264-BAKFYLLA
2021-11-28 20:47:39 TV-X264 Wentworth.S09E07.720p.BluRay.x264-CARVED
2021-11-28 20:47:42 TV-X264 Wentworth.S09E08.720p.BluRay.x264-CARVED
2021-11-28 20:47:44 TV-X264 Wentworth.S09E09.720p.BluRay.x264-CARVED
2021-11-28 20:47:48 TV-X264 Wentworth.S09E10.720p.BluRay.x264-CARVED
2021-11-28 20:48:04 MP3 Craig_Connelly_-_Trancegiving-SAT-11-26-2021-TALiON
2021-11-28 20:49:03 MP3 David_Forbes_-_Trancegiving-SAT-11-26-2021-TALiON
2021-11-28 20:49:11 TV-SDRIP Wentworth.S09E01.BDRip.x264-CARVED
2021-11-28 20:49:17 TV-SDRIP Wentworth.S09E02.BDRip.x264-CARVED
2021-11-28 20:49:18 TV-SDRIP Wentworth.S09E03.BDRip.x264-CARVED
2021-11-28 20:49:23 TV-SDRIP Wentworth.S09E04.BDRip.x264-CARVED
2021-11-28 20:50:04 MP3 ReOrder_-_Trancegiving-SAT-11-26-2021-TALiON
2021-11-28 20:50:49 TV-HD-FR Mieruko-chan.E09.SUBFRENCH.1080p.WEB.H264-AMB3R
2021-11-28 20:51:04 MP3 KhoMha_-_Trancegiving-SAT-11-26-2021-TALiON
2021-11-28 20:51:18 TV-SDRIP Wentworth.S09E05.BDRip.x264-CARVED
2021-11-28 20:51:22 TV-SDRIP Wentworth.S09E06.BDRip.x264-CARVED
2021-11-28 20:51:25 TV-SDRIP Wentworth.S09E07.BDRip.x264-CARVED
2021-11-28 20:51:34 TV-SDRIP Wentworth.S09E08.BDRip.x264-CARVED
2021-11-28 20:51:36 TV-SDRIP Wentworth.S09E09.BDRip.x264-CARVED
2021-11-28 20:51:38 TV-SDRIP Wentworth.S09E10.BDRip.x264-CARVED
2021-11-28 20:52:04 MP3 Chris_Schweizer_-_Trancegiving-SAT-11-26-2021-TALiON
2021-11-28 20:53:04 MP3 Farius_-_Trancegiving-SAT-11-26-2021-TALiON
2021-11-28 20:53:41 TV-X264 Doctor.Who.2005.S13E05.720p.HDTV.x264-UKTV
2021-11-28 20:54:04 MP3 Ruben_de_Ronde_-_Trancegiving-SAT-11-26-2021-TALiON
2021-11-28 20:54:36 BLURAY-FULL Wentworth.S09D01.COMPLETE.BLURAY-WARLOCK
2021-11-28 20:55:04 MP3 Mark_Sixma_-_Trancegiving-SAT-11-26-2021-TALiON
2021-11-28 20:55:36 BLURAY-FULL Wentworth.S09D02.COMPLETE.BLURAY-WARLOCK
2021-11-28 20:56:05 MP3 Gotta_Viani_-_Trancegiving-SAT-11-27-2021-TALiON
2021-11-28 20:57:08 MP3 Cubicore_-_Trancegiving-SAT-11-27-2021-TALiON
2021-11-28 20:58:06 MP3 Conjure_One_-_Trancegiving-SAT-11-27-2021-TALiON
2021-11-28 20:59:05 MP3 Rubik_-_Trancegiving-SAT-11-27-2021-TALiON
2021-11-28 21:00:06 MP3 Maarten_de_Jong_-_Trancegiving-SAT-11-27-2021-TALiON
2021-11-28 21:01:03 MP3 The_Space_Brothers_-_Trancegiving-SAT-11-27-2021-TALiON
2021-11-28 21:02:06 MP3 Taylor_Torrence_-_Trancegiving-SAT-11-27-2021-TALiON
2021-11-28 21:02:19 TV-HD-FR New.Amsterdam.2018.S03E07.FRENCH.720p.WEB.H264-FREAMON
2021-11-28 21:02:47 TV-SD-FR New.Amsterdam.2018.S03E07.FRENCH.WEB.H264-FREAMON
2021-11-28 21:04:19 XXX EvilAngel.21.11.19.Misha.Maver.Double.Penetration.Devil.XXX.2160p.MP4-GAYME
2021-11-28 21:05:28 TV-HD Rose.Plays.Julie.2019.1080p.BluRay.x264-SCARE
2021-11-28 21:07:09 TV-X264 Rose.Plays.Julie.2019.720p.BluRay.x264-SCARE
2021-11-28 21:07:36 TV-X264 Doctor.Who.2005.S13E05.1080p.HDTV.H264-UKTV
2021-11-28 21:08:40 X264-SD Rose.Plays.Julie.2019.BDRip.x264-SCARE
2021-11-28 21:09:23 XXX EvilAngel.21.11.17.Eden.Ivy.Double.Penetration.Threesome.XXX.2160p.MP4-GAYME
2021-11-28 21:12:36 XXX EvilAngel.21.11.15.Sasha.Beart.Anal.Threesome.XXX.2160p.MP4-GAYME
2021-11-28 21:12:40 BLURAY-FULL Rose.Plays.Julie.2019.COMPLETE.BLURAY-INCUBO
2021-11-28 21:15:42 MP3 Fito_Paez-Los_Anos_Salvajes-ES-WEB-2021-RUIDO
2021-11-28 21:16:52 FLAC Fito_Paez-Los_Anos_Salvajes-ES-24BIT-WEBFLAC-2021-RUIDOS
2021-11-28 21:17:48 TV-HD American.Outlaws.2001.1080p.BluRay.x264-YAMG
2021-11-28 21:18:08 TV-HD Betty.Anne.Waters.2010.German.DL.1080p.BluRay.x264.iNTERNAL-FiSSiON
2021-11-28 21:18:31 TV-HD-DE Flipping.in.Idaho.S01E01.Der.Luke.Faktor.German.DOKU.1080p.WEB.x264-ATAX
2021-11-28 21:19:52 MP3 The_Tea_Party-Blood_Moon_Rising_(Bonus_Track_Edition)-WEB-2021-RUIDO
2021-11-28 21:20:23 FLAC The_Tea_Party-Blood_Moon_Rising_(Bonus_Track_Edition)-24BIT-WEBFLAC-2021-RUIDOS
2021-11-28 21:20:46 MP3 Bodikela_Lounge--Early_Morning_Breaks_(Planet_Radio)-DVBS-11-21-2021-OMA
2021-11-28 21:21:53 TV-X264 American.Outlaws.2001.720p.BluRay.x264-YAMG
2021-11-28 21:22:14 MP3 Vetusta_Morla-Cable_A_Tierra-ES-WEB-2021-RUIDO
2021-11-28 21:22:47 FLAC Vetusta_Morla-Cable_A_Tierra-ES-24BIT-WEBFLAC-2021-RUIDOS
2021-11-28 21:22:58 X264-SD American.Outlaws.2001.iNTERNAL.BDRip.x264-YAMG
2021-11-28 21:23:50 MP3 Lost_in_Music--Early_Morning_Breaks_(Planet_Radio)-DVBS-11-21-2021-OMA
2021-11-28 21:24:41 TV-DVDR Snowpiercer.2020.S02D1.NTSC.DVDR-ToF
2021-11-28 21:26:13 MP3 Copywrite-Its_A_XXX_Mess-EP-WEB-2021-UVU
2021-11-28 21:27:19 MP3 Fille_Danza-Felipe-WEB-SE-2021-UVU
2021-11-28 21:27:45 BLURAY-FULL American.Outlaws.2001.COMPLETE.BLURAY-YAMG
2021-11-28 21:27:54 TV-HD-DE Flipping.in.Idaho.S01E01.Der.Luke.Faktor.German.DOKU.720p.WEB.x264-ATAX
2021-11-28 21:28:26 MP3 Guilty_Simpson_and_Conway_The_Machine-Vega_Brothers-Single-WEB-2021-UVU
2021-11-28 21:29:34 MP3 Hus_Kingpin-The_Bolio_Remixes-WEB-2021-UVU
2021-11-28 21:30:23 TV-SD-DE Flipping.in.Idaho.S01E01.Der.Luke.Faktor.German.DOKU.WebRip.x264-ATAX
2021-11-28 21:30:41 MP3 Mic_Logik-As_I_Was_Saying-WEB-2021-UVU
2021-11-28 21:30:46 TV-X264 Maskorama.S02E04.NORWEGiAN.720p.HDTV.x264-NORPiLT
2021-11-28 21:31:08 TV-HD All.or.Nothing.2002.1080p.BluRay.x264-GAZER
2021-11-28 21:31:48 MP3 Mil_Beats-If_Only-EP-WEB-2021-UVU
2021-11-28 21:32:57 MP3 Roccwell-Pastime-EP-WEB-2021-UVU
2021-11-28 21:34:00 TV-X264 All.or.Nothing.2002.720p.BluRay.x264-GAZER
2021-11-28 21:34:03 MP3 Your_Old_Droog-Space_Bar-WEB-2021-UVU
2021-11-28 21:34:40 TV-DVDR Snowpiercer.2020.S02D2.NTSC.DVDR-ToF
2021-11-28 21:34:40 X264-SD All.or.Nothing.2002.RESTORED.BDRip.x264-GAZER
2021-11-28 21:36:59 TV-SD Total.Control.S02E04.HDTV.x264-FQM
2021-11-28 21:37:02 TV-HD-DE Flipping.in.Idaho.S01E02.Das.haessliche.Entlein.German.DOKU.1080p.WEB.x264-ATAX
2021-11-28 21:37:07 TV-X264 Total.Control.S02E04.720p.HDTV.x264-ORENJI
2021-11-28 21:38:36 TV-HD Balloon.2019.1080p.BluRay.x264-YAMG
2021-11-28 21:41:43 TV-HD Gluecklich.vereint.1997.German.1080p.BluRay.x264-SAVASTANOS
2021-11-28 21:42:20 TV-X264 Gluecklich.vereint.1997.German.720p.BluRay.x264-SAVASTANOS
2021-11-28 21:42:50 X264-HD-DE Gluecklich.vereint.1997.German.DL.1080p.BluRay.AVC-SAVASTANOS
2021-11-28 21:42:53 TV-HD-DE Flipping.in.Idaho.S01E02.Das.haessliche.Entlein.German.DOKU.720p.WEB.x264-ATAX
2021-11-28 21:43:16 X264-SD-DE Gluecklich.vereint.German.1997.REMASTERED.AC3.BDRiP.x264-SAVASTANOS
2021-11-28 21:43:45 BLURAY-FULL Happy.Together.1997.MULTi.COMPLETE.BLURAY-SAVASTANOS
2021-11-28 21:44:04 BLURAY-FULL All.or.Nothing.2002.COMPLETE.BLURAY-INCUBO
2021-11-28 21:44:43 TV-DVDR Snowpiercer.2020.S02D3.NTSC.DVDR-ToF
2021-11-28 21:44:55 TV-HD-FR Mushoku.Tensei.Isekai.Ittara.Honki.Dasu.Part.2.E09.SUBFRENCH.1080p.WEB.H264-AMB3R
2021-11-28 21:45:21 TV-HD-FR Mushoku.Tensei.Isekai.Ittara.Honki.Dasu.Part.2.E07.CUSTOM.MULTI.1080p.WEB.H264-AMB3R
2021-11-28 21:45:44 MP3 Add_N_To_X--On_The_Wires_Of_Our_Nerves-(SJR470D)-WEB-2021-OMA
2021-11-28 21:45:44 TV-X264 Balloon.2019.720p.BluRay.x264-YAMG
2021-11-28 21:48:35 TV-HD-FR New.Amsterdam.2018.S03E08.FRENCH.720p.WEB.H264-FREAMON
2021-11-28 21:49:06 MP3 Breathe_Panel--Lets_It_In-(FAT164D)-WEB-2021-OMA
2021-11-28 21:50:02 TV-SD-DE Flipping.in.Idaho.S01E02.Das.haessliche.Entlein.German.DOKU.WebRip.x264-ATAX
2021-11-28 21:50:32 X264-SD Balloon.2019.BDRip.x264-YAMG
2021-11-28 21:51:21 BLURAY-FULL Balloon.2019.COMPLETE.BLURAY-YAMG
2021-11-28 21:52:01 TV-X264 Tatort.E1180.Masken.GERMAN.720p.HDTV.x264-ACED
2021-11-28 21:54:50 TV-HD-DE Flipping.in.Idaho.S01E03.Ein.Traum.aus.Glas.German.DOKU.1080p.WEB.h264-ATAX
2021-11-28 21:55:37 MP3 Diego_Negretti-Alternate_Reality-(IAMT283)-WEB-2021-wAx
2021-11-28 21:55:45 TV-SD Tatort.E1180.Masken.GERMAN.HDTV.x264-ACED
2021-11-28 21:56:00 MP3 Christian_McBride--Live_at_the_Village_Vanguard-WEB-2021-OMA
2021-11-28 21:56:09 TV-X264 Norges.Nye.Megahit.S01E03E04.NORWEGiAN.720p.HDTV.x264-NORPiLT
2021-11-28 21:57:53 TV-HD Battle.in.Outer.Space.1959.REAL.1080p.BluRay.x264-YAMG
2021-11-28 21:58:10 MP3 Caitlin_Rose--Own_Side_Now_(Deluxe_Anniversary_Edition)-(ATO0570LP)-WEB-2021-OMA
2021-11-28 21:58:22 TV-HD-DE Flipping.in.Idaho.S01E03.Ein.Traum.aus.Glas.German.DOKU.720p.WEB.h264-ATAX
2021-11-28 21:59:36 MP3 Color_Dolor-Blurry_Things-WEB-2021-MARR
2021-11-28 22:00:36 MP3 Smith_Kotzen-Better_Days-EP-WEB-2021-MARR
2021-11-28 22:00:57 TV-X264 Looking.For.Sultan.2017.1080p.HDTV.H264-CBFM
2021-11-28 22:00:59 TV-SD-DE Flipping.in.Idaho.S01E03.Ein.Traum.aus.Glas.German.DOKU.WebRip.x264-ATAX
2021-11-28 22:01:06 TV-X264 Looking.For.Sultan.2017.720p.HDTV.x264-CBFM
2021-11-28 22:01:26 TV-X264 Gyamo.Queen.Of.The.Mountains.2017.1080p.HDTV.H264-CBFM
2021-11-28 22:01:40 FLAC VA-Now_Thats_What_I_Call_Music_80-CD-FLAC-2021-FATHEAD
2021-11-28 22:04:43 TV-HD-FR Tsuki.to.Laika.to.Nosferatu.E09.SUBFRENCH.1080p.WEB.H264-AMB3R
2021-11-28 22:04:56 MP3 Craig_Charles--BBC_Radio_6_Funk_and_Soul_Show-DVBS-11-27-2021-OMA
2021-11-28 22:05:33 MP3 VA-Now_Thats_What_I_Call_Music_80-CD-2021-FATHEAD
2021-11-28 22:06:04 TV-X264 Battle.in.Outer.Space.1959.REAL.720p.BluRay.x264-YAMG
2021-11-28 22:07:14 MP3 Ross_From_Friends-Tread-BFCD113-Retail-CD-2021-BFHMP3
2021-11-28 22:07:26 MP3 Will_Long-Long_Trax_Eps_And_Singles_Vol._1-CD-2021-BFHMP3
2021-11-28 22:07:26 MP3 David_Bowie--Black_Tie_White_Noise_(2021_Remaster)-WEB-2021-OMA
2021-11-28 22:08:04 TV-HD-DE Flipping.in.Idaho.S01E04.Wer.wagt.gewinnt.German.DOKU.1080p.WEB.h264-ATAX
2021-11-28 22:08:52 MP3 Deadmau5--Hyperlandia_Feat._Foster_The_People-WEB-2021-OMA
2021-11-28 22:10:00 MP3 Ebi_Soda--Yoshi_Orange-SiNGLE-WEB-2021-OMA
2021-11-28 22:10:49 X264-SD Battle.in.Outer.Space.1959.READNFO.BDRip.x264-YAMG
2021-11-28 22:11:08 MP3 Ocboyblau_und_Kilian437-OSS-SINGLE-WEB-DE-2021-wAx
2021-11-28 22:11:15 MP3 Joey99_x_Kilian437-Kalt_Trist-SINGLE-WEB-DE-2021-wAx_iNT
2021-11-28 22:11:30 TV-HD-DE Flipping.in.Idaho.S01E04.Wer.wagt.gewinnt.German.DOKU.720p.WEB.h264-ATAX
2021-11-28 22:12:06 BLURAY-FULL Battle.in.Outer.Space.1959.COMPLETE.BLURAY-YAMG
2021-11-28 22:12:11 MP3 Culcha_Candela--Top_Ten-DE-2021-OMA
2021-11-28 22:14:01 TV-SD-DE Flipping.in.Idaho.S01E04.Wer.wagt.gewinnt.German.DOKU.WebRip.x264-ATAX
2021-11-28 22:14:13 TV-X264 Top.Gear.S31E03.1080p.WEB.H264-WHOSNEXT
2021-11-28 22:14:26 MP3 VA-Cafe_Kitsune_Mix_by_Lazywax-(KMC080)-WEB-2021-OMA
2021-11-28 22:15:16 TV-X264 Top.Gear.S31E03.720p.WEB.H264-WHOSNEXT
2021-11-28 22:16:26 TV-SD-FR New.Amsterdam.2018.S03E08.FRENCH.WEB.H264-FREAMON
2021-11-28 22:17:59 MP3 Emile_Londonien--SxB_EP-WEB-2021-OMA
2021-11-28 22:19:23 XXX DevilsTGirls.13.06.10.Jenna.Belle.Transsexual.Cheerleaders.13.XXX.1080p.MP4-Narcos
2021-11-28 22:19:37 MP3 Ethan_P._Flynn--The_Universal_Deluge-(YO270DS)-SiNGLE-WEB-2021-OMA
2021-11-28 22:19:41 TV-HD Bring.Me.Home.2019.PROPER.1080p.BluRay.x264-YAMG
2021-11-28 22:21:24 XXX DevilsTGirls.13.06.17.Penny.Tyler.Transsexual.Cheerleaders.13.XXX.1080p.MP4-Narcos
2021-11-28 22:21:33 MP3 Btaka-The_Native_Hustle_Vol._2-WEB-2014-RAGEMP3
2021-11-28 22:21:41 MP3 Btaka-The_Native_Hustle-WEB-2008-RAGEMP3
2021-11-28 22:21:54 MP3 Red_Haze-The_Lost_Chapter-WEB-2017-RAGEMP3
2021-11-28 22:22:04 MP3 Shadow_Warriors-Shadow_Of_A_Warrior-WEB-2009-RAGEMP3
2021-11-28 22:22:10 TV-X264 Bring.Me.Home.2019.PROPER.720p.BluRay.x264-YAMG
2021-11-28 22:22:24 MP3 Underground_Nativez-Da_Gathering-WEB-2004-RAGEMP3
2021-11-28 22:23:20 TV-HD-DE Flipping.in.Idaho.S01E05.Das.Monsterprojekt.German.DOKU.1080p.WEB.x264-ATAX
2021-11-28 22:23:26 XXX DevilsTGirls.13.06.24.Dahlia.Diamond.Transsexual.Cheerleaders.13.XXX.1080p.MP4-Narcos
2021-11-28 22:24:14 X264-SD Bring.Me.Home.2019.iNTERNAL.BDRip.x264-YAMG
2021-11-28 22:24:19 MP3 Faddict-Resilience_(Incl_Ana_Zerakiel_Remix)-(MIB026)-WEB-2021-wAx
2021-11-28 22:25:25 MP3 Bound_To_Divide-Coming_Home__Requiem-(ENCOLOR313)-WEB-2021-AOV
2021-11-28 22:25:26 XXX DevilsTGirls.13.07.01.Khloe.Hart.Transsexual.Cheerleaders.13.XXX.1080p.MP4-Narcos
2021-11-28 22:27:28 XXX DevilsTGirls.13.07.08.Jenna.Belle.Transsexual.Prostitutes.74.XXX.1080p.MP4-Narcos
2021-11-28 22:27:28 TV-HD-DE Flipping.in.Idaho.S01E05.Das.Monsterprojekt.German.DOKU.720p.WEB.x264-ATAX
2021-11-28 22:28:07 MP3 Andy_Roo-Sun_Goes_Down-SINGLE-WEB-2021-PWT
2021-11-28 22:28:19 MP3 Contribe-Gravity_High-SINGLE-WEB-2021-PWT
2021-11-28 22:28:22 MP3 Contribe-Gravity_High_(96_Vibe_Remix)-SINGLE-WEB-2021-PWT_INT
2021-11-28 22:28:25 MP3 Ferrer-All_Night-SINGLE-WEB-2021-PWT
2021-11-28 22:28:28 MP3 Latour-Thats_What-WEB-2021-PWT_INT
2021-11-28 22:28:31 MP3 Purofuego-Fuego_Please-WEB-2021-PWT
2021-11-28 22:28:34 MP3 The_Schmidt_And_Evening_People-Elevation_EP-WEB-2021-PWT_INT
2021-11-28 22:28:37 MP3 VA-Dimes_Vol.1-WEB-2021-PWT
2021-11-28 22:28:53 TV-SD-DE Flipping.in.Idaho.S01E05.Das.Monsterprojekt.German.DOKU.WebRip.x264-ATAX
2021-11-28 22:29:31 XXX DevilsTGirls.13.07.15.Natalie.Foxx.Transsexual.Prostitutes.74.XXX.1080p.MP4-Narcos
2021-11-28 22:30:17 MP3 Good_Morning--Barnyard-(PRC9581)-WEB-2021-OMA
2021-11-28 22:30:44 TV-HD Caveman.1981.iNTERNAL.1080p.BluRay.x264-YAMG
2021-11-28 22:31:33 XXX DevilsTGirls.13.07.22.Kitty.K.Transsexual.Prostitutes.74.XXX.1080p.MP4-Narcos
2021-11-28 22:33:09 MP3 Invadia-Bleeding_Emotions-RR415-WEB-2021-WAV
2021-11-28 22:33:33 XXX DevilsTGirls.13.07.29.Eva.Lin.Transsexual.Prostitutes.74.XXX.1080p.MP4-Narcos
2021-11-28 22:34:09 MP3 Jeremy_Wahab-Combustion-SA130-WEB-2021-WAV
2021-11-28 22:34:16 TV-HD-DE Flipping.in.Idaho.S01E06.Farmhaus.mit.Pferdetrog.German.DOKU.1080p.WEB.x264-ATAX
2021-11-28 22:34:18 TV-X264 Caveman.1981.iNTERNAL.720p.BluRay.x264-YAMG
2021-11-28 22:35:10 MP3 Melvin_Spix-Control-RR413-WEB-2021-WAV
2021-11-28 22:35:37 XXX JAVHub.21.03.04.Miyu.Shiina.Shy.Japanese.Cutie.Gangbanged.By.The.Art.Class.JAPANESE.XXX.1080p.MP4-Narcos
2021-11-28 22:35:51 TV-HD-FR New.Amsterdam.2018.S03E09.FRENCH.720p.WEB.H264-FREAMON
2021-11-28 22:35:58 TV-X264 Secrets.Of.The.Lost.Ark.S01E05.1080p.HDTV.H264-CBFM
2021-11-28 22:36:03 TV-X264 Secrets.Of.The.Lost.Ark.S01E05.720p.HDTV.x264-CBFM
2021-11-28 22:36:12 MP3 Minstrel-Chosenness-EFM044-WEB-2021-WAV
2021-11-28 22:36:22 TV-SD-FR New.Amsterdam.2018.S03E09.FRENCH.WEB.H264-FREAMON
2021-11-28 22:37:12 MP3 Oscar_Escapa-Morse-CODEX140-WEB-2021-WAV
2021-11-28 22:37:37 XXX JAVHub.21.03.11.Reiko.Kobayakawa.Will.Do.Anything.For.A.Raise.JAPANESE.XXX.1080p.MP4-Narcos
2021-11-28 22:38:15 MP3 Phaelon-Lost_In_Music-RR414-WEB-2021-WAV
2021-11-28 22:38:44 TV-HD-DE Flipping.in.Idaho.S01E06.Farmhaus.mit.Pferdetrog.German.DOKU.720p.WEB.x264-ATAX
2021-11-28 22:39:15 MP3 Torsten_Kanzler-Dark_Shadow-CODEX139-WEB-2021-WAV
2021-11-28 22:39:38 XXX JAVHub.21.03.18.Satomi.Suzuki.Busty.Satomi.Suzuki.Fucks.Five.Of.Her.Coworkers.JAPANESE.XXX.1080p.MP4-Narcos
2021-11-28 22:40:05 MP3 Hot_Garbage--RIDE-(MOTH013)-WEB-2021-OMA
2021-11-28 22:41:37 TV-SD-DE Flipping.in.Idaho.S01E06.Farmhaus.mit.Pferdetrog.German.DOKU.WebRip.x264-ATAX
2021-11-28 22:41:42 XXX JAVHub.21.03.25.Haruna.Ueda.Gets.Fucked.Hard.By.Her.Boyfriend.JAPANESE.XXX.1080p.MP4-Narcos
2021-11-28 22:42:30 BLURAY-FULL Caveman.1981.COMPLETE.BLURAY-YAMG
2021-11-28 22:42:35 TV-HD-DE Tschugger.S01E01.GERMAN.DL.1080p.WEB.h264-FENDT
2021-11-28 22:42:41 MP3 Julie_Doiron--I_Thought_Of_You-(LPYC052)-WEB-2021-OMA
2021-11-28 22:44:07 MP3 Neil_Young--Heading_West-SiNGLE-WEB-2021-OMA
2021-11-28 22:45:25 MP3 Roland_Wrightangle--In_Your_Blood-(ZEDD12319)-WEB-2021-OMA
2021-11-28 22:48:31 MP3 The_Courettes--Here_Are_The_Courettes-REiSSUE-WEB-2020-OMA
2021-11-28 22:48:31 TV-HD-DE Flipping.in.Idaho.S01E07.Luke.im.Glueck.German.DOKU.1080p.WEB.x264-ATAX
2021-11-28 22:52:12 TV-HD-DE Flipping.in.Idaho.S01E07.Luke.im.Glueck.German.DOKU.720p.WEB.x264-ATAX
2021-11-28 22:53:58 TV-HD Detective.Chinatown.3.2021.1080p.BluRay.x264-YAMG
2021-11-28 22:54:20 MP3 The_Fall--Are_You_Are_Missing_Winner_(Deluxe_Edition)-WEB-2019-OMA
2021-11-28 22:54:34 FLAC VA-Bolero_Mix_13_Mixed_By_Jordi_Luque_And_Quim_Quer-2CD-FLAC-1996-D2H
2021-11-28 22:54:36 TV-SD-DE Flipping.in.Idaho.S01E07.Luke.im.Glueck.German.DOKU.WebRip.x264-ATAX
2021-11-28 22:55:18 MP3 Yaya_Bey--Made_This_On_The_Spot_Feat._V.C.R-(BDDNL303)-SiNGLE-WEB-2021-OMA
2021-11-28 22:56:06 MP3 Jeff_Ozmits-Stride__Sensory_Deprivation-(ENPROG460)-WEB-2021-AOV
2021-11-28 22:57:26 MP3 York_And_AuRa-Golden_Hour-(ENHANCED505)-WEB-2021-AOV
2021-11-28 22:58:19 MP3 Solr-Love_In_My_Soul-(ENHANCED510)-WEB-2021-AOV
2021-11-28 22:59:01 MP3 Corey_James-Sirens_Calling-(ENHANCED511)-WEB-2021-AOV
2021-11-28 22:59:23 TV-HD-DE Flipping.in.Idaho.S02E01.Ein.Haus.der.Extraklasse.German.DOKU.1080p.WEB.x264-ATAX
2021-11-28 22:59:28 TV-X264 The.Mating.Game.S01E01.720p.BluRay.x264-TINDER
2021-11-28 22:59:57 TV-X264 Detective.Chinatown.3.2021.720p.BluRay.x264-YAMG
2021-11-28 23:00:26 TV-X264 Showtrial.S01E05.720p.HDTV.x264-ORGANiC
2021-11-28 23:01:30 TV-X264 The.Mating.Game.S01E02.720p.BluRay.x264-TINDER
2021-11-28 23:02:59 TV-X264 Showtrial.S01E05.1080p.HDTV.H264-ORGANiC
2021-11-28 23:03:31 TV-X264 The.Mating.Game.S01E03.720p.BluRay.x264-TINDER
2021-11-28 23:05:33 TV-X264 The.Mating.Game.S01E04.720p.BluRay.x264-TINDER
2021-11-28 23:06:24 MP3 VA-71._Hart_An_Der_Grenze-DE-DVBS-10-09-2021-OMA
2021-11-28 23:06:37 X264-SD Detective.Chinatown.3.2021.BDRip.x264-YAMG
2021-11-28 23:07:35 TV-X264 The.Mating.Game.S01E05.720p.BluRay.x264-TINDER
2021-11-28 23:08:38 MP3 Laura_Van_Dam-Neon_Soul_(Extended_Mix)-(DOORN406)-SINGLE-WEB-2021-AOV
2021-11-28 23:08:51 MP3 Tayc_(Marcus)-Ma_Star_(Bande_Originale_De_La_Serie_Christmas_Flow)-OST-WEB-FR-2021-OND
2021-11-28 23:09:13 MP3 Futuristic_Polar_Bears_And_Faderx-By_My_Side_(Extended_Mix)-(DOORN407)-SINGLE-WEB-2021-AOV
2021-11-28 23:09:38 TV-X264 The.Mating.Game.S01E01.1080p.BluRay.x264-TINDER
2021-11-28 23:09:45 MP3 Thomas_Feelman_And_Deagon-Evolution_(Extended_Mix)-(DOORN408)-SINGLE-WEB-2021-AOV
2021-11-28 23:10:29 BLURAY-FULL Detective.Chinatown.3.2021.COMPLETE.BLURAY-YAMG
2021-11-28 23:11:41 TV-X264 The.Mating.Game.S01E02.1080p.BluRay.x264-TINDER
2021-11-28 23:13:42 TV-X264 The.Mating.Game.S01E03.1080p.BluRay.x264-TINDER
2021-11-28 23:14:02 TV-HD Feast.of.the.Seven.Fishes.2019.1080p.BluRay.x264-YAMG
2021-11-28 23:15:51 TV-X264 The.Mating.Game.S01E04.1080p.BluRay.x264-TINDER
2021-11-28 23:17:51 TV-X264 The.Mating.Game.S01E05.1080p.BluRay.x264-TINDER
2021-11-28 23:21:38 TV-X264 Feast.of.the.Seven.Fishes.2019.720p.BluRay.x264-YAMG
2021-11-28 23:24:51 X264-SD Feast.of.the.Seven.Fishes.2019.BDRip.x264-YAMG
2021-11-28 23:24:55 MP3 Andreas_Kraemer_And_Shadym-Tobsucht_EP-HYDRO121-WEB-2021-WAV
2021-11-28 23:25:28 TV-X264 71.Grader.Nord.Kjendis.S13E21.NORWEGiAN.720p.HDTV.x264-NORPiLT
2021-11-28 23:26:02 MP3 BFVR-Birds_Mansion-FR028-WEB-2021-WAV
2021-11-28 23:27:02 TV-X264 The.Kingdom.of.the.Stump-Tailed.Macaques.2020.1080p.HDTV.H264-CBFM
2021-11-28 23:27:02 MP3 Steffen_Baumann-Sixty_Sessions-(SSL)-DVBS-11-28-2021-TDMLiVE
2021-11-28 23:27:10 MP3 Black_Lotus-Age_Of_Pisces-IAR296-WEB-2021-WAV
2021-11-28 23:27:11 TV-X264 The.Kingdom.of.the.Stump-Tailed.Macaques.2020.720p.HDTV.x264-CBFM
2021-11-28 23:29:34 MP3 Kassey_Voorn-Party_Bots-SB206-WEB-2021-WAV
2021-11-28 23:30:09 TV-SDRIP The.Mating.Game.S01E01.BDRip.x264-TINDER
2021-11-28 23:30:20 BLURAY-FULL Feast.of.the.Seven.Fishes.2019.COMPLETE.BLURAY-YAMG
2021-11-28 23:30:21 MP3 Ikke_Hueftgold_-_Lustige_Weihnachten_(Klassikalbum)-WEB-DE-2021-JUSTiFY_iNT
2021-11-28 23:30:40 COVERS Mikel_Gil-Discover-DMR179-WEB-2021-WAV
2021-11-28 23:30:42 TV-SDRIP The.Mating.Game.S01E02.BDRip.x264-TINDER
2021-11-28 23:31:13 TV-SDRIP The.Mating.Game.S01E03.BDRip.x264-TINDER
2021-11-28 23:31:45 TV-SDRIP The.Mating.Game.S01E04.BDRip.x264-TINDER
2021-11-28 23:31:47 MP3 Mike_Storm-The_Distance_EP-AFKLT09-WEB-2021-WAV
2021-11-28 23:32:19 TV-SDRIP The.Mating.Game.S01E05.BDRip.x264-TINDER
2021-11-28 23:32:58 MP3 Rheak-Closed_Code_EP-R3UD006-WEB-2021-WAV
2021-11-28 23:34:04 MP3 Ross_Hillier-Loop_EP-UT079-WEB-2021-WAV
2021-11-28 23:34:47 TV-X264 Kongsvika.S01E04.NORWEGiAN.720p.HDTV.x264-NORPiLT
2021-11-28 23:34:59 MP3 Segler-Boomerang_EP-DRE351-WEB-2021-WAV
2021-11-28 23:35:41 TV-X264 This.is.Football.S01E03.1080p.WEB.H264-DiRK
2021-11-28 23:35:57 MP3 WHT_MOTH-Sottonono_EP-DVTR092-WEB-2021-WAV
2021-11-28 23:36:56 MP3 Zigler-Blood_Pact-HXAGRM035-WEB-2021-WAV
2021-11-28 23:38:01 FLAC AEX-AEon_deuX-Limited_Edition-CD-FLAC-2021-AMOK
2021-11-28 23:38:32 TV-HD-DE All.American.S03E10.German.1080p.WEB.x264-WvF
2021-11-28 23:39:25 FLAC Giirls-Reality-Limited_Edition-CD-FLAC-2021-AMOK
2021-11-28 23:39:46 TV-HD-DE Stargirl.S02E03.German.DL.720p.WEB.h264-WvF
2021-11-28 23:40:09 FLAC Nostalgia_Deathstar-Charged_Attachment-Limited_Edition-CD-FLAC-2021-AMOK
2021-11-28 23:40:44 TV-HD-DE Eine.franzoesische.Mordsache.S01E06.German.DL.720p.WEB.h264-WvF
2021-11-28 23:40:52 FLAC Nostalgia_Deathstar-ReCharged_Attachment-Limited_Edition-CD-FLAC-2021-AMOK
2021-11-28 23:41:22 TV-SD Buried.in.the.Backyard.S04E02.The.Bones.on.Party.Hill.HDTV.x264-CRiMSON
2021-11-28 23:41:52 TV-HD-DE Hightown.S02E06.German.DL.720p.WEB.h264-WvF
2021-11-28 23:41:58 TV-HD-NL Do.Re.And.Mi.S01E08.DUTCH.1080p.WEB.h264-NLKIDS
2021-11-28 23:43:06 TV-HD-DE Power.Book.II.Ghost.S02E02.German.DL.720p.WEB.h264-WvF
2021-11-28 23:45:02 MP3 Pico_Boulevard-Were_All_The_Same-JA083-WEB-2021-WAV
2021-11-28 23:47:39 TV-SD Day.of.the.Dead.S01E06.The.Lady.Birders.of.Nepa.HDTV.x264-CRiMSON
2021-11-28 23:51:00 X264-SD-PL The.Forever.Purge.2021.PL.BDRip.x264-FLAME
2021-11-28 23:51:04 TV-HD-DE Flipping.in.Idaho.S02E01.Ein.Haus.der.Extraklasse.German.DOKU.720p.WEB.x264-ATAX
2021-11-28 23:51:32 TV-X264 The.Forever.Purge.2021.PL.DUAL.720p.BluRay.x264-FLAME
2021-11-28 23:52:04 TV-HD The.Forever.Purge.2021.PL.DUAL.1080p.BluRay.x264-FLAME
2021-11-28 23:52:48 X265 The.Forever.Purge.2021.PL.DUAL.2160p.UHD.BluRay.x265-FLAME
2021-11-28 23:55:13 MP3 Spooky_Bizzle-Omicron_Riddim-SINGLE-WEB-2021-z0ne
2021-11-28 23:58:30 TV-SD-DE Flipping.in.Idaho.S02E01.Ein.Haus.der.Extraklasse.German.DOKU.WebRip.x264-ATAX